<?xml version="1.0" encoding="UTF-8" standalone="no" ?>
<gpx xmlns="http://www.topografix.com/GPX/1/1" xmlns:xsi="http://www.w3.org/2001/XMLSchema-instance" xsi:schemaLocation="http://www.topografix.com/GPX/1/1 http://www.topografix.com/GPX/1/1/gpx.xsd" version="1.1" creator="VisuGPX - https://www.visugpx.com">
  <metadata>
    <name>Crêtes de Lauret</name>
    <desc><![CDATA[A tester rapidement]]></desc>
  </metadata>
  <trk>
    <name><![CDATA[03-MARS-14 16:19:47]]></name>
    <trkseg>
      <trkpt lat="43.84312" lon="3.87903">
        <ele>193.36</ele>
        <time>2014-03-03T10:10:32Z</time>
      </trkpt>
      <trkpt lat="43.84312" lon="3.87903">
        <ele>193.36</ele>
        <time>2014-03-03T10:10:33Z</time>
      </trkpt>
      <trkpt lat="43.84309" lon="3.87903">
        <ele>193.36</ele>
        <time>2014-03-03T10:11:09Z</time>
      </trkpt>
      <trkpt lat="43.84306" lon="3.87902">
        <ele>193.84</ele>
        <time>2014-03-03T10:11:28Z</time>
      </trkpt>
      <trkpt lat="43.84306" lon="3.87901">
        <ele>193.36</ele>
        <time>2014-03-03T10:11:53Z</time>
      </trkpt>
      <trkpt lat="43.84307" lon="3.879">
        <ele>193.36</ele>
        <time>2014-03-03T10:12:10Z</time>
      </trkpt>
      <trkpt lat="43.84308" lon="3.87904">
        <ele>192.88</ele>
        <time>2014-03-03T10:12:29Z</time>
      </trkpt>
      <trkpt lat="43.84308" lon="3.87906">
        <ele>192.4</ele>
        <time>2014-03-03T10:12:44Z</time>
      </trkpt>
      <trkpt lat="43.84304" lon="3.87906">
        <ele>193.36</ele>
        <time>2014-03-03T10:13:05Z</time>
      </trkpt>
      <trkpt lat="43.84302" lon="3.87907">
        <ele>193.36</ele>
        <time>2014-03-03T10:13:34Z</time>
      </trkpt>
      <trkpt lat="43.84308" lon="3.87906">
        <ele>193.36</ele>
        <time>2014-03-03T10:13:55Z</time>
      </trkpt>
      <trkpt lat="43.84307" lon="3.8791">
        <ele>193.84</ele>
        <time>2014-03-03T10:14:07Z</time>
      </trkpt>
      <trkpt lat="43.84306" lon="3.87912">
        <ele>193.36</ele>
        <time>2014-03-03T10:14:20Z</time>
      </trkpt>
      <trkpt lat="43.84304" lon="3.87909">
        <ele>193.36</ele>
        <time>2014-03-03T10:14:37Z</time>
      </trkpt>
      <trkpt lat="43.84304" lon="3.8791">
        <ele>192.88</ele>
        <time>2014-03-03T10:14:49Z</time>
      </trkpt>
      <trkpt lat="43.84306" lon="3.87911">
        <ele>192.88</ele>
        <time>2014-03-03T10:15:07Z</time>
      </trkpt>
      <trkpt lat="43.84306" lon="3.87911">
        <ele>193.36</ele>
        <time>2014-03-03T10:15:20Z</time>
      </trkpt>
      <trkpt lat="43.84306" lon="3.87908">
        <ele>193.36</ele>
        <time>2014-03-03T10:15:36Z</time>
      </trkpt>
      <trkpt lat="43.84305" lon="3.87909">
        <ele>193.36</ele>
        <time>2014-03-03T10:15:51Z</time>
      </trkpt>
      <trkpt lat="43.84301" lon="3.87903">
        <ele>192.88</ele>
        <time>2014-03-03T10:16:02Z</time>
      </trkpt>
      <trkpt lat="43.843" lon="3.87902">
        <ele>192.88</ele>
        <time>2014-03-03T10:16:04Z</time>
      </trkpt>
      <trkpt lat="43.84295" lon="3.87888">
        <ele>192.4</ele>
        <time>2014-03-03T10:16:16Z</time>
      </trkpt>
      <trkpt lat="43.84289" lon="3.87875">
        <ele>191.92</ele>
        <time>2014-03-03T10:16:27Z</time>
      </trkpt>
      <trkpt lat="43.84289" lon="3.87871">
        <ele>192.4</ele>
        <time>2014-03-03T10:16:31Z</time>
      </trkpt>
      <trkpt lat="43.8429" lon="3.87864">
        <ele>192.4</ele>
        <time>2014-03-03T10:16:36Z</time>
      </trkpt>
      <trkpt lat="43.84291" lon="3.87861">
        <ele>191.92</ele>
        <time>2014-03-03T10:16:39Z</time>
      </trkpt>
      <trkpt lat="43.84292" lon="3.87839">
        <ele>192.4</ele>
        <time>2014-03-03T10:16:54Z</time>
      </trkpt>
      <trkpt lat="43.84292" lon="3.87832">
        <ele>192.4</ele>
        <time>2014-03-03T10:16:59Z</time>
      </trkpt>
      <trkpt lat="43.84299" lon="3.87807">
        <ele>192.88</ele>
        <time>2014-03-03T10:17:17Z</time>
      </trkpt>
      <trkpt lat="43.84304" lon="3.87794">
        <ele>192.88</ele>
        <time>2014-03-03T10:17:28Z</time>
      </trkpt>
      <trkpt lat="43.8431" lon="3.87772">
        <ele>193.36</ele>
        <time>2014-03-03T10:17:42Z</time>
      </trkpt>
      <trkpt lat="43.84313" lon="3.87764">
        <ele>193.84</ele>
        <time>2014-03-03T10:17:48Z</time>
      </trkpt>
      <trkpt lat="43.84314" lon="3.87758">
        <ele>194.32</ele>
        <time>2014-03-03T10:17:52Z</time>
      </trkpt>
      <trkpt lat="43.8432" lon="3.87739">
        <ele>194.8</ele>
        <time>2014-03-03T10:18:05Z</time>
      </trkpt>
      <trkpt lat="43.84325" lon="3.87726">
        <ele>195.28</ele>
        <time>2014-03-03T10:18:15Z</time>
      </trkpt>
      <trkpt lat="43.84327" lon="3.87711">
        <ele>195.77</ele>
        <time>2014-03-03T10:18:25Z</time>
      </trkpt>
      <trkpt lat="43.84331" lon="3.87703">
        <ele>196.73</ele>
        <time>2014-03-03T10:18:31Z</time>
      </trkpt>
      <trkpt lat="43.84333" lon="3.87695">
        <ele>197.21</ele>
        <time>2014-03-03T10:18:37Z</time>
      </trkpt>
      <trkpt lat="43.84339" lon="3.87675">
        <ele>197.69</ele>
        <time>2014-03-03T10:18:50Z</time>
      </trkpt>
      <trkpt lat="43.84343" lon="3.87655">
        <ele>198.65</ele>
        <time>2014-03-03T10:19:03Z</time>
      </trkpt>
      <trkpt lat="43.8435" lon="3.8764">
        <ele>199.13</ele>
        <time>2014-03-03T10:19:16Z</time>
      </trkpt>
      <trkpt lat="43.84354" lon="3.87631">
        <ele>200.09</ele>
        <time>2014-03-03T10:19:23Z</time>
      </trkpt>
      <trkpt lat="43.84356" lon="3.87626">
        <ele>200.09</ele>
        <time>2014-03-03T10:19:27Z</time>
      </trkpt>
      <trkpt lat="43.84359" lon="3.87618">
        <ele>201.05</ele>
        <time>2014-03-03T10:19:33Z</time>
      </trkpt>
      <trkpt lat="43.84367" lon="3.87602">
        <ele>201.53</ele>
        <time>2014-03-03T10:19:47Z</time>
      </trkpt>
      <trkpt lat="43.84368" lon="3.876">
        <ele>202.01</ele>
        <time>2014-03-03T10:19:49Z</time>
      </trkpt>
      <trkpt lat="43.8437" lon="3.87597">
        <ele>202.01</ele>
        <time>2014-03-03T10:19:51Z</time>
      </trkpt>
      <trkpt lat="43.84372" lon="3.87592">
        <ele>202.98</ele>
        <time>2014-03-03T10:19:55Z</time>
      </trkpt>
      <trkpt lat="43.84376" lon="3.87574">
        <ele>204.42</ele>
        <time>2014-03-03T10:20:09Z</time>
      </trkpt>
      <trkpt lat="43.84375" lon="3.87559">
        <ele>205.38</ele>
        <time>2014-03-03T10:20:21Z</time>
      </trkpt>
      <trkpt lat="43.84376" lon="3.87541">
        <ele>206.34</ele>
        <time>2014-03-03T10:20:35Z</time>
      </trkpt>
      <trkpt lat="43.84378" lon="3.87538">
        <ele>206.34</ele>
        <time>2014-03-03T10:20:38Z</time>
      </trkpt>
      <trkpt lat="43.84385" lon="3.87532">
        <ele>205.86</ele>
        <time>2014-03-03T10:20:52Z</time>
      </trkpt>
      <trkpt lat="43.84388" lon="3.8753">
        <ele>205.86</ele>
        <time>2014-03-03T10:20:59Z</time>
      </trkpt>
      <trkpt lat="43.84393" lon="3.87533">
        <ele>205.38</ele>
        <time>2014-03-03T10:21:04Z</time>
      </trkpt>
      <trkpt lat="43.84397" lon="3.87534">
        <ele>205.38</ele>
        <time>2014-03-03T10:21:09Z</time>
      </trkpt>
      <trkpt lat="43.84406" lon="3.87533">
        <ele>206.82</ele>
        <time>2014-03-03T10:21:23Z</time>
      </trkpt>
      <trkpt lat="43.8441" lon="3.8752">
        <ele>207.78</ele>
        <time>2014-03-03T10:21:38Z</time>
      </trkpt>
      <trkpt lat="43.84415" lon="3.87509">
        <ele>208.74</ele>
        <time>2014-03-03T10:21:52Z</time>
      </trkpt>
      <trkpt lat="43.8442" lon="3.875">
        <ele>209.7</ele>
        <time>2014-03-03T10:22:03Z</time>
      </trkpt>
      <trkpt lat="43.84426" lon="3.87486">
        <ele>211.63</ele>
        <time>2014-03-03T10:22:18Z</time>
      </trkpt>
      <trkpt lat="43.84432" lon="3.87477">
        <ele>213.07</ele>
        <time>2014-03-03T10:22:29Z</time>
      </trkpt>
      <trkpt lat="43.84439" lon="3.87462">
        <ele>214.99</ele>
        <time>2014-03-03T10:22:42Z</time>
      </trkpt>
      <trkpt lat="43.84442" lon="3.8745">
        <ele>216.91</ele>
        <time>2014-03-03T10:22:54Z</time>
      </trkpt>
      <trkpt lat="43.84447" lon="3.87436">
        <ele>219.8</ele>
        <time>2014-03-03T10:23:12Z</time>
      </trkpt>
      <trkpt lat="43.84452" lon="3.87428">
        <ele>220.76</ele>
        <time>2014-03-03T10:23:20Z</time>
      </trkpt>
      <trkpt lat="43.84454" lon="3.87413">
        <ele>223.16</ele>
        <time>2014-03-03T10:23:35Z</time>
      </trkpt>
      <trkpt lat="43.84455" lon="3.87402">
        <ele>225.09</ele>
        <time>2014-03-03T10:23:47Z</time>
      </trkpt>
      <trkpt lat="43.84453" lon="3.87392">
        <ele>227.01</ele>
        <time>2014-03-03T10:24:00Z</time>
      </trkpt>
      <trkpt lat="43.84456" lon="3.8738">
        <ele>229.41</ele>
        <time>2014-03-03T10:24:13Z</time>
      </trkpt>
      <trkpt lat="43.84459" lon="3.87366">
        <ele>231.33</ele>
        <time>2014-03-03T10:24:27Z</time>
      </trkpt>
      <trkpt lat="43.84462" lon="3.87353">
        <ele>232.78</ele>
        <time>2014-03-03T10:24:41Z</time>
      </trkpt>
      <trkpt lat="43.84462" lon="3.87339">
        <ele>235.66</ele>
        <time>2014-03-03T10:24:57Z</time>
      </trkpt>
      <trkpt lat="43.84463" lon="3.87318">
        <ele>238.54</ele>
        <time>2014-03-03T10:25:11Z</time>
      </trkpt>
      <trkpt lat="43.84456" lon="3.87309">
        <ele>241.43</ele>
        <time>2014-03-03T10:25:27Z</time>
      </trkpt>
      <trkpt lat="43.84447" lon="3.8731">
        <ele>243.35</ele>
        <time>2014-03-03T10:25:43Z</time>
      </trkpt>
      <trkpt lat="43.84447" lon="3.8731">
        <ele>243.35</ele>
        <time>2014-03-03T10:25:53Z</time>
      </trkpt>
      <trkpt lat="43.84447" lon="3.87312">
        <ele>242.87</ele>
        <time>2014-03-03T10:26:00Z</time>
      </trkpt>
      <trkpt lat="43.84448" lon="3.8731">
        <ele>243.35</ele>
        <time>2014-03-03T10:26:11Z</time>
      </trkpt>
      <trkpt lat="43.84447" lon="3.87311">
        <ele>242.87</ele>
        <time>2014-03-03T10:26:24Z</time>
      </trkpt>
      <trkpt lat="43.84446" lon="3.87311">
        <ele>242.87</ele>
        <time>2014-03-03T10:26:44Z</time>
      </trkpt>
      <trkpt lat="43.84446" lon="3.87311">
        <ele>243.35</ele>
        <time>2014-03-03T10:27:01Z</time>
      </trkpt>
      <trkpt lat="43.84446" lon="3.87311">
        <ele>242.87</ele>
        <time>2014-03-03T10:27:17Z</time>
      </trkpt>
      <trkpt lat="43.84447" lon="3.87314">
        <ele>242.87</ele>
        <time>2014-03-03T10:27:27Z</time>
      </trkpt>
      <trkpt lat="43.84448" lon="3.87314">
        <ele>242.87</ele>
        <time>2014-03-03T10:27:36Z</time>
      </trkpt>
      <trkpt lat="43.84448" lon="3.87314">
        <ele>242.87</ele>
        <time>2014-03-03T10:27:49Z</time>
      </trkpt>
      <trkpt lat="43.84444" lon="3.87315">
        <ele>243.83</ele>
        <time>2014-03-03T10:28:00Z</time>
      </trkpt>
      <trkpt lat="43.84433" lon="3.87319">
        <ele>244.31</ele>
        <time>2014-03-03T10:28:15Z</time>
      </trkpt>
      <trkpt lat="43.8443" lon="3.8732">
        <ele>243.83</ele>
        <time>2014-03-03T10:28:19Z</time>
      </trkpt>
      <trkpt lat="43.84418" lon="3.87328">
        <ele>243.83</ele>
        <time>2014-03-03T10:28:33Z</time>
      </trkpt>
      <trkpt lat="43.84409" lon="3.87334">
        <ele>244.31</ele>
        <time>2014-03-03T10:28:42Z</time>
      </trkpt>
      <trkpt lat="43.84397" lon="3.87339">
        <ele>244.79</ele>
        <time>2014-03-03T10:28:55Z</time>
      </trkpt>
      <trkpt lat="43.8438" lon="3.87346">
        <ele>245.75</ele>
        <time>2014-03-03T10:29:16Z</time>
      </trkpt>
      <trkpt lat="43.84364" lon="3.87348">
        <ele>248.64</ele>
        <time>2014-03-03T10:29:33Z</time>
      </trkpt>
      <trkpt lat="43.84353" lon="3.87353">
        <ele>251.52</ele>
        <time>2014-03-03T10:29:49Z</time>
      </trkpt>
      <trkpt lat="43.84339" lon="3.87357">
        <ele>253.93</ele>
        <time>2014-03-03T10:30:05Z</time>
      </trkpt>
      <trkpt lat="43.84326" lon="3.87361">
        <ele>256.33</ele>
        <time>2014-03-03T10:30:22Z</time>
      </trkpt>
      <trkpt lat="43.84314" lon="3.87363">
        <ele>259.21</ele>
        <time>2014-03-03T10:30:38Z</time>
      </trkpt>
      <trkpt lat="43.84299" lon="3.87369">
        <ele>261.62</ele>
        <time>2014-03-03T10:30:55Z</time>
      </trkpt>
      <trkpt lat="43.84291" lon="3.87373">
        <ele>264.5</ele>
        <time>2014-03-03T10:31:12Z</time>
      </trkpt>
      <trkpt lat="43.8428" lon="3.87381">
        <ele>266.42</ele>
        <time>2014-03-03T10:31:28Z</time>
      </trkpt>
      <trkpt lat="43.8427" lon="3.87387">
        <ele>268.35</ele>
        <time>2014-03-03T10:31:41Z</time>
      </trkpt>
      <trkpt lat="43.84257" lon="3.87398">
        <ele>270.75</ele>
        <time>2014-03-03T10:31:58Z</time>
      </trkpt>
      <trkpt lat="43.84247" lon="3.87402">
        <ele>273.63</ele>
        <time>2014-03-03T10:32:13Z</time>
      </trkpt>
      <trkpt lat="43.8424" lon="3.87407">
        <ele>276.52</ele>
        <time>2014-03-03T10:32:28Z</time>
      </trkpt>
      <trkpt lat="43.84228" lon="3.87415">
        <ele>279.4</ele>
        <time>2014-03-03T10:32:45Z</time>
      </trkpt>
      <trkpt lat="43.84219" lon="3.87417">
        <ele>282.28</ele>
        <time>2014-03-03T10:33:00Z</time>
      </trkpt>
      <trkpt lat="43.84212" lon="3.87425">
        <ele>284.69</ele>
        <time>2014-03-03T10:33:14Z</time>
      </trkpt>
      <trkpt lat="43.84203" lon="3.87431">
        <ele>287.09</ele>
        <time>2014-03-03T10:33:27Z</time>
      </trkpt>
      <trkpt lat="43.84194" lon="3.87438">
        <ele>289.49</ele>
        <time>2014-03-03T10:33:41Z</time>
      </trkpt>
      <trkpt lat="43.8419" lon="3.87451">
        <ele>290.94</ele>
        <time>2014-03-03T10:33:53Z</time>
      </trkpt>
      <trkpt lat="43.84185" lon="3.87455">
        <ele>292.38</ele>
        <time>2014-03-03T10:33:59Z</time>
      </trkpt>
      <trkpt lat="43.84174" lon="3.8746">
        <ele>294.78</ele>
        <time>2014-03-03T10:34:13Z</time>
      </trkpt>
      <trkpt lat="43.84169" lon="3.87462">
        <ele>296.7</ele>
        <time>2014-03-03T10:34:25Z</time>
      </trkpt>
      <trkpt lat="43.84162" lon="3.87468">
        <ele>298.63</ele>
        <time>2014-03-03T10:34:38Z</time>
      </trkpt>
      <trkpt lat="43.8416" lon="3.87468">
        <ele>298.63</ele>
        <time>2014-03-03T10:34:52Z</time>
      </trkpt>
      <trkpt lat="43.84159" lon="3.87469">
        <ele>298.63</ele>
        <time>2014-03-03T10:35:16Z</time>
      </trkpt>
      <trkpt lat="43.84161" lon="3.87467">
        <ele>298.15</ele>
        <time>2014-03-03T10:35:36Z</time>
      </trkpt>
      <trkpt lat="43.8416" lon="3.87467">
        <ele>298.15</ele>
        <time>2014-03-03T10:35:49Z</time>
      </trkpt>
      <trkpt lat="43.84158" lon="3.87469">
        <ele>299.11</ele>
        <time>2014-03-03T10:36:04Z</time>
      </trkpt>
      <trkpt lat="43.84159" lon="3.87469">
        <ele>299.11</ele>
        <time>2014-03-03T10:36:21Z</time>
      </trkpt>
      <trkpt lat="43.8416" lon="3.87471">
        <ele>299.11</ele>
        <time>2014-03-03T10:36:37Z</time>
      </trkpt>
      <trkpt lat="43.84158" lon="3.87469">
        <ele>299.11</ele>
        <time>2014-03-03T10:36:58Z</time>
      </trkpt>
      <trkpt lat="43.84154" lon="3.87472">
        <ele>299.11</ele>
        <time>2014-03-03T10:37:14Z</time>
      </trkpt>
      <trkpt lat="43.84153" lon="3.87473">
        <ele>299.59</ele>
        <time>2014-03-03T10:37:16Z</time>
      </trkpt>
      <trkpt lat="43.84144" lon="3.87479">
        <ele>300.55</ele>
        <time>2014-03-03T10:37:28Z</time>
      </trkpt>
      <trkpt lat="43.84143" lon="3.87481">
        <ele>301.03</ele>
        <time>2014-03-03T10:37:31Z</time>
      </trkpt>
      <trkpt lat="43.84139" lon="3.87483">
        <ele>301.51</ele>
        <time>2014-03-03T10:37:35Z</time>
      </trkpt>
      <trkpt lat="43.84128" lon="3.87485">
        <ele>303.43</ele>
        <time>2014-03-03T10:37:49Z</time>
      </trkpt>
      <trkpt lat="43.84113" lon="3.87485">
        <ele>304.39</ele>
        <time>2014-03-03T10:38:03Z</time>
      </trkpt>
      <trkpt lat="43.841" lon="3.87481">
        <ele>306.8</ele>
        <time>2014-03-03T10:38:16Z</time>
      </trkpt>
      <trkpt lat="43.84087" lon="3.87476">
        <ele>307.76</ele>
        <time>2014-03-03T10:38:29Z</time>
      </trkpt>
      <trkpt lat="43.84077" lon="3.87465">
        <ele>308.72</ele>
        <time>2014-03-03T10:38:43Z</time>
      </trkpt>
      <trkpt lat="43.84073" lon="3.87459">
        <ele>309.68</ele>
        <time>2014-03-03T10:38:51Z</time>
      </trkpt>
      <trkpt lat="43.84066" lon="3.87456">
        <ele>310.16</ele>
        <time>2014-03-03T10:39:00Z</time>
      </trkpt>
      <trkpt lat="43.84063" lon="3.87453">
        <ele>311.12</ele>
        <time>2014-03-03T10:39:04Z</time>
      </trkpt>
      <trkpt lat="43.84056" lon="3.87451">
        <ele>311.12</ele>
        <time>2014-03-03T10:39:10Z</time>
      </trkpt>
      <trkpt lat="43.8405" lon="3.87443">
        <ele>313.05</ele>
        <time>2014-03-03T10:39:23Z</time>
      </trkpt>
      <trkpt lat="43.84049" lon="3.87431">
        <ele>314.97</ele>
        <time>2014-03-03T10:39:35Z</time>
      </trkpt>
      <trkpt lat="43.84037" lon="3.87414">
        <ele>316.41</ele>
        <time>2014-03-03T10:39:52Z</time>
      </trkpt>
      <trkpt lat="43.84026" lon="3.87401">
        <ele>317.85</ele>
        <time>2014-03-03T10:40:07Z</time>
      </trkpt>
      <trkpt lat="43.84021" lon="3.87392">
        <ele>318.33</ele>
        <time>2014-03-03T10:40:16Z</time>
      </trkpt>
      <trkpt lat="43.84017" lon="3.87386">
        <ele>318.81</ele>
        <time>2014-03-03T10:40:22Z</time>
      </trkpt>
      <trkpt lat="43.84013" lon="3.87381">
        <ele>318.81</ele>
        <time>2014-03-03T10:40:28Z</time>
      </trkpt>
      <trkpt lat="43.84004" lon="3.87367">
        <ele>319.3</ele>
        <time>2014-03-03T10:40:41Z</time>
      </trkpt>
      <trkpt lat="43.83998" lon="3.87356">
        <ele>318.81</ele>
        <time>2014-03-03T10:40:52Z</time>
      </trkpt>
      <trkpt lat="43.83997" lon="3.87353">
        <ele>318.81</ele>
        <time>2014-03-03T10:40:54Z</time>
      </trkpt>
      <trkpt lat="43.83994" lon="3.87345">
        <ele>319.78</ele>
        <time>2014-03-03T10:41:00Z</time>
      </trkpt>
      <trkpt lat="43.83985" lon="3.87331">
        <ele>319.78</ele>
        <time>2014-03-03T10:41:13Z</time>
      </trkpt>
      <trkpt lat="43.83977" lon="3.8732">
        <ele>317.85</ele>
        <time>2014-03-03T10:41:26Z</time>
      </trkpt>
      <trkpt lat="43.83973" lon="3.87306">
        <ele>318.81</ele>
        <time>2014-03-03T10:41:37Z</time>
      </trkpt>
      <trkpt lat="43.83967" lon="3.87297">
        <ele>316.89</ele>
        <time>2014-03-03T10:41:49Z</time>
      </trkpt>
      <trkpt lat="43.83964" lon="3.8729">
        <ele>316.41</ele>
        <time>2014-03-03T10:41:57Z</time>
      </trkpt>
      <trkpt lat="43.83963" lon="3.87283">
        <ele>317.37</ele>
        <time>2014-03-03T10:42:03Z</time>
      </trkpt>
      <trkpt lat="43.8396" lon="3.87276">
        <ele>317.37</ele>
        <time>2014-03-03T10:42:09Z</time>
      </trkpt>
      <trkpt lat="43.83957" lon="3.87262">
        <ele>317.37</ele>
        <time>2014-03-03T10:42:22Z</time>
      </trkpt>
      <trkpt lat="43.83954" lon="3.87257">
        <ele>315.93</ele>
        <time>2014-03-03T10:42:35Z</time>
      </trkpt>
      <trkpt lat="43.83954" lon="3.87251">
        <ele>316.41</ele>
        <time>2014-03-03T10:42:49Z</time>
      </trkpt>
      <trkpt lat="43.83951" lon="3.87243">
        <ele>315.93</ele>
        <time>2014-03-03T10:43:01Z</time>
      </trkpt>
      <trkpt lat="43.83946" lon="3.8723">
        <ele>316.41</ele>
        <time>2014-03-03T10:43:16Z</time>
      </trkpt>
      <trkpt lat="43.83943" lon="3.87223">
        <ele>316.89</ele>
        <time>2014-03-03T10:43:23Z</time>
      </trkpt>
      <trkpt lat="43.8394" lon="3.87208">
        <ele>316.41</ele>
        <time>2014-03-03T10:43:36Z</time>
      </trkpt>
      <trkpt lat="43.83939" lon="3.87201">
        <ele>316.89</ele>
        <time>2014-03-03T10:43:42Z</time>
      </trkpt>
      <trkpt lat="43.83938" lon="3.87198">
        <ele>317.37</ele>
        <time>2014-03-03T10:43:45Z</time>
      </trkpt>
      <trkpt lat="43.83936" lon="3.87194">
        <ele>316.89</ele>
        <time>2014-03-03T10:43:48Z</time>
      </trkpt>
      <trkpt lat="43.83931" lon="3.87184">
        <ele>315.45</ele>
        <time>2014-03-03T10:44:02Z</time>
      </trkpt>
      <trkpt lat="43.83927" lon="3.87179">
        <ele>312.57</ele>
        <time>2014-03-03T10:44:15Z</time>
      </trkpt>
      <trkpt lat="43.83922" lon="3.87169">
        <ele>311.12</ele>
        <time>2014-03-03T10:44:26Z</time>
      </trkpt>
      <trkpt lat="43.8392" lon="3.87156">
        <ele>311.6</ele>
        <time>2014-03-03T10:44:41Z</time>
      </trkpt>
      <trkpt lat="43.83925" lon="3.87147">
        <ele>314.01</ele>
        <time>2014-03-03T10:44:55Z</time>
      </trkpt>
      <trkpt lat="43.83926" lon="3.87141">
        <ele>314.49</ele>
        <time>2014-03-03T10:45:02Z</time>
      </trkpt>
      <trkpt lat="43.83931" lon="3.87128">
        <ele>316.89</ele>
        <time>2014-03-03T10:45:17Z</time>
      </trkpt>
      <trkpt lat="43.83936" lon="3.87114">
        <ele>318.33</ele>
        <time>2014-03-03T10:45:31Z</time>
      </trkpt>
      <trkpt lat="43.83936" lon="3.87113">
        <ele>318.81</ele>
        <time>2014-03-03T10:45:32Z</time>
      </trkpt>
      <trkpt lat="43.83935" lon="3.87108">
        <ele>318.33</ele>
        <time>2014-03-03T10:45:35Z</time>
      </trkpt>
      <trkpt lat="43.83935" lon="3.87095">
        <ele>318.33</ele>
        <time>2014-03-03T10:45:45Z</time>
      </trkpt>
      <trkpt lat="43.83935" lon="3.87079">
        <ele>317.37</ele>
        <time>2014-03-03T10:45:57Z</time>
      </trkpt>
      <trkpt lat="43.83937" lon="3.87063">
        <ele>317.37</ele>
        <time>2014-03-03T10:46:09Z</time>
      </trkpt>
      <trkpt lat="43.83937" lon="3.87048">
        <ele>319.78</ele>
        <time>2014-03-03T10:46:21Z</time>
      </trkpt>
      <trkpt lat="43.83941" lon="3.87039">
        <ele>321.22</ele>
        <time>2014-03-03T10:46:35Z</time>
      </trkpt>
      <trkpt lat="43.83943" lon="3.8704">
        <ele>322.18</ele>
        <time>2014-03-03T10:46:45Z</time>
      </trkpt>
      <trkpt lat="43.83943" lon="3.87039">
        <ele>320.74</ele>
        <time>2014-03-03T10:46:56Z</time>
      </trkpt>
      <trkpt lat="43.83944" lon="3.87039">
        <ele>320.74</ele>
        <time>2014-03-03T10:47:04Z</time>
      </trkpt>
      <trkpt lat="43.83942" lon="3.87039">
        <ele>321.22</ele>
        <time>2014-03-03T10:47:20Z</time>
      </trkpt>
      <trkpt lat="43.83941" lon="3.87039">
        <ele>320.74</ele>
        <time>2014-03-03T10:47:40Z</time>
      </trkpt>
      <trkpt lat="43.8394" lon="3.87041">
        <ele>321.22</ele>
        <time>2014-03-03T10:48:06Z</time>
      </trkpt>
      <trkpt lat="43.8394" lon="3.8704">
        <ele>320.74</ele>
        <time>2014-03-03T10:48:29Z</time>
      </trkpt>
      <trkpt lat="43.83943" lon="3.87038">
        <ele>321.22</ele>
        <time>2014-03-03T10:48:42Z</time>
      </trkpt>
      <trkpt lat="43.83944" lon="3.87038">
        <ele>321.7</ele>
        <time>2014-03-03T10:48:44Z</time>
      </trkpt>
      <trkpt lat="43.83948" lon="3.87027">
        <ele>324.58</ele>
        <time>2014-03-03T10:48:55Z</time>
      </trkpt>
      <trkpt lat="43.83951" lon="3.87017">
        <ele>327.95</ele>
        <time>2014-03-03T10:49:07Z</time>
      </trkpt>
      <trkpt lat="43.83957" lon="3.87002">
        <ele>330.35</ele>
        <time>2014-03-03T10:49:21Z</time>
      </trkpt>
      <trkpt lat="43.83962" lon="3.86991">
        <ele>333.23</ele>
        <time>2014-03-03T10:49:35Z</time>
      </trkpt>
      <trkpt lat="43.83962" lon="3.86985">
        <ele>333.71</ele>
        <time>2014-03-03T10:49:40Z</time>
      </trkpt>
      <trkpt lat="43.83962" lon="3.86974">
        <ele>334.2</ele>
        <time>2014-03-03T10:49:48Z</time>
      </trkpt>
      <trkpt lat="43.83963" lon="3.86959">
        <ele>336.12</ele>
        <time>2014-03-03T10:50:01Z</time>
      </trkpt>
      <trkpt lat="43.83968" lon="3.86949">
        <ele>339</ele>
        <time>2014-03-03T10:50:14Z</time>
      </trkpt>
      <trkpt lat="43.83965" lon="3.86937">
        <ele>341.41</ele>
        <time>2014-03-03T10:50:26Z</time>
      </trkpt>
      <trkpt lat="43.83964" lon="3.86925">
        <ele>343.33</ele>
        <time>2014-03-03T10:50:38Z</time>
      </trkpt>
      <trkpt lat="43.8396" lon="3.86913">
        <ele>344.29</ele>
        <time>2014-03-03T10:50:50Z</time>
      </trkpt>
      <trkpt lat="43.83958" lon="3.86911">
        <ele>344.29</ele>
        <time>2014-03-03T10:51:07Z</time>
      </trkpt>
      <trkpt lat="43.83958" lon="3.8691">
        <ele>343.81</ele>
        <time>2014-03-03T10:51:26Z</time>
      </trkpt>
      <trkpt lat="43.83953" lon="3.86897">
        <ele>344.29</ele>
        <time>2014-03-03T10:51:39Z</time>
      </trkpt>
      <trkpt lat="43.83954" lon="3.86897">
        <ele>344.29</ele>
        <time>2014-03-03T10:51:40Z</time>
      </trkpt>
      <trkpt lat="43.83955" lon="3.86895">
        <ele>344.29</ele>
        <time>2014-03-03T10:51:49Z</time>
      </trkpt>
      <trkpt lat="43.83949" lon="3.86886">
        <ele>344.77</ele>
        <time>2014-03-03T10:51:58Z</time>
      </trkpt>
      <trkpt lat="43.83945" lon="3.86868">
        <ele>344.77</ele>
        <time>2014-03-03T10:52:09Z</time>
      </trkpt>
      <trkpt lat="43.83945" lon="3.86864">
        <ele>344.77</ele>
        <time>2014-03-03T10:52:12Z</time>
      </trkpt>
      <trkpt lat="43.83945" lon="3.86856">
        <ele>344.77</ele>
        <time>2014-03-03T10:52:18Z</time>
      </trkpt>
      <trkpt lat="43.83944" lon="3.86847">
        <ele>344.77</ele>
        <time>2014-03-03T10:52:23Z</time>
      </trkpt>
      <trkpt lat="43.83952" lon="3.86828">
        <ele>344.77</ele>
        <time>2014-03-03T10:52:38Z</time>
      </trkpt>
      <trkpt lat="43.83955" lon="3.86822">
        <ele>345.73</ele>
        <time>2014-03-03T10:52:43Z</time>
      </trkpt>
      <trkpt lat="43.83955" lon="3.86815">
        <ele>345.25</ele>
        <time>2014-03-03T10:52:47Z</time>
      </trkpt>
      <trkpt lat="43.83965" lon="3.86796">
        <ele>345.73</ele>
        <time>2014-03-03T10:53:02Z</time>
      </trkpt>
      <trkpt lat="43.83974" lon="3.86781">
        <ele>346.21</ele>
        <time>2014-03-03T10:53:14Z</time>
      </trkpt>
      <trkpt lat="43.83977" lon="3.86768">
        <ele>345.73</ele>
        <time>2014-03-03T10:53:21Z</time>
      </trkpt>
      <trkpt lat="43.83986" lon="3.8674">
        <ele>347.17</ele>
        <time>2014-03-03T10:53:41Z</time>
      </trkpt>
      <trkpt lat="43.83997" lon="3.86719">
        <ele>346.21</ele>
        <time>2014-03-03T10:53:57Z</time>
      </trkpt>
      <trkpt lat="43.83998" lon="3.86713">
        <ele>346.21</ele>
        <time>2014-03-03T10:54:01Z</time>
      </trkpt>
      <trkpt lat="43.84" lon="3.86708">
        <ele>346.21</ele>
        <time>2014-03-03T10:54:05Z</time>
      </trkpt>
      <trkpt lat="43.84005" lon="3.86697">
        <ele>345.25</ele>
        <time>2014-03-03T10:54:14Z</time>
      </trkpt>
      <trkpt lat="43.84012" lon="3.86688">
        <ele>345.73</ele>
        <time>2014-03-03T10:54:22Z</time>
      </trkpt>
      <trkpt lat="43.84025" lon="3.86675">
        <ele>345.25</ele>
        <time>2014-03-03T10:54:36Z</time>
      </trkpt>
      <trkpt lat="43.8404" lon="3.86657">
        <ele>344.77</ele>
        <time>2014-03-03T10:54:50Z</time>
      </trkpt>
      <trkpt lat="43.84053" lon="3.86648">
        <ele>344.29</ele>
        <time>2014-03-03T10:55:02Z</time>
      </trkpt>
      <trkpt lat="43.84054" lon="3.86647">
        <ele>344.29</ele>
        <time>2014-03-03T10:55:03Z</time>
      </trkpt>
      <trkpt lat="43.84059" lon="3.86642">
        <ele>343.81</ele>
        <time>2014-03-03T10:55:09Z</time>
      </trkpt>
      <trkpt lat="43.84062" lon="3.86641">
        <ele>343.33</ele>
        <time>2014-03-03T10:55:11Z</time>
      </trkpt>
      <trkpt lat="43.84063" lon="3.8664">
        <ele>343.33</ele>
        <time>2014-03-03T10:55:12Z</time>
      </trkpt>
      <trkpt lat="43.84073" lon="3.86631">
        <ele>342.85</ele>
        <time>2014-03-03T10:55:22Z</time>
      </trkpt>
      <trkpt lat="43.84074" lon="3.86631">
        <ele>342.85</ele>
        <time>2014-03-03T10:55:23Z</time>
      </trkpt>
      <trkpt lat="43.84078" lon="3.86625">
        <ele>341.89</ele>
        <time>2014-03-03T10:55:29Z</time>
      </trkpt>
      <trkpt lat="43.84079" lon="3.86624">
        <ele>342.37</ele>
        <time>2014-03-03T10:55:30Z</time>
      </trkpt>
      <trkpt lat="43.8408" lon="3.86623">
        <ele>342.37</ele>
        <time>2014-03-03T10:55:31Z</time>
      </trkpt>
      <trkpt lat="43.84088" lon="3.8661">
        <ele>341.89</ele>
        <time>2014-03-03T10:55:42Z</time>
      </trkpt>
      <trkpt lat="43.84089" lon="3.8661">
        <ele>341.89</ele>
        <time>2014-03-03T10:55:43Z</time>
      </trkpt>
      <trkpt lat="43.8409" lon="3.86608">
        <ele>342.37</ele>
        <time>2014-03-03T10:55:44Z</time>
      </trkpt>
      <trkpt lat="43.84104" lon="3.86591">
        <ele>341.89</ele>
        <time>2014-03-03T10:55:59Z</time>
      </trkpt>
      <trkpt lat="43.84114" lon="3.86581">
        <ele>341.89</ele>
        <time>2014-03-03T10:56:09Z</time>
      </trkpt>
      <trkpt lat="43.84118" lon="3.86575">
        <ele>341.41</ele>
        <time>2014-03-03T10:56:14Z</time>
      </trkpt>
      <trkpt lat="43.84132" lon="3.86562">
        <ele>341.89</ele>
        <time>2014-03-03T10:56:27Z</time>
      </trkpt>
      <trkpt lat="43.84139" lon="3.86559">
        <ele>340.92</ele>
        <time>2014-03-03T10:56:33Z</time>
      </trkpt>
      <trkpt lat="43.8414" lon="3.86559">
        <ele>340.92</ele>
        <time>2014-03-03T10:56:34Z</time>
      </trkpt>
      <trkpt lat="43.84146" lon="3.8656">
        <ele>341.41</ele>
        <time>2014-03-03T10:56:40Z</time>
      </trkpt>
      <trkpt lat="43.84152" lon="3.86563">
        <ele>341.41</ele>
        <time>2014-03-03T10:56:46Z</time>
      </trkpt>
      <trkpt lat="43.84153" lon="3.86563">
        <ele>341.41</ele>
        <time>2014-03-03T10:56:47Z</time>
      </trkpt>
      <trkpt lat="43.84155" lon="3.86564">
        <ele>341.41</ele>
        <time>2014-03-03T10:56:48Z</time>
      </trkpt>
      <trkpt lat="43.84159" lon="3.86566">
        <ele>341.41</ele>
        <time>2014-03-03T10:56:52Z</time>
      </trkpt>
      <trkpt lat="43.8416" lon="3.86567">
        <ele>341.41</ele>
        <time>2014-03-03T10:56:53Z</time>
      </trkpt>
      <trkpt lat="43.84162" lon="3.86568">
        <ele>341.41</ele>
        <time>2014-03-03T10:56:54Z</time>
      </trkpt>
      <trkpt lat="43.84163" lon="3.86569">
        <ele>341.41</ele>
        <time>2014-03-03T10:56:55Z</time>
      </trkpt>
      <trkpt lat="43.84165" lon="3.8657">
        <ele>341.89</ele>
        <time>2014-03-03T10:56:56Z</time>
      </trkpt>
      <trkpt lat="43.84166" lon="3.86571">
        <ele>341.41</ele>
        <time>2014-03-03T10:56:57Z</time>
      </trkpt>
      <trkpt lat="43.84167" lon="3.86572">
        <ele>340.92</ele>
        <time>2014-03-03T10:56:58Z</time>
      </trkpt>
      <trkpt lat="43.84169" lon="3.86572">
        <ele>340.92</ele>
        <time>2014-03-03T10:56:59Z</time>
      </trkpt>
      <trkpt lat="43.84171" lon="3.86573">
        <ele>340.92</ele>
        <time>2014-03-03T10:57:00Z</time>
      </trkpt>
      <trkpt lat="43.84174" lon="3.86574">
        <ele>340.92</ele>
        <time>2014-03-03T10:57:04Z</time>
      </trkpt>
      <trkpt lat="43.84176" lon="3.86573">
        <ele>340.92</ele>
        <time>2014-03-03T10:57:05Z</time>
      </trkpt>
      <trkpt lat="43.84183" lon="3.86571">
        <ele>340.92</ele>
        <time>2014-03-03T10:57:10Z</time>
      </trkpt>
      <trkpt lat="43.84184" lon="3.86571">
        <ele>340.92</ele>
        <time>2014-03-03T10:57:11Z</time>
      </trkpt>
      <trkpt lat="43.84186" lon="3.8657">
        <ele>340.44</ele>
        <time>2014-03-03T10:57:12Z</time>
      </trkpt>
      <trkpt lat="43.84188" lon="3.8657">
        <ele>340.92</ele>
        <time>2014-03-03T10:57:13Z</time>
      </trkpt>
      <trkpt lat="43.842" lon="3.86567">
        <ele>340.92</ele>
        <time>2014-03-03T10:57:23Z</time>
      </trkpt>
      <trkpt lat="43.84213" lon="3.86561">
        <ele>340.44</ele>
        <time>2014-03-03T10:57:34Z</time>
      </trkpt>
      <trkpt lat="43.84214" lon="3.86559">
        <ele>339.96</ele>
        <time>2014-03-03T10:57:36Z</time>
      </trkpt>
      <trkpt lat="43.84215" lon="3.86558">
        <ele>340.44</ele>
        <time>2014-03-03T10:57:37Z</time>
      </trkpt>
      <trkpt lat="43.84216" lon="3.86557">
        <ele>340.44</ele>
        <time>2014-03-03T10:57:38Z</time>
      </trkpt>
      <trkpt lat="43.84217" lon="3.86556">
        <ele>339.96</ele>
        <time>2014-03-03T10:57:39Z</time>
      </trkpt>
      <trkpt lat="43.84225" lon="3.86545">
        <ele>339.96</ele>
        <time>2014-03-03T10:57:49Z</time>
      </trkpt>
      <trkpt lat="43.84226" lon="3.86544">
        <ele>339.96</ele>
        <time>2014-03-03T10:57:50Z</time>
      </trkpt>
      <trkpt lat="43.84227" lon="3.86542">
        <ele>339.96</ele>
        <time>2014-03-03T10:57:51Z</time>
      </trkpt>
      <trkpt lat="43.84233" lon="3.8653">
        <ele>339.48</ele>
        <time>2014-03-03T10:58:01Z</time>
      </trkpt>
      <trkpt lat="43.84234" lon="3.86528">
        <ele>339.96</ele>
        <time>2014-03-03T10:58:02Z</time>
      </trkpt>
      <trkpt lat="43.84239" lon="3.8652">
        <ele>340.44</ele>
        <time>2014-03-03T10:58:09Z</time>
      </trkpt>
      <trkpt lat="43.8424" lon="3.86519">
        <ele>340.44</ele>
        <time>2014-03-03T10:58:10Z</time>
      </trkpt>
      <trkpt lat="43.84241" lon="3.86517">
        <ele>339.96</ele>
        <time>2014-03-03T10:58:11Z</time>
      </trkpt>
      <trkpt lat="43.84242" lon="3.86516">
        <ele>340.44</ele>
        <time>2014-03-03T10:58:12Z</time>
      </trkpt>
      <trkpt lat="43.84254" lon="3.86502">
        <ele>339.48</ele>
        <time>2014-03-03T10:58:25Z</time>
      </trkpt>
      <trkpt lat="43.84259" lon="3.86498">
        <ele>339.96</ele>
        <time>2014-03-03T10:58:29Z</time>
      </trkpt>
      <trkpt lat="43.8426" lon="3.86498">
        <ele>339.48</ele>
        <time>2014-03-03T10:58:30Z</time>
      </trkpt>
      <trkpt lat="43.84267" lon="3.865">
        <ele>340.92</ele>
        <time>2014-03-03T10:58:37Z</time>
      </trkpt>
      <trkpt lat="43.84269" lon="3.86502">
        <ele>340.92</ele>
        <time>2014-03-03T10:58:39Z</time>
      </trkpt>
      <trkpt lat="43.8427" lon="3.86503">
        <ele>341.41</ele>
        <time>2014-03-03T10:58:40Z</time>
      </trkpt>
      <trkpt lat="43.84276" lon="3.86516">
        <ele>341.89</ele>
        <time>2014-03-03T10:58:50Z</time>
      </trkpt>
      <trkpt lat="43.84277" lon="3.86521">
        <ele>342.37</ele>
        <time>2014-03-03T10:58:54Z</time>
      </trkpt>
      <trkpt lat="43.84278" lon="3.86524">
        <ele>342.85</ele>
        <time>2014-03-03T10:58:56Z</time>
      </trkpt>
      <trkpt lat="43.84279" lon="3.86526">
        <ele>342.85</ele>
        <time>2014-03-03T10:58:57Z</time>
      </trkpt>
      <trkpt lat="43.84279" lon="3.86527">
        <ele>342.85</ele>
        <time>2014-03-03T10:58:58Z</time>
      </trkpt>
      <trkpt lat="43.84283" lon="3.86542">
        <ele>343.81</ele>
        <time>2014-03-03T10:59:08Z</time>
      </trkpt>
      <trkpt lat="43.84285" lon="3.86557">
        <ele>344.29</ele>
        <time>2014-03-03T10:59:18Z</time>
      </trkpt>
      <trkpt lat="43.84286" lon="3.86571">
        <ele>345.73</ele>
        <time>2014-03-03T10:59:28Z</time>
      </trkpt>
      <trkpt lat="43.84286" lon="3.86586">
        <ele>347.17</ele>
        <time>2014-03-03T10:59:39Z</time>
      </trkpt>
      <trkpt lat="43.84287" lon="3.86587">
        <ele>347.17</ele>
        <time>2014-03-03T10:59:40Z</time>
      </trkpt>
      <trkpt lat="43.84289" lon="3.86591">
        <ele>348.13</ele>
        <time>2014-03-03T10:59:44Z</time>
      </trkpt>
      <trkpt lat="43.8429" lon="3.86591">
        <ele>348.13</ele>
        <time>2014-03-03T10:59:45Z</time>
      </trkpt>
      <trkpt lat="43.84293" lon="3.86591">
        <ele>348.13</ele>
        <time>2014-03-03T10:59:48Z</time>
      </trkpt>
      <trkpt lat="43.84299" lon="3.86594">
        <ele>347.17</ele>
        <time>2014-03-03T10:59:57Z</time>
      </trkpt>
      <trkpt lat="43.843" lon="3.86596">
        <ele>347.17</ele>
        <time>2014-03-03T10:59:58Z</time>
      </trkpt>
      <trkpt lat="43.84302" lon="3.86603">
        <ele>347.17</ele>
        <time>2014-03-03T11:00:05Z</time>
      </trkpt>
      <trkpt lat="43.84302" lon="3.86605">
        <ele>346.69</ele>
        <time>2014-03-03T11:00:06Z</time>
      </trkpt>
      <trkpt lat="43.84302" lon="3.86609">
        <ele>347.17</ele>
        <time>2014-03-03T11:00:09Z</time>
      </trkpt>
      <trkpt lat="43.84302" lon="3.86613">
        <ele>347.65</ele>
        <time>2014-03-03T11:00:13Z</time>
      </trkpt>
      <trkpt lat="43.84301" lon="3.86618">
        <ele>348.13</ele>
        <time>2014-03-03T11:00:17Z</time>
      </trkpt>
      <trkpt lat="43.84304" lon="3.86619">
        <ele>350.06</ele>
        <time>2014-03-03T11:00:26Z</time>
      </trkpt>
      <trkpt lat="43.84306" lon="3.86618">
        <ele>351.02</ele>
        <time>2014-03-03T11:00:38Z</time>
      </trkpt>
      <trkpt lat="43.84304" lon="3.86619">
        <ele>350.54</ele>
        <time>2014-03-03T11:00:54Z</time>
      </trkpt>
      <trkpt lat="43.84304" lon="3.86619">
        <ele>350.54</ele>
        <time>2014-03-03T11:01:06Z</time>
      </trkpt>
      <trkpt lat="43.84304" lon="3.86619">
        <ele>350.54</ele>
        <time>2014-03-03T11:01:20Z</time>
      </trkpt>
      <trkpt lat="43.84305" lon="3.86622">
        <ele>350.54</ele>
        <time>2014-03-03T11:01:37Z</time>
      </trkpt>
      <trkpt lat="43.84307" lon="3.86624">
        <ele>350.54</ele>
        <time>2014-03-03T11:01:40Z</time>
      </trkpt>
      <trkpt lat="43.84309" lon="3.86625">
        <ele>351.02</ele>
        <time>2014-03-03T11:01:41Z</time>
      </trkpt>
      <trkpt lat="43.8431" lon="3.86625">
        <ele>351.02</ele>
        <time>2014-03-03T11:01:42Z</time>
      </trkpt>
      <trkpt lat="43.8432" lon="3.86625">
        <ele>351.5</ele>
        <time>2014-03-03T11:01:50Z</time>
      </trkpt>
      <trkpt lat="43.84325" lon="3.86623">
        <ele>351.5</ele>
        <time>2014-03-03T11:01:54Z</time>
      </trkpt>
      <trkpt lat="43.84328" lon="3.86621">
        <ele>351.5</ele>
        <time>2014-03-03T11:01:56Z</time>
      </trkpt>
      <trkpt lat="43.84337" lon="3.86616">
        <ele>351.98</ele>
        <time>2014-03-03T11:02:04Z</time>
      </trkpt>
      <trkpt lat="43.84338" lon="3.86615">
        <ele>352.46</ele>
        <time>2014-03-03T11:02:05Z</time>
      </trkpt>
      <trkpt lat="43.84339" lon="3.86614">
        <ele>351.98</ele>
        <time>2014-03-03T11:02:06Z</time>
      </trkpt>
      <trkpt lat="43.84341" lon="3.86613">
        <ele>351.98</ele>
        <time>2014-03-03T11:02:07Z</time>
      </trkpt>
      <trkpt lat="43.84344" lon="3.86611">
        <ele>351.98</ele>
        <time>2014-03-03T11:02:11Z</time>
      </trkpt>
      <trkpt lat="43.84346" lon="3.8661">
        <ele>352.46</ele>
        <time>2014-03-03T11:02:12Z</time>
      </trkpt>
      <trkpt lat="43.8435" lon="3.8661">
        <ele>352.46</ele>
        <time>2014-03-03T11:02:16Z</time>
      </trkpt>
      <trkpt lat="43.84351" lon="3.86609">
        <ele>352.46</ele>
        <time>2014-03-03T11:02:17Z</time>
      </trkpt>
      <trkpt lat="43.84353" lon="3.86609">
        <ele>352.46</ele>
        <time>2014-03-03T11:02:18Z</time>
      </trkpt>
      <trkpt lat="43.84357" lon="3.86606">
        <ele>352.46</ele>
        <time>2014-03-03T11:02:22Z</time>
      </trkpt>
      <trkpt lat="43.84359" lon="3.86605">
        <ele>352.46</ele>
        <time>2014-03-03T11:02:23Z</time>
      </trkpt>
      <trkpt lat="43.84362" lon="3.86603">
        <ele>352.46</ele>
        <time>2014-03-03T11:02:27Z</time>
      </trkpt>
      <trkpt lat="43.84364" lon="3.86603">
        <ele>352.46</ele>
        <time>2014-03-03T11:02:28Z</time>
      </trkpt>
      <trkpt lat="43.84375" lon="3.86602">
        <ele>352.94</ele>
        <time>2014-03-03T11:02:39Z</time>
      </trkpt>
      <trkpt lat="43.84376" lon="3.86602">
        <ele>352.94</ele>
        <time>2014-03-03T11:02:40Z</time>
      </trkpt>
      <trkpt lat="43.84377" lon="3.86602">
        <ele>352.94</ele>
        <time>2014-03-03T11:02:41Z</time>
      </trkpt>
      <trkpt lat="43.84379" lon="3.86603">
        <ele>352.94</ele>
        <time>2014-03-03T11:02:42Z</time>
      </trkpt>
      <trkpt lat="43.84384" lon="3.8661">
        <ele>353.42</ele>
        <time>2014-03-03T11:02:55Z</time>
      </trkpt>
      <trkpt lat="43.84384" lon="3.86601">
        <ele>352.46</ele>
        <time>2014-03-03T11:03:13Z</time>
      </trkpt>
      <trkpt lat="43.84382" lon="3.86595">
        <ele>352.46</ele>
        <time>2014-03-03T11:03:28Z</time>
      </trkpt>
      <trkpt lat="43.84384" lon="3.86601">
        <ele>352.46</ele>
        <time>2014-03-03T11:03:51Z</time>
      </trkpt>
      <trkpt lat="43.84384" lon="3.86606">
        <ele>351.98</ele>
        <time>2014-03-03T11:04:13Z</time>
      </trkpt>
      <trkpt lat="43.84383" lon="3.86593">
        <ele>351.98</ele>
        <time>2014-03-03T11:04:34Z</time>
      </trkpt>
      <trkpt lat="43.84383" lon="3.86589">
        <ele>351.5</ele>
        <time>2014-03-03T11:04:53Z</time>
      </trkpt>
      <trkpt lat="43.84384" lon="3.86589">
        <ele>350.54</ele>
        <time>2014-03-03T11:05:16Z</time>
      </trkpt>
      <trkpt lat="43.84382" lon="3.86591">
        <ele>351.98</ele>
        <time>2014-03-03T11:05:39Z</time>
      </trkpt>
      <trkpt lat="43.84384" lon="3.86591">
        <ele>351.5</ele>
        <time>2014-03-03T11:05:52Z</time>
      </trkpt>
      <trkpt lat="43.84384" lon="3.86596">
        <ele>352.46</ele>
        <time>2014-03-03T11:06:01Z</time>
      </trkpt>
      <trkpt lat="43.84387" lon="3.86597">
        <ele>352.46</ele>
        <time>2014-03-03T11:06:12Z</time>
      </trkpt>
      <trkpt lat="43.84388" lon="3.86597">
        <ele>351.98</ele>
        <time>2014-03-03T11:06:13Z</time>
      </trkpt>
      <trkpt lat="43.84399" lon="3.86595">
        <ele>351.98</ele>
        <time>2014-03-03T11:06:23Z</time>
      </trkpt>
      <trkpt lat="43.84404" lon="3.86594">
        <ele>351.98</ele>
        <time>2014-03-03T11:06:28Z</time>
      </trkpt>
      <trkpt lat="43.84405" lon="3.86593">
        <ele>351.98</ele>
        <time>2014-03-03T11:06:29Z</time>
      </trkpt>
      <trkpt lat="43.84408" lon="3.86595">
        <ele>352.46</ele>
        <time>2014-03-03T11:06:36Z</time>
      </trkpt>
      <trkpt lat="43.84402" lon="3.86599">
        <ele>354.38</ele>
        <time>2014-03-03T11:06:44Z</time>
      </trkpt>
      <trkpt lat="43.84401" lon="3.86605">
        <ele>355.83</ele>
        <time>2014-03-03T11:06:48Z</time>
      </trkpt>
      <trkpt lat="43.84402" lon="3.86609">
        <ele>357.27</ele>
        <time>2014-03-03T11:06:51Z</time>
      </trkpt>
      <trkpt lat="43.84407" lon="3.86612">
        <ele>356.31</ele>
        <time>2014-03-03T11:07:02Z</time>
      </trkpt>
      <trkpt lat="43.84407" lon="3.86617">
        <ele>356.79</ele>
        <time>2014-03-03T11:07:06Z</time>
      </trkpt>
      <trkpt lat="43.84401" lon="3.86622">
        <ele>357.27</ele>
        <time>2014-03-03T11:07:14Z</time>
      </trkpt>
      <trkpt lat="43.84395" lon="3.86624">
        <ele>358.23</ele>
        <time>2014-03-03T11:07:19Z</time>
      </trkpt>
      <trkpt lat="43.84384" lon="3.86629">
        <ele>359.67</ele>
        <time>2014-03-03T11:07:31Z</time>
      </trkpt>
      <trkpt lat="43.8438" lon="3.86631">
        <ele>360.63</ele>
        <time>2014-03-03T11:07:38Z</time>
      </trkpt>
      <trkpt lat="43.84376" lon="3.86634">
        <ele>360.63</ele>
        <time>2014-03-03T11:07:42Z</time>
      </trkpt>
      <trkpt lat="43.84362" lon="3.86645">
        <ele>362.07</ele>
        <time>2014-03-03T11:07:55Z</time>
      </trkpt>
      <trkpt lat="43.84349" lon="3.86652">
        <ele>363.52</ele>
        <time>2014-03-03T11:08:09Z</time>
      </trkpt>
      <trkpt lat="43.84338" lon="3.86663">
        <ele>364.96</ele>
        <time>2014-03-03T11:08:21Z</time>
      </trkpt>
      <trkpt lat="43.84336" lon="3.86665">
        <ele>365.44</ele>
        <time>2014-03-03T11:08:23Z</time>
      </trkpt>
      <trkpt lat="43.84329" lon="3.8668">
        <ele>367.36</ele>
        <time>2014-03-03T11:08:36Z</time>
      </trkpt>
      <trkpt lat="43.84321" lon="3.86691">
        <ele>368.8</ele>
        <time>2014-03-03T11:08:48Z</time>
      </trkpt>
      <trkpt lat="43.84309" lon="3.86706">
        <ele>371.21</ele>
        <time>2014-03-03T11:09:04Z</time>
      </trkpt>
      <trkpt lat="43.843" lon="3.86718">
        <ele>372.17</ele>
        <time>2014-03-03T11:09:16Z</time>
      </trkpt>
      <trkpt lat="43.84297" lon="3.86725">
        <ele>373.13</ele>
        <time>2014-03-03T11:09:22Z</time>
      </trkpt>
      <trkpt lat="43.84296" lon="3.86728">
        <ele>373.61</ele>
        <time>2014-03-03T11:09:25Z</time>
      </trkpt>
      <trkpt lat="43.84291" lon="3.86746">
        <ele>375.53</ele>
        <time>2014-03-03T11:09:38Z</time>
      </trkpt>
      <trkpt lat="43.84288" lon="3.86761">
        <ele>376.49</ele>
        <time>2014-03-03T11:09:49Z</time>
      </trkpt>
      <trkpt lat="43.84281" lon="3.86778">
        <ele>376.97</ele>
        <time>2014-03-03T11:10:01Z</time>
      </trkpt>
      <trkpt lat="43.84271" lon="3.8679">
        <ele>377.94</ele>
        <time>2014-03-03T11:10:12Z</time>
      </trkpt>
      <trkpt lat="43.84265" lon="3.86804">
        <ele>378.9</ele>
        <time>2014-03-03T11:10:22Z</time>
      </trkpt>
      <trkpt lat="43.84259" lon="3.8682">
        <ele>379.86</ele>
        <time>2014-03-03T11:10:34Z</time>
      </trkpt>
      <trkpt lat="43.84249" lon="3.86832">
        <ele>381.3</ele>
        <time>2014-03-03T11:10:46Z</time>
      </trkpt>
      <trkpt lat="43.84245" lon="3.86835">
        <ele>380.82</ele>
        <time>2014-03-03T11:10:50Z</time>
      </trkpt>
      <trkpt lat="43.84238" lon="3.86849">
        <ele>381.3</ele>
        <time>2014-03-03T11:11:02Z</time>
      </trkpt>
      <trkpt lat="43.84228" lon="3.86857">
        <ele>382.26</ele>
        <time>2014-03-03T11:11:13Z</time>
      </trkpt>
      <trkpt lat="43.84223" lon="3.86859">
        <ele>382.74</ele>
        <time>2014-03-03T11:11:18Z</time>
      </trkpt>
      <trkpt lat="43.8421" lon="3.8687">
        <ele>384.18</ele>
        <time>2014-03-03T11:11:30Z</time>
      </trkpt>
      <trkpt lat="43.84201" lon="3.86881">
        <ele>384.18</ele>
        <time>2014-03-03T11:11:41Z</time>
      </trkpt>
      <trkpt lat="43.8419" lon="3.86892">
        <ele>385.63</ele>
        <time>2014-03-03T11:11:54Z</time>
      </trkpt>
      <trkpt lat="43.8418" lon="3.86901">
        <ele>386.59</ele>
        <time>2014-03-03T11:12:04Z</time>
      </trkpt>
      <trkpt lat="43.84172" lon="3.8691">
        <ele>387.55</ele>
        <time>2014-03-03T11:12:15Z</time>
      </trkpt>
      <trkpt lat="43.84164" lon="3.8692">
        <ele>388.51</ele>
        <time>2014-03-03T11:12:26Z</time>
      </trkpt>
      <trkpt lat="43.84159" lon="3.86925">
        <ele>388.99</ele>
        <time>2014-03-03T11:12:32Z</time>
      </trkpt>
      <trkpt lat="43.84156" lon="3.86927">
        <ele>389.47</ele>
        <time>2014-03-03T11:12:35Z</time>
      </trkpt>
      <trkpt lat="43.84148" lon="3.86934">
        <ele>390.91</ele>
        <time>2014-03-03T11:12:44Z</time>
      </trkpt>
      <trkpt lat="43.84137" lon="3.86938">
        <ele>392.36</ele>
        <time>2014-03-03T11:12:57Z</time>
      </trkpt>
      <trkpt lat="43.84138" lon="3.86938">
        <ele>391.87</ele>
        <time>2014-03-03T11:13:12Z</time>
      </trkpt>
      <trkpt lat="43.8414" lon="3.86939">
        <ele>391.87</ele>
        <time>2014-03-03T11:13:29Z</time>
      </trkpt>
      <trkpt lat="43.8414" lon="3.86942">
        <ele>391.87</ele>
        <time>2014-03-03T11:13:49Z</time>
      </trkpt>
      <trkpt lat="43.84139" lon="3.86941">
        <ele>391.87</ele>
        <time>2014-03-03T11:14:11Z</time>
      </trkpt>
      <trkpt lat="43.84137" lon="3.86939">
        <ele>393.32</ele>
        <time>2014-03-03T11:14:28Z</time>
      </trkpt>
      <trkpt lat="43.8414" lon="3.86939">
        <ele>393.32</ele>
        <time>2014-03-03T11:14:42Z</time>
      </trkpt>
      <trkpt lat="43.84139" lon="3.86939">
        <ele>393.8</ele>
        <time>2014-03-03T11:14:50Z</time>
      </trkpt>
      <trkpt lat="43.84139" lon="3.86939">
        <ele>392.36</ele>
        <time>2014-03-03T11:14:54Z</time>
      </trkpt>
      <trkpt lat="43.84138" lon="3.8694">
        <ele>391.39</ele>
        <time>2014-03-03T11:15:12Z</time>
      </trkpt>
      <trkpt lat="43.84132" lon="3.86948">
        <ele>392.36</ele>
        <time>2014-03-03T11:15:22Z</time>
      </trkpt>
      <trkpt lat="43.84127" lon="3.86961">
        <ele>393.8</ele>
        <time>2014-03-03T11:15:31Z</time>
      </trkpt>
      <trkpt lat="43.84122" lon="3.86971">
        <ele>393.8</ele>
        <time>2014-03-03T11:15:39Z</time>
      </trkpt>
      <trkpt lat="43.84118" lon="3.86976">
        <ele>393.32</ele>
        <time>2014-03-03T11:15:44Z</time>
      </trkpt>
      <trkpt lat="43.84108" lon="3.86991">
        <ele>394.28</ele>
        <time>2014-03-03T11:15:55Z</time>
      </trkpt>
      <trkpt lat="43.84105" lon="3.86998">
        <ele>395.72</ele>
        <time>2014-03-03T11:16:00Z</time>
      </trkpt>
      <trkpt lat="43.841" lon="3.87007">
        <ele>395.24</ele>
        <time>2014-03-03T11:16:07Z</time>
      </trkpt>
      <trkpt lat="43.841" lon="3.87011">
        <ele>395.24</ele>
        <time>2014-03-03T11:16:09Z</time>
      </trkpt>
      <trkpt lat="43.84096" lon="3.87014">
        <ele>395.72</ele>
        <time>2014-03-03T11:16:13Z</time>
      </trkpt>
      <trkpt lat="43.84086" lon="3.87033">
        <ele>395.24</ele>
        <time>2014-03-03T11:16:27Z</time>
      </trkpt>
      <trkpt lat="43.84085" lon="3.87034">
        <ele>395.24</ele>
        <time>2014-03-03T11:16:28Z</time>
      </trkpt>
      <trkpt lat="43.84083" lon="3.87041">
        <ele>395.24</ele>
        <time>2014-03-03T11:16:33Z</time>
      </trkpt>
      <trkpt lat="43.8408" lon="3.87056">
        <ele>395.72</ele>
        <time>2014-03-03T11:16:42Z</time>
      </trkpt>
      <trkpt lat="43.84078" lon="3.87067">
        <ele>396.2</ele>
        <time>2014-03-03T11:16:49Z</time>
      </trkpt>
      <trkpt lat="43.84078" lon="3.8709">
        <ele>397.64</ele>
        <time>2014-03-03T11:17:02Z</time>
      </trkpt>
      <trkpt lat="43.84075" lon="3.87102">
        <ele>397.64</ele>
        <time>2014-03-03T11:17:10Z</time>
      </trkpt>
      <trkpt lat="43.84076" lon="3.87105">
        <ele>397.64</ele>
        <time>2014-03-03T11:17:11Z</time>
      </trkpt>
      <trkpt lat="43.84075" lon="3.87109">
        <ele>397.64</ele>
        <time>2014-03-03T11:17:12Z</time>
      </trkpt>
      <trkpt lat="43.84075" lon="3.87111">
        <ele>397.64</ele>
        <time>2014-03-03T11:17:13Z</time>
      </trkpt>
      <trkpt lat="43.84075" lon="3.87113">
        <ele>398.6</ele>
        <time>2014-03-03T11:17:16Z</time>
      </trkpt>
      <trkpt lat="43.84076" lon="3.87115">
        <ele>398.6</ele>
        <time>2014-03-03T11:17:17Z</time>
      </trkpt>
      <trkpt lat="43.84076" lon="3.87119">
        <ele>399.08</ele>
        <time>2014-03-03T11:17:22Z</time>
      </trkpt>
      <trkpt lat="43.84076" lon="3.87122">
        <ele>399.57</ele>
        <time>2014-03-03T11:17:23Z</time>
      </trkpt>
      <trkpt lat="43.84076" lon="3.87125">
        <ele>399.57</ele>
        <time>2014-03-03T11:17:24Z</time>
      </trkpt>
      <trkpt lat="43.84075" lon="3.87128">
        <ele>400.05</ele>
        <time>2014-03-03T11:17:27Z</time>
      </trkpt>
      <trkpt lat="43.84075" lon="3.87131">
        <ele>399.57</ele>
        <time>2014-03-03T11:17:28Z</time>
      </trkpt>
      <trkpt lat="43.84075" lon="3.87134">
        <ele>400.05</ele>
        <time>2014-03-03T11:17:31Z</time>
      </trkpt>
      <trkpt lat="43.84075" lon="3.87136">
        <ele>400.53</ele>
        <time>2014-03-03T11:17:32Z</time>
      </trkpt>
      <trkpt lat="43.84075" lon="3.87138">
        <ele>400.53</ele>
        <time>2014-03-03T11:17:33Z</time>
      </trkpt>
      <trkpt lat="43.84075" lon="3.87141">
        <ele>401.01</ele>
        <time>2014-03-03T11:17:36Z</time>
      </trkpt>
      <trkpt lat="43.84075" lon="3.87143">
        <ele>401.01</ele>
        <time>2014-03-03T11:17:37Z</time>
      </trkpt>
      <trkpt lat="43.84073" lon="3.87148">
        <ele>401.49</ele>
        <time>2014-03-03T11:17:41Z</time>
      </trkpt>
      <trkpt lat="43.84071" lon="3.8715">
        <ele>401.97</ele>
        <time>2014-03-03T11:17:44Z</time>
      </trkpt>
      <trkpt lat="43.84066" lon="3.87152">
        <ele>401.97</ele>
        <time>2014-03-03T11:17:48Z</time>
      </trkpt>
      <trkpt lat="43.84064" lon="3.87159">
        <ele>402.93</ele>
        <time>2014-03-03T11:17:53Z</time>
      </trkpt>
      <trkpt lat="43.84063" lon="3.87162">
        <ele>403.41</ele>
        <time>2014-03-03T11:17:55Z</time>
      </trkpt>
      <trkpt lat="43.84063" lon="3.87165">
        <ele>402.93</ele>
        <time>2014-03-03T11:17:56Z</time>
      </trkpt>
      <trkpt lat="43.84065" lon="3.87174">
        <ele>403.41</ele>
        <time>2014-03-03T11:18:03Z</time>
      </trkpt>
      <trkpt lat="43.84065" lon="3.87176">
        <ele>403.41</ele>
        <time>2014-03-03T11:18:04Z</time>
      </trkpt>
      <trkpt lat="43.84065" lon="3.87178">
        <ele>403.89</ele>
        <time>2014-03-03T11:18:05Z</time>
      </trkpt>
      <trkpt lat="43.8407" lon="3.87186">
        <ele>404.37</ele>
        <time>2014-03-03T11:18:12Z</time>
      </trkpt>
      <trkpt lat="43.84071" lon="3.87188">
        <ele>404.85</ele>
        <time>2014-03-03T11:18:13Z</time>
      </trkpt>
      <trkpt lat="43.84073" lon="3.8719">
        <ele>404.85</ele>
        <time>2014-03-03T11:18:16Z</time>
      </trkpt>
      <trkpt lat="43.84074" lon="3.87192">
        <ele>404.85</ele>
        <time>2014-03-03T11:18:17Z</time>
      </trkpt>
      <trkpt lat="43.84074" lon="3.87193">
        <ele>405.33</ele>
        <time>2014-03-03T11:18:18Z</time>
      </trkpt>
      <trkpt lat="43.84075" lon="3.87194">
        <ele>405.33</ele>
        <time>2014-03-03T11:18:19Z</time>
      </trkpt>
      <trkpt lat="43.84076" lon="3.87196">
        <ele>405.33</ele>
        <time>2014-03-03T11:18:20Z</time>
      </trkpt>
      <trkpt lat="43.84077" lon="3.87204">
        <ele>406.77</ele>
        <time>2014-03-03T11:18:28Z</time>
      </trkpt>
      <trkpt lat="43.8408" lon="3.87205">
        <ele>406.77</ele>
        <time>2014-03-03T11:18:40Z</time>
      </trkpt>
      <trkpt lat="43.84081" lon="3.87206">
        <ele>407.74</ele>
        <time>2014-03-03T11:18:52Z</time>
      </trkpt>
      <trkpt lat="43.84081" lon="3.87206">
        <ele>407.26</ele>
        <time>2014-03-03T11:19:04Z</time>
      </trkpt>
      <trkpt lat="43.84081" lon="3.87207">
        <ele>406.77</ele>
        <time>2014-03-03T11:19:16Z</time>
      </trkpt>
      <trkpt lat="43.84081" lon="3.87206">
        <ele>407.26</ele>
        <time>2014-03-03T11:19:34Z</time>
      </trkpt>
      <trkpt lat="43.8408" lon="3.87207">
        <ele>407.26</ele>
        <time>2014-03-03T11:19:52Z</time>
      </trkpt>
      <trkpt lat="43.8408" lon="3.87208">
        <ele>407.26</ele>
        <time>2014-03-03T11:20:05Z</time>
      </trkpt>
      <trkpt lat="43.84081" lon="3.87208">
        <ele>407.26</ele>
        <time>2014-03-03T11:20:16Z</time>
      </trkpt>
      <trkpt lat="43.84081" lon="3.87208">
        <ele>407.74</ele>
        <time>2014-03-03T11:20:30Z</time>
      </trkpt>
      <trkpt lat="43.84079" lon="3.87208">
        <ele>407.74</ele>
        <time>2014-03-03T11:20:43Z</time>
      </trkpt>
      <trkpt lat="43.84079" lon="3.87208">
        <ele>406.77</ele>
        <time>2014-03-03T11:20:54Z</time>
      </trkpt>
      <trkpt lat="43.84081" lon="3.87207">
        <ele>407.74</ele>
        <time>2014-03-03T11:21:11Z</time>
      </trkpt>
      <trkpt lat="43.84081" lon="3.87207">
        <ele>407.74</ele>
        <time>2014-03-03T11:21:16Z</time>
      </trkpt>
      <trkpt lat="43.84082" lon="3.87208">
        <ele>407.26</ele>
        <time>2014-03-03T11:21:25Z</time>
      </trkpt>
      <trkpt lat="43.84083" lon="3.87208">
        <ele>407.74</ele>
        <time>2014-03-03T11:21:40Z</time>
      </trkpt>
      <trkpt lat="43.84082" lon="3.87206">
        <ele>408.22</ele>
        <time>2014-03-03T11:21:54Z</time>
      </trkpt>
      <trkpt lat="43.84082" lon="3.87206">
        <ele>407.26</ele>
        <time>2014-03-03T11:22:17Z</time>
      </trkpt>
      <trkpt lat="43.8408" lon="3.87206">
        <ele>407.26</ele>
        <time>2014-03-03T11:22:34Z</time>
      </trkpt>
      <trkpt lat="43.8408" lon="3.87207">
        <ele>408.22</ele>
        <time>2014-03-03T11:22:47Z</time>
      </trkpt>
      <trkpt lat="43.84079" lon="3.87206">
        <ele>407.26</ele>
        <time>2014-03-03T11:23:00Z</time>
      </trkpt>
      <trkpt lat="43.84079" lon="3.87207">
        <ele>407.74</ele>
        <time>2014-03-03T11:23:12Z</time>
      </trkpt>
      <trkpt lat="43.84079" lon="3.87208">
        <ele>407.74</ele>
        <time>2014-03-03T11:23:27Z</time>
      </trkpt>
      <trkpt lat="43.84081" lon="3.87207">
        <ele>408.22</ele>
        <time>2014-03-03T11:23:38Z</time>
      </trkpt>
      <trkpt lat="43.84081" lon="3.87206">
        <ele>408.7</ele>
        <time>2014-03-03T11:23:49Z</time>
      </trkpt>
      <trkpt lat="43.8408" lon="3.87206">
        <ele>408.7</ele>
        <time>2014-03-03T11:23:59Z</time>
      </trkpt>
      <trkpt lat="43.84081" lon="3.87206">
        <ele>407.26</ele>
        <time>2014-03-03T11:24:12Z</time>
      </trkpt>
      <trkpt lat="43.84081" lon="3.87207">
        <ele>408.22</ele>
        <time>2014-03-03T11:24:27Z</time>
      </trkpt>
      <trkpt lat="43.8408" lon="3.87206">
        <ele>408.22</ele>
        <time>2014-03-03T11:24:42Z</time>
      </trkpt>
      <trkpt lat="43.8408" lon="3.87207">
        <ele>407.74</ele>
        <time>2014-03-03T11:24:57Z</time>
      </trkpt>
      <trkpt lat="43.84081" lon="3.87205">
        <ele>407.26</ele>
        <time>2014-03-03T11:25:16Z</time>
      </trkpt>
      <trkpt lat="43.8408" lon="3.87205">
        <ele>407.26</ele>
        <time>2014-03-03T11:25:31Z</time>
      </trkpt>
      <trkpt lat="43.8408" lon="3.87206">
        <ele>407.26</ele>
        <time>2014-03-03T11:25:44Z</time>
      </trkpt>
      <trkpt lat="43.8408" lon="3.87205">
        <ele>406.77</ele>
        <time>2014-03-03T11:25:58Z</time>
      </trkpt>
      <trkpt lat="43.84078" lon="3.87205">
        <ele>407.74</ele>
        <time>2014-03-03T11:26:21Z</time>
      </trkpt>
      <trkpt lat="43.8408" lon="3.87202">
        <ele>405.81</ele>
        <time>2014-03-03T11:26:33Z</time>
      </trkpt>
      <trkpt lat="43.84084" lon="3.87203">
        <ele>405.81</ele>
        <time>2014-03-03T11:26:43Z</time>
      </trkpt>
      <trkpt lat="43.84087" lon="3.87204">
        <ele>405.81</ele>
        <time>2014-03-03T11:26:48Z</time>
      </trkpt>
      <trkpt lat="43.84092" lon="3.87201">
        <ele>405.33</ele>
        <time>2014-03-03T11:26:57Z</time>
      </trkpt>
      <trkpt lat="43.84091" lon="3.87201">
        <ele>404.85</ele>
        <time>2014-03-03T11:27:06Z</time>
      </trkpt>
      <trkpt lat="43.84093" lon="3.87204">
        <ele>404.37</ele>
        <time>2014-03-03T11:27:12Z</time>
      </trkpt>
      <trkpt lat="43.841" lon="3.87203">
        <ele>404.37</ele>
        <time>2014-03-03T11:27:18Z</time>
      </trkpt>
      <trkpt lat="43.84105" lon="3.87201">
        <ele>404.85</ele>
        <time>2014-03-03T11:27:24Z</time>
      </trkpt>
      <trkpt lat="43.84108" lon="3.87197">
        <ele>404.37</ele>
        <time>2014-03-03T11:27:28Z</time>
      </trkpt>
      <trkpt lat="43.8411" lon="3.87192">
        <ele>403.89</ele>
        <time>2014-03-03T11:27:32Z</time>
      </trkpt>
      <trkpt lat="43.84114" lon="3.87186">
        <ele>402.45</ele>
        <time>2014-03-03T11:27:44Z</time>
      </trkpt>
      <trkpt lat="43.84118" lon="3.87181">
        <ele>402.45</ele>
        <time>2014-03-03T11:27:51Z</time>
      </trkpt>
      <trkpt lat="43.8412" lon="3.87179">
        <ele>401.49</ele>
        <time>2014-03-03T11:27:53Z</time>
      </trkpt>
      <trkpt lat="43.84124" lon="3.87177">
        <ele>401.01</ele>
        <time>2014-03-03T11:27:57Z</time>
      </trkpt>
      <trkpt lat="43.84128" lon="3.87173">
        <ele>401.01</ele>
        <time>2014-03-03T11:28:06Z</time>
      </trkpt>
      <trkpt lat="43.8413" lon="3.87169">
        <ele>399.57</ele>
        <time>2014-03-03T11:28:12Z</time>
      </trkpt>
      <trkpt lat="43.84135" lon="3.87167">
        <ele>399.57</ele>
        <time>2014-03-03T11:28:17Z</time>
      </trkpt>
      <trkpt lat="43.84138" lon="3.87165">
        <ele>398.6</ele>
        <time>2014-03-03T11:28:20Z</time>
      </trkpt>
      <trkpt lat="43.84141" lon="3.8716">
        <ele>397.64</ele>
        <time>2014-03-03T11:28:24Z</time>
      </trkpt>
      <trkpt lat="43.84152" lon="3.87154">
        <ele>396.68</ele>
        <time>2014-03-03T11:28:37Z</time>
      </trkpt>
      <trkpt lat="43.84162" lon="3.87151">
        <ele>394.76</ele>
        <time>2014-03-03T11:28:50Z</time>
      </trkpt>
      <trkpt lat="43.84166" lon="3.87151">
        <ele>394.28</ele>
        <time>2014-03-03T11:28:56Z</time>
      </trkpt>
      <trkpt lat="43.84175" lon="3.8715">
        <ele>393.32</ele>
        <time>2014-03-03T11:29:05Z</time>
      </trkpt>
      <trkpt lat="43.84178" lon="3.87143">
        <ele>392.36</ele>
        <time>2014-03-03T11:29:12Z</time>
      </trkpt>
      <trkpt lat="43.84181" lon="3.87135">
        <ele>390.43</ele>
        <time>2014-03-03T11:29:22Z</time>
      </trkpt>
      <trkpt lat="43.84184" lon="3.87133">
        <ele>390.43</ele>
        <time>2014-03-03T11:29:25Z</time>
      </trkpt>
      <trkpt lat="43.84191" lon="3.87136">
        <ele>389.95</ele>
        <time>2014-03-03T11:29:37Z</time>
      </trkpt>
      <trkpt lat="43.84199" lon="3.8713">
        <ele>388.51</ele>
        <time>2014-03-03T11:29:51Z</time>
      </trkpt>
      <trkpt lat="43.84207" lon="3.87128">
        <ele>387.55</ele>
        <time>2014-03-03T11:30:01Z</time>
      </trkpt>
      <trkpt lat="43.84212" lon="3.87123">
        <ele>386.59</ele>
        <time>2014-03-03T11:30:12Z</time>
      </trkpt>
      <trkpt lat="43.84219" lon="3.87117">
        <ele>385.63</ele>
        <time>2014-03-03T11:30:25Z</time>
      </trkpt>
      <trkpt lat="43.84224" lon="3.87117">
        <ele>385.15</ele>
        <time>2014-03-03T11:30:37Z</time>
      </trkpt>
      <trkpt lat="43.84224" lon="3.87114">
        <ele>385.15</ele>
        <time>2014-03-03T11:30:51Z</time>
      </trkpt>
      <trkpt lat="43.84227" lon="3.87109">
        <ele>383.7</ele>
        <time>2014-03-03T11:31:05Z</time>
      </trkpt>
      <trkpt lat="43.84227" lon="3.87109">
        <ele>383.7</ele>
        <time>2014-03-03T11:31:06Z</time>
      </trkpt>
      <trkpt lat="43.84238" lon="3.87107">
        <ele>382.74</ele>
        <time>2014-03-03T11:31:20Z</time>
      </trkpt>
      <trkpt lat="43.84244" lon="3.87101">
        <ele>381.78</ele>
        <time>2014-03-03T11:31:34Z</time>
      </trkpt>
      <trkpt lat="43.84249" lon="3.87095">
        <ele>380.34</ele>
        <time>2014-03-03T11:31:45Z</time>
      </trkpt>
      <trkpt lat="43.84253" lon="3.87089">
        <ele>379.86</ele>
        <time>2014-03-03T11:32:00Z</time>
      </trkpt>
      <trkpt lat="43.84258" lon="3.87087">
        <ele>379.38</ele>
        <time>2014-03-03T11:32:13Z</time>
      </trkpt>
      <trkpt lat="43.84261" lon="3.87085">
        <ele>378.9</ele>
        <time>2014-03-03T11:32:29Z</time>
      </trkpt>
      <trkpt lat="43.84269" lon="3.87085">
        <ele>378.42</ele>
        <time>2014-03-03T11:32:44Z</time>
      </trkpt>
      <trkpt lat="43.84274" lon="3.87085">
        <ele>378.9</ele>
        <time>2014-03-03T11:32:57Z</time>
      </trkpt>
      <trkpt lat="43.84274" lon="3.87085">
        <ele>378.42</ele>
        <time>2014-03-03T11:33:07Z</time>
      </trkpt>
      <trkpt lat="43.84275" lon="3.87083">
        <ele>377.45</ele>
        <time>2014-03-03T11:33:19Z</time>
      </trkpt>
      <trkpt lat="43.84276" lon="3.87082">
        <ele>376.49</ele>
        <time>2014-03-03T11:33:25Z</time>
      </trkpt>
      <trkpt lat="43.84283" lon="3.87074">
        <ele>375.05</ele>
        <time>2014-03-03T11:33:39Z</time>
      </trkpt>
      <trkpt lat="43.84284" lon="3.87074">
        <ele>374.57</ele>
        <time>2014-03-03T11:33:40Z</time>
      </trkpt>
      <trkpt lat="43.84293" lon="3.87067">
        <ele>374.09</ele>
        <time>2014-03-03T11:33:53Z</time>
      </trkpt>
      <trkpt lat="43.84303" lon="3.87063">
        <ele>372.65</ele>
        <time>2014-03-03T11:34:06Z</time>
      </trkpt>
      <trkpt lat="43.84311" lon="3.87052">
        <ele>371.69</ele>
        <time>2014-03-03T11:34:20Z</time>
      </trkpt>
      <trkpt lat="43.84319" lon="3.87042">
        <ele>369.76</ele>
        <time>2014-03-03T11:34:34Z</time>
      </trkpt>
      <trkpt lat="43.84328" lon="3.87034">
        <ele>368.32</ele>
        <time>2014-03-03T11:34:47Z</time>
      </trkpt>
      <trkpt lat="43.84335" lon="3.87031">
        <ele>367.84</ele>
        <time>2014-03-03T11:34:59Z</time>
      </trkpt>
      <trkpt lat="43.84337" lon="3.8703">
        <ele>367.84</ele>
        <time>2014-03-03T11:35:01Z</time>
      </trkpt>
      <trkpt lat="43.8435" lon="3.87025">
        <ele>366.88</ele>
        <time>2014-03-03T11:35:15Z</time>
      </trkpt>
      <trkpt lat="43.84358" lon="3.87022">
        <ele>366.4</ele>
        <time>2014-03-03T11:35:28Z</time>
      </trkpt>
      <trkpt lat="43.8436" lon="3.87022">
        <ele>365.92</ele>
        <time>2014-03-03T11:35:30Z</time>
      </trkpt>
      <trkpt lat="43.84369" lon="3.8702">
        <ele>365.92</ele>
        <time>2014-03-03T11:35:41Z</time>
      </trkpt>
      <trkpt lat="43.84373" lon="3.87019">
        <ele>365.92</ele>
        <time>2014-03-03T11:35:45Z</time>
      </trkpt>
      <trkpt lat="43.84377" lon="3.8701">
        <ele>364</ele>
        <time>2014-03-03T11:35:58Z</time>
      </trkpt>
      <trkpt lat="43.84381" lon="3.87008">
        <ele>363.52</ele>
        <time>2014-03-03T11:36:04Z</time>
      </trkpt>
      <trkpt lat="43.8439" lon="3.87007">
        <ele>362.55</ele>
        <time>2014-03-03T11:36:18Z</time>
      </trkpt>
      <trkpt lat="43.84397" lon="3.87005">
        <ele>361.59</ele>
        <time>2014-03-03T11:36:29Z</time>
      </trkpt>
      <trkpt lat="43.84406" lon="3.87001">
        <ele>361.59</ele>
        <time>2014-03-03T11:36:41Z</time>
      </trkpt>
      <trkpt lat="43.84417" lon="3.86998">
        <ele>360.63</ele>
        <time>2014-03-03T11:36:55Z</time>
      </trkpt>
      <trkpt lat="43.84425" lon="3.86997">
        <ele>360.15</ele>
        <time>2014-03-03T11:37:08Z</time>
      </trkpt>
      <trkpt lat="43.8443" lon="3.86986">
        <ele>359.19</ele>
        <time>2014-03-03T11:37:22Z</time>
      </trkpt>
      <trkpt lat="43.84439" lon="3.86979">
        <ele>357.75</ele>
        <time>2014-03-03T11:37:36Z</time>
      </trkpt>
      <trkpt lat="43.8445" lon="3.86973">
        <ele>357.27</ele>
        <time>2014-03-03T11:37:49Z</time>
      </trkpt>
      <trkpt lat="43.84454" lon="3.86968">
        <ele>355.34</ele>
        <time>2014-03-03T11:37:57Z</time>
      </trkpt>
      <trkpt lat="43.84462" lon="3.86961">
        <ele>354.86</ele>
        <time>2014-03-03T11:38:08Z</time>
      </trkpt>
      <trkpt lat="43.8447" lon="3.86954">
        <ele>353.9</ele>
        <time>2014-03-03T11:38:20Z</time>
      </trkpt>
      <trkpt lat="43.84477" lon="3.86948">
        <ele>352.94</ele>
        <time>2014-03-03T11:38:29Z</time>
      </trkpt>
      <trkpt lat="43.84486" lon="3.86941">
        <ele>352.46</ele>
        <time>2014-03-03T11:38:41Z</time>
      </trkpt>
      <trkpt lat="43.84488" lon="3.86941">
        <ele>351.98</ele>
        <time>2014-03-03T11:38:43Z</time>
      </trkpt>
      <trkpt lat="43.84499" lon="3.86939">
        <ele>351.5</ele>
        <time>2014-03-03T11:38:53Z</time>
      </trkpt>
      <trkpt lat="43.84506" lon="3.86934">
        <ele>351.02</ele>
        <time>2014-03-03T11:39:04Z</time>
      </trkpt>
      <trkpt lat="43.84513" lon="3.86934">
        <ele>350.54</ele>
        <time>2014-03-03T11:39:13Z</time>
      </trkpt>
      <trkpt lat="43.84524" lon="3.86932">
        <ele>350.54</ele>
        <time>2014-03-03T11:39:26Z</time>
      </trkpt>
      <trkpt lat="43.84532" lon="3.8693">
        <ele>350.06</ele>
        <time>2014-03-03T11:39:35Z</time>
      </trkpt>
      <trkpt lat="43.84544" lon="3.86922">
        <ele>349.1</ele>
        <time>2014-03-03T11:39:48Z</time>
      </trkpt>
      <trkpt lat="43.84557" lon="3.86919">
        <ele>348.62</ele>
        <time>2014-03-03T11:40:00Z</time>
      </trkpt>
      <trkpt lat="43.8456" lon="3.8692">
        <ele>349.1</ele>
        <time>2014-03-03T11:40:14Z</time>
      </trkpt>
      <trkpt lat="43.84566" lon="3.8692">
        <ele>349.1</ele>
        <time>2014-03-03T11:40:31Z</time>
      </trkpt>
      <trkpt lat="43.84566" lon="3.86922">
        <ele>349.1</ele>
        <time>2014-03-03T11:40:43Z</time>
      </trkpt>
      <trkpt lat="43.84567" lon="3.86924">
        <ele>349.58</ele>
        <time>2014-03-03T11:41:03Z</time>
      </trkpt>
      <trkpt lat="43.84574" lon="3.86923">
        <ele>349.58</ele>
        <time>2014-03-03T11:41:13Z</time>
      </trkpt>
      <trkpt lat="43.84579" lon="3.86924">
        <ele>350.54</ele>
        <time>2014-03-03T11:41:26Z</time>
      </trkpt>
      <trkpt lat="43.84586" lon="3.86923">
        <ele>351.02</ele>
        <time>2014-03-03T11:41:37Z</time>
      </trkpt>
      <trkpt lat="43.84599" lon="3.86924">
        <ele>350.54</ele>
        <time>2014-03-03T11:41:51Z</time>
      </trkpt>
      <trkpt lat="43.84603" lon="3.86924">
        <ele>350.06</ele>
        <time>2014-03-03T11:41:56Z</time>
      </trkpt>
      <trkpt lat="43.8461" lon="3.86923">
        <ele>349.58</ele>
        <time>2014-03-03T11:42:04Z</time>
      </trkpt>
      <trkpt lat="43.84618" lon="3.86918">
        <ele>350.06</ele>
        <time>2014-03-03T11:42:17Z</time>
      </trkpt>
      <trkpt lat="43.84629" lon="3.86921">
        <ele>350.06</ele>
        <time>2014-03-03T11:42:32Z</time>
      </trkpt>
      <trkpt lat="43.84636" lon="3.86927">
        <ele>350.06</ele>
        <time>2014-03-03T11:42:41Z</time>
      </trkpt>
      <trkpt lat="43.84647" lon="3.8693">
        <ele>350.54</ele>
        <time>2014-03-03T11:42:54Z</time>
      </trkpt>
      <trkpt lat="43.84661" lon="3.86935">
        <ele>351.02</ele>
        <time>2014-03-03T11:43:09Z</time>
      </trkpt>
      <trkpt lat="43.84669" lon="3.8694">
        <ele>351.5</ele>
        <time>2014-03-03T11:43:17Z</time>
      </trkpt>
      <trkpt lat="43.84676" lon="3.86948">
        <ele>351.5</ele>
        <time>2014-03-03T11:43:26Z</time>
      </trkpt>
      <trkpt lat="43.84686" lon="3.86963">
        <ele>351.98</ele>
        <time>2014-03-03T11:43:39Z</time>
      </trkpt>
      <trkpt lat="43.84688" lon="3.86965">
        <ele>351.5</ele>
        <time>2014-03-03T11:43:49Z</time>
      </trkpt>
      <trkpt lat="43.84685" lon="3.86964">
        <ele>351.98</ele>
        <time>2014-03-03T11:44:01Z</time>
      </trkpt>
      <trkpt lat="43.84686" lon="3.86965">
        <ele>351.5</ele>
        <time>2014-03-03T11:44:18Z</time>
      </trkpt>
      <trkpt lat="43.84689" lon="3.86964">
        <ele>351.98</ele>
        <time>2014-03-03T11:44:33Z</time>
      </trkpt>
      <trkpt lat="43.84689" lon="3.86963">
        <ele>351.98</ele>
        <time>2014-03-03T11:44:45Z</time>
      </trkpt>
      <trkpt lat="43.8469" lon="3.86962">
        <ele>351.5</ele>
        <time>2014-03-03T11:45:04Z</time>
      </trkpt>
      <trkpt lat="43.84689" lon="3.86963">
        <ele>352.46</ele>
        <time>2014-03-03T11:45:19Z</time>
      </trkpt>
      <trkpt lat="43.84688" lon="3.86963">
        <ele>352.46</ele>
        <time>2014-03-03T11:45:36Z</time>
      </trkpt>
      <trkpt lat="43.84689" lon="3.86964">
        <ele>351.98</ele>
        <time>2014-03-03T11:45:56Z</time>
      </trkpt>
      <trkpt lat="43.8469" lon="3.86964">
        <ele>352.94</ele>
        <time>2014-03-03T11:46:14Z</time>
      </trkpt>
      <trkpt lat="43.84689" lon="3.86963">
        <ele>352.46</ele>
        <time>2014-03-03T11:46:43Z</time>
      </trkpt>
      <trkpt lat="43.84689" lon="3.86963">
        <ele>352.46</ele>
        <time>2014-03-03T11:47:02Z</time>
      </trkpt>
      <trkpt lat="43.84688" lon="3.86963">
        <ele>351.5</ele>
        <time>2014-03-03T11:47:17Z</time>
      </trkpt>
      <trkpt lat="43.84687" lon="3.86961">
        <ele>351.98</ele>
        <time>2014-03-03T11:47:50Z</time>
      </trkpt>
      <trkpt lat="43.84686" lon="3.86962">
        <ele>351.98</ele>
        <time>2014-03-03T11:48:21Z</time>
      </trkpt>
      <trkpt lat="43.84687" lon="3.86963">
        <ele>351.5</ele>
        <time>2014-03-03T11:48:56Z</time>
      </trkpt>
      <trkpt lat="43.84689" lon="3.86964">
        <ele>351.98</ele>
        <time>2014-03-03T11:49:22Z</time>
      </trkpt>
      <trkpt lat="43.8469" lon="3.86964">
        <ele>351.98</ele>
        <time>2014-03-03T11:49:53Z</time>
      </trkpt>
      <trkpt lat="43.8469" lon="3.86965">
        <ele>351.5</ele>
        <time>2014-03-03T11:50:19Z</time>
      </trkpt>
      <trkpt lat="43.84688" lon="3.86965">
        <ele>351.02</ele>
        <time>2014-03-03T11:50:48Z</time>
      </trkpt>
      <trkpt lat="43.84689" lon="3.86965">
        <ele>351.98</ele>
        <time>2014-03-03T11:51:17Z</time>
      </trkpt>
      <trkpt lat="43.84689" lon="3.86964">
        <ele>351.98</ele>
        <time>2014-03-03T11:51:39Z</time>
      </trkpt>
      <trkpt lat="43.84689" lon="3.86964">
        <ele>351.98</ele>
        <time>2014-03-03T11:52:00Z</time>
      </trkpt>
      <trkpt lat="43.84689" lon="3.86964">
        <ele>351.98</ele>
        <time>2014-03-03T11:52:23Z</time>
      </trkpt>
      <trkpt lat="43.84689" lon="3.86964">
        <ele>351.5</ele>
        <time>2014-03-03T11:52:47Z</time>
      </trkpt>
      <trkpt lat="43.84691" lon="3.86964">
        <ele>352.46</ele>
        <time>2014-03-03T11:53:12Z</time>
      </trkpt>
      <trkpt lat="43.84691" lon="3.86964">
        <ele>352.46</ele>
        <time>2014-03-03T11:53:43Z</time>
      </trkpt>
      <trkpt lat="43.8469" lon="3.86965">
        <ele>352.46</ele>
        <time>2014-03-03T11:54:05Z</time>
      </trkpt>
      <trkpt lat="43.8469" lon="3.86964">
        <ele>352.46</ele>
        <time>2014-03-03T11:54:37Z</time>
      </trkpt>
      <trkpt lat="43.8469" lon="3.86964">
        <ele>352.46</ele>
        <time>2014-03-03T11:55:04Z</time>
      </trkpt>
      <trkpt lat="43.84691" lon="3.86964">
        <ele>352.46</ele>
        <time>2014-03-03T11:55:39Z</time>
      </trkpt>
      <trkpt lat="43.84691" lon="3.86964">
        <ele>352.94</ele>
        <time>2014-03-03T11:56:09Z</time>
      </trkpt>
      <trkpt lat="43.8469" lon="3.86964">
        <ele>352.94</ele>
        <time>2014-03-03T11:56:53Z</time>
      </trkpt>
      <trkpt lat="43.8469" lon="3.86963">
        <ele>352.94</ele>
        <time>2014-03-03T11:57:26Z</time>
      </trkpt>
      <trkpt lat="43.84689" lon="3.86963">
        <ele>353.42</ele>
        <time>2014-03-03T11:57:55Z</time>
      </trkpt>
      <trkpt lat="43.84689" lon="3.86962">
        <ele>352.94</ele>
        <time>2014-03-03T11:58:17Z</time>
      </trkpt>
      <trkpt lat="43.8469" lon="3.86962">
        <ele>353.42</ele>
        <time>2014-03-03T11:58:43Z</time>
      </trkpt>
      <trkpt lat="43.84691" lon="3.86963">
        <ele>353.9</ele>
        <time>2014-03-03T11:59:08Z</time>
      </trkpt>
      <trkpt lat="43.8469" lon="3.86962">
        <ele>353.9</ele>
        <time>2014-03-03T11:59:40Z</time>
      </trkpt>
      <trkpt lat="43.84689" lon="3.86962">
        <ele>353.9</ele>
        <time>2014-03-03T12:00:04Z</time>
      </trkpt>
      <trkpt lat="43.84689" lon="3.86962">
        <ele>353.42</ele>
        <time>2014-03-03T12:00:40Z</time>
      </trkpt>
      <trkpt lat="43.8469" lon="3.86963">
        <ele>354.38</ele>
        <time>2014-03-03T12:00:45Z</time>
      </trkpt>
      <trkpt lat="43.84691" lon="3.86963">
        <ele>354.38</ele>
        <time>2014-03-03T12:01:14Z</time>
      </trkpt>
      <trkpt lat="43.8469" lon="3.86964">
        <ele>354.86</ele>
        <time>2014-03-03T12:01:42Z</time>
      </trkpt>
      <trkpt lat="43.8469" lon="3.86963">
        <ele>354.86</ele>
        <time>2014-03-03T12:02:14Z</time>
      </trkpt>
      <trkpt lat="43.8469" lon="3.86962">
        <ele>354.86</ele>
        <time>2014-03-03T12:02:44Z</time>
      </trkpt>
      <trkpt lat="43.8469" lon="3.86964">
        <ele>354.38</ele>
        <time>2014-03-03T12:03:22Z</time>
      </trkpt>
      <trkpt lat="43.84689" lon="3.86964">
        <ele>354.38</ele>
        <time>2014-03-03T12:04:01Z</time>
      </trkpt>
      <trkpt lat="43.84689" lon="3.86964">
        <ele>354.86</ele>
        <time>2014-03-03T12:04:41Z</time>
      </trkpt>
      <trkpt lat="43.8469" lon="3.86964">
        <ele>354.86</ele>
        <time>2014-03-03T12:05:16Z</time>
      </trkpt>
      <trkpt lat="43.8469" lon="3.86963">
        <ele>355.34</ele>
        <time>2014-03-03T12:05:53Z</time>
      </trkpt>
      <trkpt lat="43.84689" lon="3.86963">
        <ele>355.83</ele>
        <time>2014-03-03T12:06:31Z</time>
      </trkpt>
      <trkpt lat="43.84689" lon="3.86964">
        <ele>355.83</ele>
        <time>2014-03-03T12:07:05Z</time>
      </trkpt>
      <trkpt lat="43.84689" lon="3.86963">
        <ele>355.83</ele>
        <time>2014-03-03T12:07:36Z</time>
      </trkpt>
      <trkpt lat="43.8469" lon="3.86963">
        <ele>355.83</ele>
        <time>2014-03-03T12:08:07Z</time>
      </trkpt>
      <trkpt lat="43.84691" lon="3.86963">
        <ele>355.83</ele>
        <time>2014-03-03T12:08:42Z</time>
      </trkpt>
      <trkpt lat="43.8469" lon="3.86963">
        <ele>356.31</ele>
        <time>2014-03-03T12:09:19Z</time>
      </trkpt>
      <trkpt lat="43.84691" lon="3.86963">
        <ele>356.31</ele>
        <time>2014-03-03T12:09:48Z</time>
      </trkpt>
      <trkpt lat="43.8469" lon="3.86962">
        <ele>355.83</ele>
        <time>2014-03-03T12:10:23Z</time>
      </trkpt>
      <trkpt lat="43.84691" lon="3.8696">
        <ele>356.31</ele>
        <time>2014-03-03T12:10:56Z</time>
      </trkpt>
      <trkpt lat="43.84691" lon="3.8696">
        <ele>356.31</ele>
        <time>2014-03-03T12:11:30Z</time>
      </trkpt>
      <trkpt lat="43.84691" lon="3.8696">
        <ele>356.79</ele>
        <time>2014-03-03T12:11:59Z</time>
      </trkpt>
      <trkpt lat="43.84691" lon="3.8696">
        <ele>356.79</ele>
        <time>2014-03-03T12:12:31Z</time>
      </trkpt>
      <trkpt lat="43.84692" lon="3.86961">
        <ele>356.79</ele>
        <time>2014-03-03T12:12:58Z</time>
      </trkpt>
      <trkpt lat="43.84691" lon="3.86961">
        <ele>357.27</ele>
        <time>2014-03-03T12:13:27Z</time>
      </trkpt>
      <trkpt lat="43.84691" lon="3.86962">
        <ele>357.27</ele>
        <time>2014-03-03T12:13:53Z</time>
      </trkpt>
      <trkpt lat="43.84691" lon="3.86964">
        <ele>356.79</ele>
        <time>2014-03-03T12:14:22Z</time>
      </trkpt>
      <trkpt lat="43.84691" lon="3.86965">
        <ele>357.27</ele>
        <time>2014-03-03T12:14:52Z</time>
      </trkpt>
      <trkpt lat="43.8469" lon="3.86964">
        <ele>357.27</ele>
        <time>2014-03-03T12:15:25Z</time>
      </trkpt>
      <trkpt lat="43.84689" lon="3.86963">
        <ele>356.79</ele>
        <time>2014-03-03T12:15:56Z</time>
      </trkpt>
      <trkpt lat="43.84689" lon="3.86963">
        <ele>357.27</ele>
        <time>2014-03-03T12:16:23Z</time>
      </trkpt>
      <trkpt lat="43.8469" lon="3.86962">
        <ele>357.75</ele>
        <time>2014-03-03T12:16:51Z</time>
      </trkpt>
      <trkpt lat="43.8469" lon="3.86961">
        <ele>357.75</ele>
        <time>2014-03-03T12:17:19Z</time>
      </trkpt>
      <trkpt lat="43.84688" lon="3.86959">
        <ele>357.75</ele>
        <time>2014-03-03T12:17:50Z</time>
      </trkpt>
      <trkpt lat="43.84688" lon="3.86961">
        <ele>357.27</ele>
        <time>2014-03-03T12:18:27Z</time>
      </trkpt>
      <trkpt lat="43.84689" lon="3.86961">
        <ele>357.75</ele>
        <time>2014-03-03T12:19:03Z</time>
      </trkpt>
      <trkpt lat="43.8469" lon="3.86963">
        <ele>357.75</ele>
        <time>2014-03-03T12:19:35Z</time>
      </trkpt>
      <trkpt lat="43.8469" lon="3.86964">
        <ele>357.27</ele>
        <time>2014-03-03T12:20:06Z</time>
      </trkpt>
      <trkpt lat="43.84689" lon="3.86965">
        <ele>357.75</ele>
        <time>2014-03-03T12:20:41Z</time>
      </trkpt>
      <trkpt lat="43.8469" lon="3.86965">
        <ele>357.75</ele>
        <time>2014-03-03T12:21:12Z</time>
      </trkpt>
      <trkpt lat="43.84689" lon="3.86963">
        <ele>357.75</ele>
        <time>2014-03-03T12:21:40Z</time>
      </trkpt>
      <trkpt lat="43.84689" lon="3.86963">
        <ele>357.27</ele>
        <time>2014-03-03T12:22:16Z</time>
      </trkpt>
      <trkpt lat="43.8469" lon="3.86962">
        <ele>357.27</ele>
        <time>2014-03-03T12:22:44Z</time>
      </trkpt>
      <trkpt lat="43.8469" lon="3.86964">
        <ele>357.27</ele>
        <time>2014-03-03T12:23:02Z</time>
      </trkpt>
      <trkpt lat="43.84691" lon="3.86964">
        <ele>357.27</ele>
        <time>2014-03-03T12:23:34Z</time>
      </trkpt>
      <trkpt lat="43.84691" lon="3.86963">
        <ele>357.75</ele>
        <time>2014-03-03T12:24:05Z</time>
      </trkpt>
      <trkpt lat="43.84689" lon="3.86962">
        <ele>358.23</ele>
        <time>2014-03-03T12:24:33Z</time>
      </trkpt>
      <trkpt lat="43.84687" lon="3.86964">
        <ele>358.23</ele>
        <time>2014-03-03T12:25:02Z</time>
      </trkpt>
      <trkpt lat="43.84688" lon="3.86964">
        <ele>358.23</ele>
        <time>2014-03-03T12:25:19Z</time>
      </trkpt>
      <trkpt lat="43.84689" lon="3.86964">
        <ele>357.75</ele>
        <time>2014-03-03T12:25:39Z</time>
      </trkpt>
      <trkpt lat="43.84689" lon="3.86964">
        <ele>357.75</ele>
        <time>2014-03-03T12:25:59Z</time>
      </trkpt>
      <trkpt lat="43.8469" lon="3.86962">
        <ele>357.27</ele>
        <time>2014-03-03T12:26:33Z</time>
      </trkpt>
      <trkpt lat="43.8469" lon="3.86963">
        <ele>357.75</ele>
        <time>2014-03-03T12:26:58Z</time>
      </trkpt>
      <trkpt lat="43.84691" lon="3.86965">
        <ele>357.75</ele>
        <time>2014-03-03T12:27:23Z</time>
      </trkpt>
      <trkpt lat="43.8469" lon="3.86965">
        <ele>357.75</ele>
        <time>2014-03-03T12:27:50Z</time>
      </trkpt>
      <trkpt lat="43.8469" lon="3.86963">
        <ele>357.27</ele>
        <time>2014-03-03T12:28:20Z</time>
      </trkpt>
      <trkpt lat="43.84689" lon="3.86962">
        <ele>357.75</ele>
        <time>2014-03-03T12:28:50Z</time>
      </trkpt>
      <trkpt lat="43.84689" lon="3.86962">
        <ele>358.23</ele>
        <time>2014-03-03T12:29:10Z</time>
      </trkpt>
      <trkpt lat="43.8469" lon="3.86962">
        <ele>357.75</ele>
        <time>2014-03-03T12:29:41Z</time>
      </trkpt>
      <trkpt lat="43.84689" lon="3.86961">
        <ele>358.23</ele>
        <time>2014-03-03T12:30:12Z</time>
      </trkpt>
      <trkpt lat="43.84689" lon="3.86965">
        <ele>358.23</ele>
        <time>2014-03-03T12:30:50Z</time>
      </trkpt>
      <trkpt lat="43.8469" lon="3.86966">
        <ele>357.75</ele>
        <time>2014-03-03T12:31:21Z</time>
      </trkpt>
      <trkpt lat="43.84689" lon="3.86964">
        <ele>358.71</ele>
        <time>2014-03-03T12:31:59Z</time>
      </trkpt>
      <trkpt lat="43.84691" lon="3.86963">
        <ele>358.71</ele>
        <time>2014-03-03T12:32:34Z</time>
      </trkpt>
      <trkpt lat="43.8469" lon="3.86964">
        <ele>358.71</ele>
        <time>2014-03-03T12:33:07Z</time>
      </trkpt>
      <trkpt lat="43.84691" lon="3.86964">
        <ele>358.71</ele>
        <time>2014-03-03T12:33:38Z</time>
      </trkpt>
      <trkpt lat="43.84691" lon="3.86964">
        <ele>358.71</ele>
        <time>2014-03-03T12:34:07Z</time>
      </trkpt>
      <trkpt lat="43.8469" lon="3.86962">
        <ele>358.23</ele>
        <time>2014-03-03T12:34:31Z</time>
      </trkpt>
      <trkpt lat="43.8469" lon="3.86962">
        <ele>358.71</ele>
        <time>2014-03-03T12:34:55Z</time>
      </trkpt>
      <trkpt lat="43.84689" lon="3.86962">
        <ele>358.71</ele>
        <time>2014-03-03T12:35:33Z</time>
      </trkpt>
      <trkpt lat="43.84688" lon="3.86962">
        <ele>359.67</ele>
        <time>2014-03-03T12:35:47Z</time>
      </trkpt>
      <trkpt lat="43.84688" lon="3.86962">
        <ele>359.67</ele>
        <time>2014-03-03T12:36:01Z</time>
      </trkpt>
      <trkpt lat="43.84688" lon="3.86961">
        <ele>359.67</ele>
        <time>2014-03-03T12:36:13Z</time>
      </trkpt>
      <trkpt lat="43.84688" lon="3.86963">
        <ele>360.15</ele>
        <time>2014-03-03T12:36:37Z</time>
      </trkpt>
      <trkpt lat="43.84688" lon="3.86963">
        <ele>359.19</ele>
        <time>2014-03-03T12:36:56Z</time>
      </trkpt>
      <trkpt lat="43.84687" lon="3.86962">
        <ele>358.71</ele>
        <time>2014-03-03T12:37:10Z</time>
      </trkpt>
      <trkpt lat="43.84688" lon="3.86962">
        <ele>359.19</ele>
        <time>2014-03-03T12:37:23Z</time>
      </trkpt>
      <trkpt lat="43.84688" lon="3.86963">
        <ele>359.19</ele>
        <time>2014-03-03T12:37:35Z</time>
      </trkpt>
      <trkpt lat="43.84688" lon="3.86964">
        <ele>359.67</ele>
        <time>2014-03-03T12:37:47Z</time>
      </trkpt>
      <trkpt lat="43.84688" lon="3.86963">
        <ele>359.67</ele>
        <time>2014-03-03T12:37:59Z</time>
      </trkpt>
      <trkpt lat="43.84685" lon="3.86965">
        <ele>358.71</ele>
        <time>2014-03-03T12:38:12Z</time>
      </trkpt>
      <trkpt lat="43.84689" lon="3.86976">
        <ele>358.23</ele>
        <time>2014-03-03T12:38:24Z</time>
      </trkpt>
      <trkpt lat="43.84689" lon="3.86979">
        <ele>358.71</ele>
        <time>2014-03-03T12:38:26Z</time>
      </trkpt>
      <trkpt lat="43.8469" lon="3.86982">
        <ele>358.71</ele>
        <time>2014-03-03T12:38:29Z</time>
      </trkpt>
      <trkpt lat="43.84692" lon="3.86986">
        <ele>359.67</ele>
        <time>2014-03-03T12:38:33Z</time>
      </trkpt>
      <trkpt lat="43.84695" lon="3.87001">
        <ele>360.63</ele>
        <time>2014-03-03T12:38:45Z</time>
      </trkpt>
      <trkpt lat="43.84694" lon="3.87006">
        <ele>360.63</ele>
        <time>2014-03-03T12:38:49Z</time>
      </trkpt>
      <trkpt lat="43.84694" lon="3.8701">
        <ele>360.15</ele>
        <time>2014-03-03T12:38:52Z</time>
      </trkpt>
      <trkpt lat="43.84693" lon="3.87027">
        <ele>361.11</ele>
        <time>2014-03-03T12:39:05Z</time>
      </trkpt>
      <trkpt lat="43.84694" lon="3.87041">
        <ele>362.55</ele>
        <time>2014-03-03T12:39:16Z</time>
      </trkpt>
      <trkpt lat="43.84693" lon="3.87043">
        <ele>362.55</ele>
        <time>2014-03-03T12:39:18Z</time>
      </trkpt>
      <trkpt lat="43.84692" lon="3.87048">
        <ele>362.55</ele>
        <time>2014-03-03T12:39:35Z</time>
      </trkpt>
      <trkpt lat="43.84692" lon="3.8705">
        <ele>363.04</ele>
        <time>2014-03-03T12:39:37Z</time>
      </trkpt>
      <trkpt lat="43.84695" lon="3.8706">
        <ele>363.04</ele>
        <time>2014-03-03T12:39:44Z</time>
      </trkpt>
      <trkpt lat="43.84699" lon="3.87065">
        <ele>363.52</ele>
        <time>2014-03-03T12:39:49Z</time>
      </trkpt>
      <trkpt lat="43.8471" lon="3.87072">
        <ele>364.96</ele>
        <time>2014-03-03T12:40:02Z</time>
      </trkpt>
      <trkpt lat="43.84716" lon="3.87077">
        <ele>365.44</ele>
        <time>2014-03-03T12:40:17Z</time>
      </trkpt>
      <trkpt lat="43.8473" lon="3.87084">
        <ele>367.84</ele>
        <time>2014-03-03T12:40:33Z</time>
      </trkpt>
      <trkpt lat="43.84745" lon="3.87091">
        <ele>369.76</ele>
        <time>2014-03-03T12:40:47Z</time>
      </trkpt>
      <trkpt lat="43.84762" lon="3.87097">
        <ele>371.69</ele>
        <time>2014-03-03T12:41:03Z</time>
      </trkpt>
      <trkpt lat="43.84763" lon="3.87097">
        <ele>371.69</ele>
        <time>2014-03-03T12:41:04Z</time>
      </trkpt>
      <trkpt lat="43.84777" lon="3.87099">
        <ele>373.13</ele>
        <time>2014-03-03T12:41:17Z</time>
      </trkpt>
      <trkpt lat="43.8478" lon="3.87104">
        <ele>373.13</ele>
        <time>2014-03-03T12:41:22Z</time>
      </trkpt>
      <trkpt lat="43.84783" lon="3.87109">
        <ele>373.61</ele>
        <time>2014-03-03T12:41:26Z</time>
      </trkpt>
      <trkpt lat="43.84784" lon="3.87113">
        <ele>373.61</ele>
        <time>2014-03-03T12:41:41Z</time>
      </trkpt>
      <trkpt lat="43.84784" lon="3.87112">
        <ele>373.61</ele>
        <time>2014-03-03T12:41:58Z</time>
      </trkpt>
      <trkpt lat="43.84784" lon="3.87113">
        <ele>373.13</ele>
        <time>2014-03-03T12:42:02Z</time>
      </trkpt>
      <trkpt lat="43.84785" lon="3.87112">
        <ele>373.61</ele>
        <time>2014-03-03T12:42:10Z</time>
      </trkpt>
      <trkpt lat="43.84788" lon="3.8711">
        <ele>374.09</ele>
        <time>2014-03-03T12:42:16Z</time>
      </trkpt>
      <trkpt lat="43.84798" lon="3.87108">
        <ele>374.09</ele>
        <time>2014-03-03T12:42:25Z</time>
      </trkpt>
      <trkpt lat="43.84802" lon="3.87105">
        <ele>373.13</ele>
        <time>2014-03-03T12:42:30Z</time>
      </trkpt>
      <trkpt lat="43.84816" lon="3.87107">
        <ele>372.65</ele>
        <time>2014-03-03T12:42:45Z</time>
      </trkpt>
      <trkpt lat="43.84822" lon="3.87105">
        <ele>371.21</ele>
        <time>2014-03-03T12:42:51Z</time>
      </trkpt>
      <trkpt lat="43.84829" lon="3.87103">
        <ele>372.17</ele>
        <time>2014-03-03T12:42:58Z</time>
      </trkpt>
      <trkpt lat="43.84839" lon="3.87095">
        <ele>371.69</ele>
        <time>2014-03-03T12:43:12Z</time>
      </trkpt>
      <trkpt lat="43.84839" lon="3.87097">
        <ele>371.21</ele>
        <time>2014-03-03T12:43:14Z</time>
      </trkpt>
      <trkpt lat="43.84846" lon="3.87104">
        <ele>368.8</ele>
        <time>2014-03-03T12:43:24Z</time>
      </trkpt>
      <trkpt lat="43.84849" lon="3.87105">
        <ele>368.8</ele>
        <time>2014-03-03T12:43:27Z</time>
      </trkpt>
      <trkpt lat="43.84859" lon="3.87102">
        <ele>369.28</ele>
        <time>2014-03-03T12:43:41Z</time>
      </trkpt>
      <trkpt lat="43.84859" lon="3.87105">
        <ele>369.28</ele>
        <time>2014-03-03T12:43:58Z</time>
      </trkpt>
      <trkpt lat="43.8486" lon="3.87104">
        <ele>369.28</ele>
        <time>2014-03-03T12:44:00Z</time>
      </trkpt>
      <trkpt lat="43.84869" lon="3.87095">
        <ele>368.8</ele>
        <time>2014-03-03T12:44:13Z</time>
      </trkpt>
      <trkpt lat="43.84879" lon="3.87094">
        <ele>368.32</ele>
        <time>2014-03-03T12:44:28Z</time>
      </trkpt>
      <trkpt lat="43.84887" lon="3.87087">
        <ele>367.84</ele>
        <time>2014-03-03T12:44:41Z</time>
      </trkpt>
      <trkpt lat="43.84889" lon="3.87085">
        <ele>367.84</ele>
        <time>2014-03-03T12:44:44Z</time>
      </trkpt>
      <trkpt lat="43.84893" lon="3.87084">
        <ele>367.84</ele>
        <time>2014-03-03T12:44:48Z</time>
      </trkpt>
      <trkpt lat="43.84897" lon="3.87082">
        <ele>367.36</ele>
        <time>2014-03-03T12:44:53Z</time>
      </trkpt>
      <trkpt lat="43.84911" lon="3.87076">
        <ele>366.88</ele>
        <time>2014-03-03T12:45:08Z</time>
      </trkpt>
      <trkpt lat="43.84915" lon="3.87068">
        <ele>365.44</ele>
        <time>2014-03-03T12:45:19Z</time>
      </trkpt>
      <trkpt lat="43.8492" lon="3.87064">
        <ele>364</ele>
        <time>2014-03-03T12:45:32Z</time>
      </trkpt>
      <trkpt lat="43.8492" lon="3.87069">
        <ele>363.52</ele>
        <time>2014-03-03T12:45:43Z</time>
      </trkpt>
      <trkpt lat="43.84918" lon="3.87069">
        <ele>364.48</ele>
        <time>2014-03-03T12:45:54Z</time>
      </trkpt>
      <trkpt lat="43.84918" lon="3.87064">
        <ele>365.44</ele>
        <time>2014-03-03T12:46:07Z</time>
      </trkpt>
      <trkpt lat="43.8492" lon="3.87053">
        <ele>364.48</ele>
        <time>2014-03-03T12:46:15Z</time>
      </trkpt>
      <trkpt lat="43.84928" lon="3.87052">
        <ele>363.04</ele>
        <time>2014-03-03T12:46:30Z</time>
      </trkpt>
      <trkpt lat="43.84928" lon="3.87052">
        <ele>361.59</ele>
        <time>2014-03-03T12:46:41Z</time>
      </trkpt>
      <trkpt lat="43.84926" lon="3.87056">
        <ele>360.15</ele>
        <time>2014-03-03T12:46:55Z</time>
      </trkpt>
      <trkpt lat="43.84926" lon="3.87057">
        <ele>359.19</ele>
        <time>2014-03-03T12:47:05Z</time>
      </trkpt>
      <trkpt lat="43.84924" lon="3.87063">
        <ele>358.71</ele>
        <time>2014-03-03T12:47:26Z</time>
      </trkpt>
      <trkpt lat="43.84926" lon="3.87062">
        <ele>357.27</ele>
        <time>2014-03-03T12:47:41Z</time>
      </trkpt>
      <trkpt lat="43.84925" lon="3.87061">
        <ele>356.79</ele>
        <time>2014-03-03T12:47:56Z</time>
      </trkpt>
      <trkpt lat="43.84925" lon="3.87062">
        <ele>356.31</ele>
        <time>2014-03-03T12:48:12Z</time>
      </trkpt>
      <trkpt lat="43.84925" lon="3.87062">
        <ele>356.31</ele>
        <time>2014-03-03T12:48:26Z</time>
      </trkpt>
      <trkpt lat="43.84923" lon="3.87063">
        <ele>356.31</ele>
        <time>2014-03-03T12:48:39Z</time>
      </trkpt>
      <trkpt lat="43.84923" lon="3.87063">
        <ele>356.31</ele>
        <time>2014-03-03T12:48:55Z</time>
      </trkpt>
      <trkpt lat="43.84924" lon="3.87061">
        <ele>356.31</ele>
        <time>2014-03-03T12:49:14Z</time>
      </trkpt>
      <trkpt lat="43.84924" lon="3.87062">
        <ele>356.31</ele>
        <time>2014-03-03T12:49:28Z</time>
      </trkpt>
      <trkpt lat="43.84925" lon="3.87063">
        <ele>355.83</ele>
        <time>2014-03-03T12:49:40Z</time>
      </trkpt>
      <trkpt lat="43.84926" lon="3.87064">
        <ele>356.31</ele>
        <time>2014-03-03T12:49:52Z</time>
      </trkpt>
      <trkpt lat="43.84927" lon="3.87068">
        <ele>356.31</ele>
        <time>2014-03-03T12:50:10Z</time>
      </trkpt>
      <trkpt lat="43.84928" lon="3.87068">
        <ele>357.27</ele>
        <time>2014-03-03T12:50:32Z</time>
      </trkpt>
      <trkpt lat="43.84929" lon="3.87064">
        <ele>356.31</ele>
        <time>2014-03-03T12:50:53Z</time>
      </trkpt>
      <trkpt lat="43.84928" lon="3.87067">
        <ele>355.34</ele>
        <time>2014-03-03T12:51:08Z</time>
      </trkpt>
      <trkpt lat="43.84927" lon="3.87068">
        <ele>354.38</ele>
        <time>2014-03-03T12:51:11Z</time>
      </trkpt>
      <trkpt lat="43.84927" lon="3.87073">
        <ele>354.38</ele>
        <time>2014-03-03T12:51:24Z</time>
      </trkpt>
      <trkpt lat="43.84927" lon="3.87074">
        <ele>351.98</ele>
        <time>2014-03-03T12:51:34Z</time>
      </trkpt>
      <trkpt lat="43.84927" lon="3.87079">
        <ele>350.54</ele>
        <time>2014-03-03T12:51:47Z</time>
      </trkpt>
      <trkpt lat="43.84929" lon="3.87081">
        <ele>347.65</ele>
        <time>2014-03-03T12:52:01Z</time>
      </trkpt>
      <trkpt lat="43.84931" lon="3.87084">
        <ele>345.25</ele>
        <time>2014-03-03T12:52:11Z</time>
      </trkpt>
      <trkpt lat="43.84934" lon="3.87087">
        <ele>342.37</ele>
        <time>2014-03-03T12:52:22Z</time>
      </trkpt>
      <trkpt lat="43.84934" lon="3.87089">
        <ele>342.85</ele>
        <time>2014-03-03T12:52:39Z</time>
      </trkpt>
      <trkpt lat="43.84935" lon="3.87091">
        <ele>342.37</ele>
        <time>2014-03-03T12:53:09Z</time>
      </trkpt>
      <trkpt lat="43.84938" lon="3.87096">
        <ele>340.44</ele>
        <time>2014-03-03T12:53:22Z</time>
      </trkpt>
      <trkpt lat="43.84936" lon="3.87108">
        <ele>339</ele>
        <time>2014-03-03T12:53:37Z</time>
      </trkpt>
      <trkpt lat="43.84935" lon="3.8711">
        <ele>339</ele>
        <time>2014-03-03T12:53:40Z</time>
      </trkpt>
      <trkpt lat="43.84935" lon="3.87118">
        <ele>338.04</ele>
        <time>2014-03-03T12:53:51Z</time>
      </trkpt>
      <trkpt lat="43.84933" lon="3.87126">
        <ele>338.52</ele>
        <time>2014-03-03T12:54:02Z</time>
      </trkpt>
      <trkpt lat="43.84936" lon="3.87128">
        <ele>337.08</ele>
        <time>2014-03-03T12:54:15Z</time>
      </trkpt>
      <trkpt lat="43.84936" lon="3.87127">
        <ele>337.08</ele>
        <time>2014-03-03T12:54:29Z</time>
      </trkpt>
      <trkpt lat="43.84936" lon="3.87126">
        <ele>337.56</ele>
        <time>2014-03-03T12:54:47Z</time>
      </trkpt>
      <trkpt lat="43.84936" lon="3.87125">
        <ele>337.08</ele>
        <time>2014-03-03T12:55:00Z</time>
      </trkpt>
      <trkpt lat="43.84938" lon="3.87124">
        <ele>337.08</ele>
        <time>2014-03-03T12:55:18Z</time>
      </trkpt>
      <trkpt lat="43.84939" lon="3.87126">
        <ele>336.6</ele>
        <time>2014-03-03T12:55:35Z</time>
      </trkpt>
      <trkpt lat="43.84938" lon="3.87135">
        <ele>336.12</ele>
        <time>2014-03-03T12:55:50Z</time>
      </trkpt>
      <trkpt lat="43.84942" lon="3.87139">
        <ele>333.23</ele>
        <time>2014-03-03T12:55:59Z</time>
      </trkpt>
      <trkpt lat="43.84944" lon="3.8715">
        <ele>330.83</ele>
        <time>2014-03-03T12:56:11Z</time>
      </trkpt>
      <trkpt lat="43.84942" lon="3.8716">
        <ele>328.91</ele>
        <time>2014-03-03T12:56:24Z</time>
      </trkpt>
      <trkpt lat="43.8494" lon="3.87169">
        <ele>329.39</ele>
        <time>2014-03-03T12:56:30Z</time>
      </trkpt>
      <trkpt lat="43.84943" lon="3.87178">
        <ele>332.75</ele>
        <time>2014-03-03T12:56:40Z</time>
      </trkpt>
      <trkpt lat="43.84948" lon="3.87186">
        <ele>333.23</ele>
        <time>2014-03-03T12:56:52Z</time>
      </trkpt>
      <trkpt lat="43.84954" lon="3.87194">
        <ele>332.27</ele>
        <time>2014-03-03T12:57:01Z</time>
      </trkpt>
      <trkpt lat="43.84956" lon="3.87196">
        <ele>332.27</ele>
        <time>2014-03-03T12:57:03Z</time>
      </trkpt>
      <trkpt lat="43.84957" lon="3.87198">
        <ele>332.27</ele>
        <time>2014-03-03T12:57:05Z</time>
      </trkpt>
      <trkpt lat="43.84959" lon="3.87199">
        <ele>332.27</ele>
        <time>2014-03-03T12:57:07Z</time>
      </trkpt>
      <trkpt lat="43.8496" lon="3.87214">
        <ele>335.64</ele>
        <time>2014-03-03T12:57:19Z</time>
      </trkpt>
      <trkpt lat="43.84964" lon="3.87224">
        <ele>336.6</ele>
        <time>2014-03-03T12:57:30Z</time>
      </trkpt>
      <trkpt lat="43.84967" lon="3.87231">
        <ele>336.6</ele>
        <time>2014-03-03T12:57:41Z</time>
      </trkpt>
      <trkpt lat="43.84968" lon="3.87237">
        <ele>336.6</ele>
        <time>2014-03-03T12:57:45Z</time>
      </trkpt>
      <trkpt lat="43.8497" lon="3.8724">
        <ele>337.08</ele>
        <time>2014-03-03T12:57:47Z</time>
      </trkpt>
      <trkpt lat="43.84974" lon="3.87248">
        <ele>339.48</ele>
        <time>2014-03-03T12:57:59Z</time>
      </trkpt>
      <trkpt lat="43.84973" lon="3.87253">
        <ele>339</ele>
        <time>2014-03-03T12:58:03Z</time>
      </trkpt>
      <trkpt lat="43.84976" lon="3.87266">
        <ele>340.44</ele>
        <time>2014-03-03T12:58:13Z</time>
      </trkpt>
      <trkpt lat="43.84976" lon="3.87274">
        <ele>342.37</ele>
        <time>2014-03-03T12:58:21Z</time>
      </trkpt>
      <trkpt lat="43.84979" lon="3.87285">
        <ele>345.25</ele>
        <time>2014-03-03T12:58:32Z</time>
      </trkpt>
      <trkpt lat="43.84978" lon="3.87297">
        <ele>346.21</ele>
        <time>2014-03-03T12:58:45Z</time>
      </trkpt>
      <trkpt lat="43.84978" lon="3.87307">
        <ele>348.13</ele>
        <time>2014-03-03T12:58:57Z</time>
      </trkpt>
      <trkpt lat="43.84979" lon="3.87315">
        <ele>350.54</ele>
        <time>2014-03-03T12:59:09Z</time>
      </trkpt>
      <trkpt lat="43.84981" lon="3.87315">
        <ele>350.54</ele>
        <time>2014-03-03T12:59:16Z</time>
      </trkpt>
      <trkpt lat="43.84983" lon="3.87318">
        <ele>351.98</ele>
        <time>2014-03-03T12:59:19Z</time>
      </trkpt>
      <trkpt lat="43.84983" lon="3.87324">
        <ele>351.5</ele>
        <time>2014-03-03T12:59:24Z</time>
      </trkpt>
      <trkpt lat="43.84986" lon="3.8733">
        <ele>353.42</ele>
        <time>2014-03-03T12:59:31Z</time>
      </trkpt>
      <trkpt lat="43.84987" lon="3.87334">
        <ele>353.42</ele>
        <time>2014-03-03T12:59:42Z</time>
      </trkpt>
      <trkpt lat="43.84988" lon="3.87335">
        <ele>352.94</ele>
        <time>2014-03-03T13:00:00Z</time>
      </trkpt>
      <trkpt lat="43.84989" lon="3.87333">
        <ele>352.94</ele>
        <time>2014-03-03T13:00:12Z</time>
      </trkpt>
      <trkpt lat="43.84989" lon="3.87331">
        <ele>353.42</ele>
        <time>2014-03-03T13:00:26Z</time>
      </trkpt>
      <trkpt lat="43.8499" lon="3.8733">
        <ele>353.9</ele>
        <time>2014-03-03T13:00:33Z</time>
      </trkpt>
      <trkpt lat="43.8499" lon="3.87332">
        <ele>352.46</ele>
        <time>2014-03-03T13:00:48Z</time>
      </trkpt>
      <trkpt lat="43.84988" lon="3.87335">
        <ele>352.94</ele>
        <time>2014-03-03T13:01:06Z</time>
      </trkpt>
      <trkpt lat="43.84987" lon="3.87338">
        <ele>352.46</ele>
        <time>2014-03-03T13:01:26Z</time>
      </trkpt>
      <trkpt lat="43.84987" lon="3.87335">
        <ele>352.46</ele>
        <time>2014-03-03T13:01:38Z</time>
      </trkpt>
      <trkpt lat="43.84989" lon="3.87334">
        <ele>353.9</ele>
        <time>2014-03-03T13:01:54Z</time>
      </trkpt>
      <trkpt lat="43.84988" lon="3.87335">
        <ele>352.94</ele>
        <time>2014-03-03T13:01:56Z</time>
      </trkpt>
      <trkpt lat="43.8499" lon="3.87337">
        <ele>352.94</ele>
        <time>2014-03-03T13:02:18Z</time>
      </trkpt>
      <trkpt lat="43.8499" lon="3.87335">
        <ele>353.42</ele>
        <time>2014-03-03T13:02:40Z</time>
      </trkpt>
      <trkpt lat="43.84989" lon="3.87336">
        <ele>353.42</ele>
        <time>2014-03-03T13:02:51Z</time>
      </trkpt>
      <trkpt lat="43.84988" lon="3.87337">
        <ele>352.94</ele>
        <time>2014-03-03T13:03:05Z</time>
      </trkpt>
      <trkpt lat="43.84989" lon="3.87336">
        <ele>352.94</ele>
        <time>2014-03-03T13:03:21Z</time>
      </trkpt>
      <trkpt lat="43.8499" lon="3.87333">
        <ele>351.5</ele>
        <time>2014-03-03T13:03:28Z</time>
      </trkpt>
      <trkpt lat="43.84989" lon="3.87334">
        <ele>352.46</ele>
        <time>2014-03-03T13:03:39Z</time>
      </trkpt>
      <trkpt lat="43.84988" lon="3.87334">
        <ele>353.9</ele>
        <time>2014-03-03T13:03:42Z</time>
      </trkpt>
      <trkpt lat="43.84989" lon="3.87333">
        <ele>353.42</ele>
        <time>2014-03-03T13:04:07Z</time>
      </trkpt>
      <trkpt lat="43.84989" lon="3.87332">
        <ele>352.46</ele>
        <time>2014-03-03T13:04:22Z</time>
      </trkpt>
      <trkpt lat="43.84989" lon="3.8733">
        <ele>353.42</ele>
        <time>2014-03-03T13:04:35Z</time>
      </trkpt>
      <trkpt lat="43.8499" lon="3.8733">
        <ele>352.94</ele>
        <time>2014-03-03T13:04:54Z</time>
      </trkpt>
      <trkpt lat="43.84989" lon="3.8733">
        <ele>352.46</ele>
        <time>2014-03-03T13:05:11Z</time>
      </trkpt>
      <trkpt lat="43.84988" lon="3.87331">
        <ele>353.42</ele>
        <time>2014-03-03T13:05:30Z</time>
      </trkpt>
      <trkpt lat="43.84988" lon="3.87329">
        <ele>353.9</ele>
        <time>2014-03-03T13:05:47Z</time>
      </trkpt>
      <trkpt lat="43.84988" lon="3.87327">
        <ele>352.94</ele>
        <time>2014-03-03T13:06:08Z</time>
      </trkpt>
      <trkpt lat="43.84984" lon="3.87332">
        <ele>353.9</ele>
        <time>2014-03-03T13:06:26Z</time>
      </trkpt>
      <trkpt lat="43.84987" lon="3.87333">
        <ele>353.42</ele>
        <time>2014-03-03T13:06:40Z</time>
      </trkpt>
      <trkpt lat="43.84985" lon="3.87325">
        <ele>352.46</ele>
        <time>2014-03-03T13:06:57Z</time>
      </trkpt>
      <trkpt lat="43.84984" lon="3.87315">
        <ele>349.1</ele>
        <time>2014-03-03T13:07:08Z</time>
      </trkpt>
      <trkpt lat="43.84985" lon="3.87313">
        <ele>348.13</ele>
        <time>2014-03-03T13:07:10Z</time>
      </trkpt>
      <trkpt lat="43.84985" lon="3.87307">
        <ele>349.58</ele>
        <time>2014-03-03T13:07:17Z</time>
      </trkpt>
      <trkpt lat="43.84983" lon="3.87296">
        <ele>347.65</ele>
        <time>2014-03-03T13:07:28Z</time>
      </trkpt>
      <trkpt lat="43.8498" lon="3.87285">
        <ele>344.77</ele>
        <time>2014-03-03T13:07:41Z</time>
      </trkpt>
      <trkpt lat="43.8498" lon="3.87284">
        <ele>344.77</ele>
        <time>2014-03-03T13:07:42Z</time>
      </trkpt>
      <trkpt lat="43.84978" lon="3.87272">
        <ele>341.41</ele>
        <time>2014-03-03T13:07:55Z</time>
      </trkpt>
      <trkpt lat="43.84978" lon="3.87272">
        <ele>341.41</ele>
        <time>2014-03-03T13:07:56Z</time>
      </trkpt>
      <trkpt lat="43.84975" lon="3.87259">
        <ele>340.92</ele>
        <time>2014-03-03T13:08:07Z</time>
      </trkpt>
      <trkpt lat="43.84974" lon="3.87254">
        <ele>339.96</ele>
        <time>2014-03-03T13:08:11Z</time>
      </trkpt>
      <trkpt lat="43.8497" lon="3.8724">
        <ele>337.56</ele>
        <time>2014-03-03T13:08:23Z</time>
      </trkpt>
      <trkpt lat="43.84965" lon="3.87224">
        <ele>337.08</ele>
        <time>2014-03-03T13:08:35Z</time>
      </trkpt>
      <trkpt lat="43.84962" lon="3.87214">
        <ele>336.6</ele>
        <time>2014-03-03T13:08:46Z</time>
      </trkpt>
      <trkpt lat="43.84961" lon="3.87207">
        <ele>333.71</ele>
        <time>2014-03-03T13:08:53Z</time>
      </trkpt>
      <trkpt lat="43.84962" lon="3.87204">
        <ele>332.75</ele>
        <time>2014-03-03T13:08:55Z</time>
      </trkpt>
      <trkpt lat="43.84961" lon="3.8719">
        <ele>332.27</ele>
        <time>2014-03-03T13:09:07Z</time>
      </trkpt>
      <trkpt lat="43.8496" lon="3.87187">
        <ele>332.75</ele>
        <time>2014-03-03T13:09:10Z</time>
      </trkpt>
      <trkpt lat="43.8496" lon="3.87184">
        <ele>332.27</ele>
        <time>2014-03-03T13:09:12Z</time>
      </trkpt>
      <trkpt lat="43.84959" lon="3.87175">
        <ele>333.23</ele>
        <time>2014-03-03T13:09:20Z</time>
      </trkpt>
      <trkpt lat="43.8496" lon="3.87167">
        <ele>331.31</ele>
        <time>2014-03-03T13:09:31Z</time>
      </trkpt>
      <trkpt lat="43.84959" lon="3.8716">
        <ele>329.39</ele>
        <time>2014-03-03T13:09:42Z</time>
      </trkpt>
      <trkpt lat="43.84964" lon="3.87159">
        <ele>328.91</ele>
        <time>2014-03-03T13:10:01Z</time>
      </trkpt>
      <trkpt lat="43.84964" lon="3.8716">
        <ele>328.91</ele>
        <time>2014-03-03T13:10:18Z</time>
      </trkpt>
      <trkpt lat="43.84963" lon="3.87157">
        <ele>328.43</ele>
        <time>2014-03-03T13:10:20Z</time>
      </trkpt>
      <trkpt lat="43.84963" lon="3.87153">
        <ele>327.95</ele>
        <time>2014-03-03T13:10:23Z</time>
      </trkpt>
      <trkpt lat="43.84964" lon="3.87134">
        <ele>325.06</ele>
        <time>2014-03-03T13:10:37Z</time>
      </trkpt>
      <trkpt lat="43.8496" lon="3.87138">
        <ele>324.58</ele>
        <time>2014-03-03T13:10:53Z</time>
      </trkpt>
      <trkpt lat="43.84961" lon="3.87122">
        <ele>325.06</ele>
        <time>2014-03-03T13:11:07Z</time>
      </trkpt>
      <trkpt lat="43.84962" lon="3.87108">
        <ele>325.54</ele>
        <time>2014-03-03T13:11:20Z</time>
      </trkpt>
      <trkpt lat="43.84967" lon="3.87097">
        <ele>323.62</ele>
        <time>2014-03-03T13:11:32Z</time>
      </trkpt>
      <trkpt lat="43.84973" lon="3.87089">
        <ele>325.06</ele>
        <time>2014-03-03T13:11:43Z</time>
      </trkpt>
      <trkpt lat="43.84985" lon="3.87084">
        <ele>326.99</ele>
        <time>2014-03-03T13:11:56Z</time>
      </trkpt>
      <trkpt lat="43.84988" lon="3.87073">
        <ele>328.43</ele>
        <time>2014-03-03T13:12:09Z</time>
      </trkpt>
      <trkpt lat="43.84994" lon="3.87056">
        <ele>326.99</ele>
        <time>2014-03-03T13:12:25Z</time>
      </trkpt>
      <trkpt lat="43.85001" lon="3.87046">
        <ele>324.1</ele>
        <time>2014-03-03T13:12:38Z</time>
      </trkpt>
      <trkpt lat="43.85003" lon="3.87033">
        <ele>321.22</ele>
        <time>2014-03-03T13:12:52Z</time>
      </trkpt>
      <trkpt lat="43.85006" lon="3.87026">
        <ele>321.22</ele>
        <time>2014-03-03T13:13:04Z</time>
      </trkpt>
      <trkpt lat="43.85012" lon="3.87015">
        <ele>321.7</ele>
        <time>2014-03-03T13:13:16Z</time>
      </trkpt>
      <trkpt lat="43.85018" lon="3.87006">
        <ele>321.22</ele>
        <time>2014-03-03T13:13:26Z</time>
      </trkpt>
      <trkpt lat="43.85023" lon="3.86996">
        <ele>323.14</ele>
        <time>2014-03-03T13:13:36Z</time>
      </trkpt>
      <trkpt lat="43.85029" lon="3.86985">
        <ele>323.62</ele>
        <time>2014-03-03T13:13:49Z</time>
      </trkpt>
      <trkpt lat="43.85039" lon="3.86978">
        <ele>322.18</ele>
        <time>2014-03-03T13:14:00Z</time>
      </trkpt>
      <trkpt lat="43.85047" lon="3.86968">
        <ele>320.26</ele>
        <time>2014-03-03T13:14:15Z</time>
      </trkpt>
      <trkpt lat="43.85052" lon="3.86967">
        <ele>317.85</ele>
        <time>2014-03-03T13:14:25Z</time>
      </trkpt>
      <trkpt lat="43.85055" lon="3.86965">
        <ele>316.89</ele>
        <time>2014-03-03T13:14:38Z</time>
      </trkpt>
      <trkpt lat="43.85057" lon="3.86967">
        <ele>316.41</ele>
        <time>2014-03-03T13:14:58Z</time>
      </trkpt>
      <trkpt lat="43.8506" lon="3.86971">
        <ele>315.45</ele>
        <time>2014-03-03T13:15:18Z</time>
      </trkpt>
      <trkpt lat="43.85062" lon="3.86973">
        <ele>314.49</ele>
        <time>2014-03-03T13:15:23Z</time>
      </trkpt>
      <trkpt lat="43.85066" lon="3.86977">
        <ele>313.53</ele>
        <time>2014-03-03T13:15:29Z</time>
      </trkpt>
      <trkpt lat="43.85068" lon="3.86979">
        <ele>312.57</ele>
        <time>2014-03-03T13:15:31Z</time>
      </trkpt>
      <trkpt lat="43.85075" lon="3.86987">
        <ele>309.68</ele>
        <time>2014-03-03T13:15:43Z</time>
      </trkpt>
      <trkpt lat="43.85084" lon="3.8699">
        <ele>307.28</ele>
        <time>2014-03-03T13:15:55Z</time>
      </trkpt>
      <trkpt lat="43.85098" lon="3.86986">
        <ele>303.91</ele>
        <time>2014-03-03T13:16:09Z</time>
      </trkpt>
      <trkpt lat="43.85099" lon="3.86986">
        <ele>303.91</ele>
        <time>2014-03-03T13:16:10Z</time>
      </trkpt>
      <trkpt lat="43.85104" lon="3.86988">
        <ele>302.95</ele>
        <time>2014-03-03T13:16:15Z</time>
      </trkpt>
      <trkpt lat="43.85104" lon="3.86982">
        <ele>300.55</ele>
        <time>2014-03-03T13:16:22Z</time>
      </trkpt>
      <trkpt lat="43.851" lon="3.86976">
        <ele>299.11</ele>
        <time>2014-03-03T13:16:30Z</time>
      </trkpt>
      <trkpt lat="43.85099" lon="3.86971">
        <ele>296.7</ele>
        <time>2014-03-03T13:16:33Z</time>
      </trkpt>
      <trkpt lat="43.85099" lon="3.86967">
        <ele>295.74</ele>
        <time>2014-03-03T13:16:37Z</time>
      </trkpt>
      <trkpt lat="43.85101" lon="3.86962">
        <ele>295.26</ele>
        <time>2014-03-03T13:16:42Z</time>
      </trkpt>
      <trkpt lat="43.85104" lon="3.86958">
        <ele>294.3</ele>
        <time>2014-03-03T13:16:47Z</time>
      </trkpt>
      <trkpt lat="43.85106" lon="3.86957">
        <ele>293.82</ele>
        <time>2014-03-03T13:16:49Z</time>
      </trkpt>
      <trkpt lat="43.85114" lon="3.86954">
        <ele>292.38</ele>
        <time>2014-03-03T13:16:57Z</time>
      </trkpt>
      <trkpt lat="43.85116" lon="3.86948">
        <ele>291.42</ele>
        <time>2014-03-03T13:17:03Z</time>
      </trkpt>
      <trkpt lat="43.85116" lon="3.86945">
        <ele>290.46</ele>
        <time>2014-03-03T13:17:06Z</time>
      </trkpt>
      <trkpt lat="43.85121" lon="3.86935">
        <ele>289.49</ele>
        <time>2014-03-03T13:17:17Z</time>
      </trkpt>
      <trkpt lat="43.85121" lon="3.86935">
        <ele>289.01</ele>
        <time>2014-03-03T13:17:18Z</time>
      </trkpt>
      <trkpt lat="43.85123" lon="3.86932">
        <ele>289.01</ele>
        <time>2014-03-03T13:17:21Z</time>
      </trkpt>
      <trkpt lat="43.85126" lon="3.86928">
        <ele>288.53</ele>
        <time>2014-03-03T13:17:25Z</time>
      </trkpt>
      <trkpt lat="43.85127" lon="3.86923">
        <ele>288.05</ele>
        <time>2014-03-03T13:17:30Z</time>
      </trkpt>
      <trkpt lat="43.85129" lon="3.86915">
        <ele>287.09</ele>
        <time>2014-03-03T13:17:39Z</time>
      </trkpt>
      <trkpt lat="43.85132" lon="3.86912">
        <ele>286.13</ele>
        <time>2014-03-03T13:17:48Z</time>
      </trkpt>
      <trkpt lat="43.85138" lon="3.86909">
        <ele>284.69</ele>
        <time>2014-03-03T13:17:58Z</time>
      </trkpt>
      <trkpt lat="43.85148" lon="3.86902">
        <ele>283.25</ele>
        <time>2014-03-03T13:18:10Z</time>
      </trkpt>
      <trkpt lat="43.85147" lon="3.869">
        <ele>282.77</ele>
        <time>2014-03-03T13:18:12Z</time>
      </trkpt>
      <trkpt lat="43.85148" lon="3.8689">
        <ele>281.8</ele>
        <time>2014-03-03T13:18:23Z</time>
      </trkpt>
      <trkpt lat="43.85154" lon="3.86886">
        <ele>280.36</ele>
        <time>2014-03-03T13:18:35Z</time>
      </trkpt>
      <trkpt lat="43.85156" lon="3.86877">
        <ele>279.4</ele>
        <time>2014-03-03T13:18:47Z</time>
      </trkpt>
      <trkpt lat="43.85157" lon="3.86876">
        <ele>278.92</ele>
        <time>2014-03-03T13:18:49Z</time>
      </trkpt>
      <trkpt lat="43.85163" lon="3.86862">
        <ele>277.96</ele>
        <time>2014-03-03T13:18:59Z</time>
      </trkpt>
      <trkpt lat="43.85173" lon="3.86858">
        <ele>277</ele>
        <time>2014-03-03T13:19:10Z</time>
      </trkpt>
      <trkpt lat="43.85176" lon="3.86851">
        <ele>277</ele>
        <time>2014-03-03T13:19:16Z</time>
      </trkpt>
      <trkpt lat="43.8518" lon="3.86835">
        <ele>275.56</ele>
        <time>2014-03-03T13:19:30Z</time>
      </trkpt>
      <trkpt lat="43.85182" lon="3.86831">
        <ele>275.07</ele>
        <time>2014-03-03T13:19:34Z</time>
      </trkpt>
      <trkpt lat="43.85187" lon="3.86816">
        <ele>273.63</ele>
        <time>2014-03-03T13:19:46Z</time>
      </trkpt>
      <trkpt lat="43.85192" lon="3.86802">
        <ele>273.15</ele>
        <time>2014-03-03T13:19:58Z</time>
      </trkpt>
      <trkpt lat="43.85201" lon="3.86793">
        <ele>272.19</ele>
        <time>2014-03-03T13:20:10Z</time>
      </trkpt>
      <trkpt lat="43.85199" lon="3.86777">
        <ele>272.67</ele>
        <time>2014-03-03T13:20:24Z</time>
      </trkpt>
      <trkpt lat="43.85199" lon="3.86768">
        <ele>272.67</ele>
        <time>2014-03-03T13:20:37Z</time>
      </trkpt>
      <trkpt lat="43.85197" lon="3.86764">
        <ele>273.15</ele>
        <time>2014-03-03T13:21:12Z</time>
      </trkpt>
      <trkpt lat="43.85199" lon="3.86777">
        <ele>273.15</ele>
        <time>2014-03-03T13:21:21Z</time>
      </trkpt>
      <trkpt lat="43.85199" lon="3.86781">
        <ele>273.15</ele>
        <time>2014-03-03T13:21:23Z</time>
      </trkpt>
      <trkpt lat="43.85202" lon="3.86788">
        <ele>273.15</ele>
        <time>2014-03-03T13:21:37Z</time>
      </trkpt>
      <trkpt lat="43.85203" lon="3.86792">
        <ele>273.15</ele>
        <time>2014-03-03T13:21:57Z</time>
      </trkpt>
      <trkpt lat="43.85204" lon="3.86793">
        <ele>273.15</ele>
        <time>2014-03-03T13:22:19Z</time>
      </trkpt>
      <trkpt lat="43.85203" lon="3.86791">
        <ele>272.67</ele>
        <time>2014-03-03T13:22:44Z</time>
      </trkpt>
      <trkpt lat="43.85203" lon="3.86792">
        <ele>273.15</ele>
        <time>2014-03-03T13:23:06Z</time>
      </trkpt>
      <trkpt lat="43.85202" lon="3.86791">
        <ele>272.67</ele>
        <time>2014-03-03T13:23:33Z</time>
      </trkpt>
      <trkpt lat="43.85203" lon="3.8678">
        <ele>271.71</ele>
        <time>2014-03-03T13:23:41Z</time>
      </trkpt>
      <trkpt lat="43.85211" lon="3.8677">
        <ele>270.75</ele>
        <time>2014-03-03T13:23:54Z</time>
      </trkpt>
      <trkpt lat="43.85216" lon="3.86765">
        <ele>268.83</ele>
        <time>2014-03-03T13:24:04Z</time>
      </trkpt>
      <trkpt lat="43.85222" lon="3.8676">
        <ele>267.38</ele>
        <time>2014-03-03T13:24:18Z</time>
      </trkpt>
      <trkpt lat="43.85231" lon="3.86755">
        <ele>266.9</ele>
        <time>2014-03-03T13:24:30Z</time>
      </trkpt>
      <trkpt lat="43.85236" lon="3.86752">
        <ele>263.06</ele>
        <time>2014-03-03T13:24:41Z</time>
      </trkpt>
      <trkpt lat="43.85234" lon="3.86746">
        <ele>263.06</ele>
        <time>2014-03-03T13:24:52Z</time>
      </trkpt>
      <trkpt lat="43.85237" lon="3.8674">
        <ele>263.06</ele>
        <time>2014-03-03T13:25:02Z</time>
      </trkpt>
      <trkpt lat="43.85243" lon="3.86733">
        <ele>262.1</ele>
        <time>2014-03-03T13:25:12Z</time>
      </trkpt>
      <trkpt lat="43.85243" lon="3.86731">
        <ele>261.62</ele>
        <time>2014-03-03T13:25:24Z</time>
      </trkpt>
      <trkpt lat="43.85248" lon="3.86721">
        <ele>260.17</ele>
        <time>2014-03-03T13:25:38Z</time>
      </trkpt>
      <trkpt lat="43.85255" lon="3.86722">
        <ele>259.21</ele>
        <time>2014-03-03T13:25:48Z</time>
      </trkpt>
      <trkpt lat="43.85257" lon="3.86722">
        <ele>258.73</ele>
        <time>2014-03-03T13:25:51Z</time>
      </trkpt>
      <trkpt lat="43.85265" lon="3.86714">
        <ele>258.25</ele>
        <time>2014-03-03T13:26:03Z</time>
      </trkpt>
      <trkpt lat="43.8527" lon="3.86703">
        <ele>257.29</ele>
        <time>2014-03-03T13:26:16Z</time>
      </trkpt>
      <trkpt lat="43.8527" lon="3.86704">
        <ele>257.29</ele>
        <time>2014-03-03T13:26:21Z</time>
      </trkpt>
      <trkpt lat="43.85275" lon="3.86705">
        <ele>257.29</ele>
        <time>2014-03-03T13:26:32Z</time>
      </trkpt>
      <trkpt lat="43.85275" lon="3.86705">
        <ele>261.14</ele>
        <time>2014-03-03T13:26:34Z</time>
      </trkpt>
      <trkpt lat="43.85275" lon="3.86704">
        <ele>257.77</ele>
        <time>2014-03-03T13:26:35Z</time>
      </trkpt>
      <trkpt lat="43.85272" lon="3.86703">
        <ele>255.37</ele>
        <time>2014-03-03T13:26:49Z</time>
      </trkpt>
      <trkpt lat="43.85271" lon="3.86699">
        <ele>254.89</ele>
        <time>2014-03-03T13:27:00Z</time>
      </trkpt>
      <trkpt lat="43.85275" lon="3.86702">
        <ele>254.89</ele>
        <time>2014-03-03T13:27:19Z</time>
      </trkpt>
      <trkpt lat="43.85279" lon="3.86699">
        <ele>254.89</ele>
        <time>2014-03-03T13:27:35Z</time>
      </trkpt>
      <trkpt lat="43.85284" lon="3.86692">
        <ele>254.41</ele>
        <time>2014-03-03T13:27:48Z</time>
      </trkpt>
      <trkpt lat="43.85286" lon="3.86691">
        <ele>253.44</ele>
        <time>2014-03-03T13:28:05Z</time>
      </trkpt>
      <trkpt lat="43.85288" lon="3.86693">
        <ele>254.41</ele>
        <time>2014-03-03T13:28:39Z</time>
      </trkpt>
      <trkpt lat="43.85292" lon="3.86695">
        <ele>256.81</ele>
        <time>2014-03-03T13:29:05Z</time>
      </trkpt>
      <trkpt lat="43.85296" lon="3.86693">
        <ele>253.93</ele>
        <time>2014-03-03T13:29:19Z</time>
      </trkpt>
      <trkpt lat="43.85296" lon="3.86692">
        <ele>253.44</ele>
        <time>2014-03-03T13:29:37Z</time>
      </trkpt>
      <trkpt lat="43.85295" lon="3.86688">
        <ele>252</ele>
        <time>2014-03-03T13:29:57Z</time>
      </trkpt>
      <trkpt lat="43.85298" lon="3.86685">
        <ele>250.56</ele>
        <time>2014-03-03T13:30:17Z</time>
      </trkpt>
      <trkpt lat="43.85302" lon="3.86688">
        <ele>250.56</ele>
        <time>2014-03-03T13:30:22Z</time>
      </trkpt>
      <trkpt lat="43.85306" lon="3.86691">
        <ele>250.56</ele>
        <time>2014-03-03T13:30:34Z</time>
      </trkpt>
      <trkpt lat="43.85308" lon="3.8669">
        <ele>250.56</ele>
        <time>2014-03-03T13:30:36Z</time>
      </trkpt>
      <trkpt lat="43.85315" lon="3.86693">
        <ele>249.6</ele>
        <time>2014-03-03T13:30:48Z</time>
      </trkpt>
      <trkpt lat="43.85314" lon="3.86698">
        <ele>249.6</ele>
        <time>2014-03-03T13:30:57Z</time>
      </trkpt>
      <trkpt lat="43.85313" lon="3.86701">
        <ele>248.64</ele>
        <time>2014-03-03T13:31:15Z</time>
      </trkpt>
      <trkpt lat="43.85319" lon="3.867">
        <ele>249.12</ele>
        <time>2014-03-03T13:31:30Z</time>
      </trkpt>
      <trkpt lat="43.85319" lon="3.86704">
        <ele>249.6</ele>
        <time>2014-03-03T13:31:41Z</time>
      </trkpt>
      <trkpt lat="43.85321" lon="3.86707">
        <ele>252</ele>
        <time>2014-03-03T13:31:44Z</time>
      </trkpt>
      <trkpt lat="43.85326" lon="3.86703">
        <ele>251.04</ele>
        <time>2014-03-03T13:31:56Z</time>
      </trkpt>
      <trkpt lat="43.85327" lon="3.86699">
        <ele>249.12</ele>
        <time>2014-03-03T13:32:12Z</time>
      </trkpt>
      <trkpt lat="43.85325" lon="3.86696">
        <ele>249.12</ele>
        <time>2014-03-03T13:32:31Z</time>
      </trkpt>
      <trkpt lat="43.85328" lon="3.86694">
        <ele>247.2</ele>
        <time>2014-03-03T13:32:51Z</time>
      </trkpt>
      <trkpt lat="43.85329" lon="3.86692">
        <ele>246.23</ele>
        <time>2014-03-03T13:33:08Z</time>
      </trkpt>
      <trkpt lat="43.85333" lon="3.86693">
        <ele>245.75</ele>
        <time>2014-03-03T13:33:26Z</time>
      </trkpt>
      <trkpt lat="43.85342" lon="3.86694">
        <ele>245.75</ele>
        <time>2014-03-03T13:33:40Z</time>
      </trkpt>
      <trkpt lat="43.85343" lon="3.86695">
        <ele>245.27</ele>
        <time>2014-03-03T13:33:42Z</time>
      </trkpt>
      <trkpt lat="43.8535" lon="3.86702">
        <ele>244.79</ele>
        <time>2014-03-03T13:33:53Z</time>
      </trkpt>
      <trkpt lat="43.85359" lon="3.86703">
        <ele>244.31</ele>
        <time>2014-03-03T13:34:04Z</time>
      </trkpt>
      <trkpt lat="43.85363" lon="3.86701">
        <ele>242.39</ele>
        <time>2014-03-03T13:34:16Z</time>
      </trkpt>
      <trkpt lat="43.85366" lon="3.86707">
        <ele>246.23</ele>
        <time>2014-03-03T13:34:30Z</time>
      </trkpt>
      <trkpt lat="43.85367" lon="3.86708">
        <ele>243.83</ele>
        <time>2014-03-03T13:34:32Z</time>
      </trkpt>
      <trkpt lat="43.85378" lon="3.86705">
        <ele>242.39</ele>
        <time>2014-03-03T13:34:46Z</time>
      </trkpt>
      <trkpt lat="43.8539" lon="3.86709">
        <ele>241.43</ele>
        <time>2014-03-03T13:35:01Z</time>
      </trkpt>
      <trkpt lat="43.85396" lon="3.86704">
        <ele>239.99</ele>
        <time>2014-03-03T13:35:12Z</time>
      </trkpt>
      <trkpt lat="43.85399" lon="3.86703">
        <ele>240.95</ele>
        <time>2014-03-03T13:35:25Z</time>
      </trkpt>
      <trkpt lat="43.85404" lon="3.86701">
        <ele>240.47</ele>
        <time>2014-03-03T13:35:34Z</time>
      </trkpt>
      <trkpt lat="43.85411" lon="3.86701">
        <ele>239.51</ele>
        <time>2014-03-03T13:35:46Z</time>
      </trkpt>
      <trkpt lat="43.85421" lon="3.867">
        <ele>239.02</ele>
        <time>2014-03-03T13:35:59Z</time>
      </trkpt>
      <trkpt lat="43.85428" lon="3.86697">
        <ele>239.02</ele>
        <time>2014-03-03T13:36:15Z</time>
      </trkpt>
      <trkpt lat="43.85435" lon="3.86695">
        <ele>238.06</ele>
        <time>2014-03-03T13:36:27Z</time>
      </trkpt>
      <trkpt lat="43.85443" lon="3.86703">
        <ele>238.06</ele>
        <time>2014-03-03T13:36:41Z</time>
      </trkpt>
      <trkpt lat="43.85446" lon="3.86705">
        <ele>237.1</ele>
        <time>2014-03-03T13:36:55Z</time>
      </trkpt>
      <trkpt lat="43.85449" lon="3.86703">
        <ele>236.62</ele>
        <time>2014-03-03T13:37:12Z</time>
      </trkpt>
      <trkpt lat="43.85451" lon="3.867">
        <ele>235.66</ele>
        <time>2014-03-03T13:37:28Z</time>
      </trkpt>
      <trkpt lat="43.85454" lon="3.86696">
        <ele>236.62</ele>
        <time>2014-03-03T13:37:39Z</time>
      </trkpt>
      <trkpt lat="43.85463" lon="3.86701">
        <ele>237.1</ele>
        <time>2014-03-03T13:37:53Z</time>
      </trkpt>
      <trkpt lat="43.85468" lon="3.86705">
        <ele>234.22</ele>
        <time>2014-03-03T13:38:08Z</time>
      </trkpt>
      <trkpt lat="43.85467" lon="3.86705">
        <ele>237.58</ele>
        <time>2014-03-03T13:38:13Z</time>
      </trkpt>
      <trkpt lat="43.85472" lon="3.86703">
        <ele>235.66</ele>
        <time>2014-03-03T13:38:21Z</time>
      </trkpt>
      <trkpt lat="43.85476" lon="3.86699">
        <ele>235.18</ele>
        <time>2014-03-03T13:38:26Z</time>
      </trkpt>
      <trkpt lat="43.85478" lon="3.86685">
        <ele>235.18</ele>
        <time>2014-03-03T13:38:38Z</time>
      </trkpt>
      <trkpt lat="43.85483" lon="3.86684">
        <ele>234.7</ele>
        <time>2014-03-03T13:39:03Z</time>
      </trkpt>
      <trkpt lat="43.85486" lon="3.86681">
        <ele>233.26</ele>
        <time>2014-03-03T13:39:19Z</time>
      </trkpt>
      <trkpt lat="43.85487" lon="3.86681">
        <ele>235.18</ele>
        <time>2014-03-03T13:39:22Z</time>
      </trkpt>
      <trkpt lat="43.85488" lon="3.86683">
        <ele>233.74</ele>
        <time>2014-03-03T13:39:24Z</time>
      </trkpt>
      <trkpt lat="43.8549" lon="3.8669">
        <ele>230.37</ele>
        <time>2014-03-03T13:39:35Z</time>
      </trkpt>
      <trkpt lat="43.85496" lon="3.86691">
        <ele>230.37</ele>
        <time>2014-03-03T13:39:51Z</time>
      </trkpt>
      <trkpt lat="43.855" lon="3.86695">
        <ele>231.33</ele>
        <time>2014-03-03T13:40:02Z</time>
      </trkpt>
      <trkpt lat="43.85502" lon="3.86691">
        <ele>230.85</ele>
        <time>2014-03-03T13:40:20Z</time>
      </trkpt>
      <trkpt lat="43.85502" lon="3.8669">
        <ele>231.33</ele>
        <time>2014-03-03T13:40:44Z</time>
      </trkpt>
      <trkpt lat="43.855" lon="3.86688">
        <ele>230.85</ele>
        <time>2014-03-03T13:41:02Z</time>
      </trkpt>
      <trkpt lat="43.85499" lon="3.86688">
        <ele>230.85</ele>
        <time>2014-03-03T13:41:20Z</time>
      </trkpt>
      <trkpt lat="43.855" lon="3.86686">
        <ele>230.85</ele>
        <time>2014-03-03T13:41:47Z</time>
      </trkpt>
      <trkpt lat="43.85511" lon="3.86692">
        <ele>229.89</ele>
        <time>2014-03-03T13:41:59Z</time>
      </trkpt>
      <trkpt lat="43.85512" lon="3.86693">
        <ele>230.85</ele>
        <time>2014-03-03T13:42:17Z</time>
      </trkpt>
      <trkpt lat="43.85518" lon="3.86696">
        <ele>229.41</ele>
        <time>2014-03-03T13:42:28Z</time>
      </trkpt>
      <trkpt lat="43.85525" lon="3.86695">
        <ele>229.41</ele>
        <time>2014-03-03T13:42:38Z</time>
      </trkpt>
      <trkpt lat="43.85534" lon="3.86688">
        <ele>229.41</ele>
        <time>2014-03-03T13:42:52Z</time>
      </trkpt>
      <trkpt lat="43.85541" lon="3.86682">
        <ele>228.93</ele>
        <time>2014-03-03T13:43:02Z</time>
      </trkpt>
      <trkpt lat="43.85541" lon="3.86688">
        <ele>229.41</ele>
        <time>2014-03-03T13:43:06Z</time>
      </trkpt>
      <trkpt lat="43.85544" lon="3.86692">
        <ele>228.93</ele>
        <time>2014-03-03T13:43:10Z</time>
      </trkpt>
      <trkpt lat="43.8555" lon="3.86694">
        <ele>229.89</ele>
        <time>2014-03-03T13:43:14Z</time>
      </trkpt>
      <trkpt lat="43.85562" lon="3.86694">
        <ele>229.89</ele>
        <time>2014-03-03T13:43:27Z</time>
      </trkpt>
      <trkpt lat="43.85563" lon="3.86693">
        <ele>229.89</ele>
        <time>2014-03-03T13:43:32Z</time>
      </trkpt>
      <trkpt lat="43.85561" lon="3.86693">
        <ele>229.89</ele>
        <time>2014-03-03T13:43:34Z</time>
      </trkpt>
      <trkpt lat="43.85551" lon="3.86693">
        <ele>229.89</ele>
        <time>2014-03-03T13:43:45Z</time>
      </trkpt>
      <trkpt lat="43.85545" lon="3.86694">
        <ele>229.41</ele>
        <time>2014-03-03T13:43:51Z</time>
      </trkpt>
      <trkpt lat="43.85541" lon="3.86686">
        <ele>229.41</ele>
        <time>2014-03-03T13:43:59Z</time>
      </trkpt>
      <trkpt lat="43.85541" lon="3.86674">
        <ele>229.89</ele>
        <time>2014-03-03T13:44:05Z</time>
      </trkpt>
      <trkpt lat="43.85554" lon="3.86668">
        <ele>229.41</ele>
        <time>2014-03-03T13:44:17Z</time>
      </trkpt>
      <trkpt lat="43.85556" lon="3.8667">
        <ele>229.89</ele>
        <time>2014-03-03T13:44:19Z</time>
      </trkpt>
      <trkpt lat="43.85561" lon="3.86669">
        <ele>231.33</ele>
        <time>2014-03-03T13:44:24Z</time>
      </trkpt>
      <trkpt lat="43.8557" lon="3.86669">
        <ele>230.85</ele>
        <time>2014-03-03T13:44:37Z</time>
      </trkpt>
      <trkpt lat="43.8558" lon="3.86663">
        <ele>230.85</ele>
        <time>2014-03-03T13:44:51Z</time>
      </trkpt>
      <trkpt lat="43.85592" lon="3.8666">
        <ele>228.45</ele>
        <time>2014-03-03T13:45:04Z</time>
      </trkpt>
      <trkpt lat="43.85597" lon="3.86664">
        <ele>228.93</ele>
        <time>2014-03-03T13:45:18Z</time>
      </trkpt>
      <trkpt lat="43.85601" lon="3.86669">
        <ele>229.41</ele>
        <time>2014-03-03T13:45:26Z</time>
      </trkpt>
      <trkpt lat="43.85604" lon="3.86675">
        <ele>229.41</ele>
        <time>2014-03-03T13:45:38Z</time>
      </trkpt>
      <trkpt lat="43.85602" lon="3.86672">
        <ele>229.41</ele>
        <time>2014-03-03T13:45:55Z</time>
      </trkpt>
      <trkpt lat="43.85598" lon="3.86669">
        <ele>230.37</ele>
        <time>2014-03-03T13:46:17Z</time>
      </trkpt>
      <trkpt lat="43.856" lon="3.86669">
        <ele>230.37</ele>
        <time>2014-03-03T13:46:30Z</time>
      </trkpt>
      <trkpt lat="43.85602" lon="3.86669">
        <ele>230.37</ele>
        <time>2014-03-03T13:46:50Z</time>
      </trkpt>
      <trkpt lat="43.85601" lon="3.86671">
        <ele>230.37</ele>
        <time>2014-03-03T13:47:10Z</time>
      </trkpt>
      <trkpt lat="43.85597" lon="3.8667">
        <ele>229.89</ele>
        <time>2014-03-03T13:47:26Z</time>
      </trkpt>
      <trkpt lat="43.85598" lon="3.8667">
        <ele>229.89</ele>
        <time>2014-03-03T13:47:44Z</time>
      </trkpt>
      <trkpt lat="43.85599" lon="3.8667">
        <ele>229.89</ele>
        <time>2014-03-03T13:48:05Z</time>
      </trkpt>
      <trkpt lat="43.85598" lon="3.86669">
        <ele>230.37</ele>
        <time>2014-03-03T13:48:23Z</time>
      </trkpt>
      <trkpt lat="43.85595" lon="3.86666">
        <ele>230.37</ele>
        <time>2014-03-03T13:48:34Z</time>
      </trkpt>
      <trkpt lat="43.85595" lon="3.86666">
        <ele>229.41</ele>
        <time>2014-03-03T13:48:47Z</time>
      </trkpt>
      <trkpt lat="43.85592" lon="3.86663">
        <ele>229.89</ele>
        <time>2014-03-03T13:48:57Z</time>
      </trkpt>
      <trkpt lat="43.85591" lon="3.86663">
        <ele>229.89</ele>
        <time>2014-03-03T13:48:58Z</time>
      </trkpt>
      <trkpt lat="43.85584" lon="3.86662">
        <ele>230.85</ele>
        <time>2014-03-03T13:49:05Z</time>
      </trkpt>
      <trkpt lat="43.85576" lon="3.86665">
        <ele>230.85</ele>
        <time>2014-03-03T13:49:15Z</time>
      </trkpt>
      <trkpt lat="43.85569" lon="3.8667">
        <ele>231.33</ele>
        <time>2014-03-03T13:49:27Z</time>
      </trkpt>
      <trkpt lat="43.85561" lon="3.86673">
        <ele>231.33</ele>
        <time>2014-03-03T13:49:39Z</time>
      </trkpt>
      <trkpt lat="43.85549" lon="3.86672">
        <ele>230.37</ele>
        <time>2014-03-03T13:49:52Z</time>
      </trkpt>
      <trkpt lat="43.85542" lon="3.86677">
        <ele>229.89</ele>
        <time>2014-03-03T13:50:00Z</time>
      </trkpt>
      <trkpt lat="43.8554" lon="3.86682">
        <ele>229.89</ele>
        <time>2014-03-03T13:50:04Z</time>
      </trkpt>
      <trkpt lat="43.8554" lon="3.8669">
        <ele>229.89</ele>
        <time>2014-03-03T13:50:09Z</time>
      </trkpt>
      <trkpt lat="43.85548" lon="3.86696">
        <ele>230.37</ele>
        <time>2014-03-03T13:50:17Z</time>
      </trkpt>
      <trkpt lat="43.85551" lon="3.86695">
        <ele>230.85</ele>
        <time>2014-03-03T13:50:21Z</time>
      </trkpt>
      <trkpt lat="43.85554" lon="3.86695">
        <ele>230.85</ele>
        <time>2014-03-03T13:50:25Z</time>
      </trkpt>
      <trkpt lat="43.85558" lon="3.86696">
        <ele>230.85</ele>
        <time>2014-03-03T13:50:29Z</time>
      </trkpt>
      <trkpt lat="43.85564" lon="3.86707">
        <ele>233.26</ele>
        <time>2014-03-03T13:50:42Z</time>
      </trkpt>
      <trkpt lat="43.85569" lon="3.86712">
        <ele>235.18</ele>
        <time>2014-03-03T13:50:54Z</time>
      </trkpt>
      <trkpt lat="43.85576" lon="3.86719">
        <ele>235.66</ele>
        <time>2014-03-03T13:51:08Z</time>
      </trkpt>
      <trkpt lat="43.85577" lon="3.86723">
        <ele>236.14</ele>
        <time>2014-03-03T13:51:18Z</time>
      </trkpt>
      <trkpt lat="43.8558" lon="3.86735">
        <ele>237.58</ele>
        <time>2014-03-03T13:51:29Z</time>
      </trkpt>
      <trkpt lat="43.85587" lon="3.86745">
        <ele>237.58</ele>
        <time>2014-03-03T13:51:42Z</time>
      </trkpt>
      <trkpt lat="43.85592" lon="3.86747">
        <ele>237.1</ele>
        <time>2014-03-03T13:51:51Z</time>
      </trkpt>
      <trkpt lat="43.85596" lon="3.86746">
        <ele>235.18</ele>
        <time>2014-03-03T13:51:59Z</time>
      </trkpt>
      <trkpt lat="43.85598" lon="3.86747">
        <ele>234.7</ele>
        <time>2014-03-03T13:52:04Z</time>
      </trkpt>
      <trkpt lat="43.856" lon="3.86753">
        <ele>235.18</ele>
        <time>2014-03-03T13:52:14Z</time>
      </trkpt>
      <trkpt lat="43.8561" lon="3.86759">
        <ele>236.14</ele>
        <time>2014-03-03T13:52:28Z</time>
      </trkpt>
      <trkpt lat="43.85614" lon="3.86763">
        <ele>237.1</ele>
        <time>2014-03-03T13:52:36Z</time>
      </trkpt>
      <trkpt lat="43.85623" lon="3.86759">
        <ele>235.66</ele>
        <time>2014-03-03T13:52:47Z</time>
      </trkpt>
      <trkpt lat="43.85632" lon="3.86761">
        <ele>232.78</ele>
        <time>2014-03-03T13:53:01Z</time>
      </trkpt>
      <trkpt lat="43.85635" lon="3.86755">
        <ele>230.85</ele>
        <time>2014-03-03T13:53:06Z</time>
      </trkpt>
      <trkpt lat="43.85636" lon="3.86748">
        <ele>229.89</ele>
        <time>2014-03-03T13:53:16Z</time>
      </trkpt>
      <trkpt lat="43.85635" lon="3.86747">
        <ele>229.89</ele>
        <time>2014-03-03T13:53:29Z</time>
      </trkpt>
      <trkpt lat="43.85634" lon="3.86747">
        <ele>230.37</ele>
        <time>2014-03-03T13:53:31Z</time>
      </trkpt>
      <trkpt lat="43.85633" lon="3.8675">
        <ele>229.89</ele>
        <time>2014-03-03T13:53:49Z</time>
      </trkpt>
      <trkpt lat="43.85637" lon="3.86752">
        <ele>231.33</ele>
        <time>2014-03-03T13:54:07Z</time>
      </trkpt>
      <trkpt lat="43.85638" lon="3.86752">
        <ele>230.85</ele>
        <time>2014-03-03T13:54:22Z</time>
      </trkpt>
      <trkpt lat="43.85638" lon="3.86752">
        <ele>230.85</ele>
        <time>2014-03-03T13:54:34Z</time>
      </trkpt>
      <trkpt lat="43.85639" lon="3.86753">
        <ele>230.85</ele>
        <time>2014-03-03T13:54:37Z</time>
      </trkpt>
      <trkpt lat="43.85639" lon="3.86758">
        <ele>230.85</ele>
        <time>2014-03-03T13:54:43Z</time>
      </trkpt>
      <trkpt lat="43.8564" lon="3.86763">
        <ele>230.85</ele>
        <time>2014-03-03T13:54:47Z</time>
      </trkpt>
      <trkpt lat="43.85641" lon="3.8677">
        <ele>231.33</ele>
        <time>2014-03-03T13:54:52Z</time>
      </trkpt>
      <trkpt lat="43.85646" lon="3.86783">
        <ele>230.37</ele>
        <time>2014-03-03T13:55:04Z</time>
      </trkpt>
      <trkpt lat="43.85649" lon="3.86789">
        <ele>230.37</ele>
        <time>2014-03-03T13:55:09Z</time>
      </trkpt>
      <trkpt lat="43.85651" lon="3.86794">
        <ele>230.85</ele>
        <time>2014-03-03T13:55:13Z</time>
      </trkpt>
      <trkpt lat="43.85653" lon="3.86805">
        <ele>231.33</ele>
        <time>2014-03-03T13:55:22Z</time>
      </trkpt>
      <trkpt lat="43.85655" lon="3.86816">
        <ele>231.81</ele>
        <time>2014-03-03T13:55:31Z</time>
      </trkpt>
      <trkpt lat="43.85656" lon="3.86818">
        <ele>231.81</ele>
        <time>2014-03-03T13:55:33Z</time>
      </trkpt>
      <trkpt lat="43.85657" lon="3.8683">
        <ele>230.85</ele>
        <time>2014-03-03T13:55:42Z</time>
      </trkpt>
      <trkpt lat="43.85655" lon="3.86837">
        <ele>231.33</ele>
        <time>2014-03-03T13:55:50Z</time>
      </trkpt>
      <trkpt lat="43.85655" lon="3.86845">
        <ele>228.45</ele>
        <time>2014-03-03T13:56:02Z</time>
      </trkpt>
      <trkpt lat="43.8566" lon="3.86851">
        <ele>229.89</ele>
        <time>2014-03-03T13:56:09Z</time>
      </trkpt>
      <trkpt lat="43.85665" lon="3.86851">
        <ele>230.37</ele>
        <time>2014-03-03T13:56:16Z</time>
      </trkpt>
      <trkpt lat="43.85669" lon="3.86851">
        <ele>230.37</ele>
        <time>2014-03-03T13:56:20Z</time>
      </trkpt>
      <trkpt lat="43.85678" lon="3.86856">
        <ele>230.37</ele>
        <time>2014-03-03T13:56:29Z</time>
      </trkpt>
      <trkpt lat="43.85688" lon="3.86864">
        <ele>231.81</ele>
        <time>2014-03-03T13:56:42Z</time>
      </trkpt>
      <trkpt lat="43.8569" lon="3.86872">
        <ele>231.81</ele>
        <time>2014-03-03T13:56:55Z</time>
      </trkpt>
      <trkpt lat="43.85694" lon="3.8688">
        <ele>231.81</ele>
        <time>2014-03-03T13:57:03Z</time>
      </trkpt>
      <trkpt lat="43.85694" lon="3.86887">
        <ele>231.81</ele>
        <time>2014-03-03T13:57:15Z</time>
      </trkpt>
      <trkpt lat="43.85693" lon="3.86889">
        <ele>231.33</ele>
        <time>2014-03-03T13:57:19Z</time>
      </trkpt>
      <trkpt lat="43.85692" lon="3.86894">
        <ele>231.33</ele>
        <time>2014-03-03T13:57:23Z</time>
      </trkpt>
      <trkpt lat="43.85689" lon="3.86899">
        <ele>231.81</ele>
        <time>2014-03-03T13:57:27Z</time>
      </trkpt>
      <trkpt lat="43.85681" lon="3.86912">
        <ele>232.3</ele>
        <time>2014-03-03T13:57:38Z</time>
      </trkpt>
      <trkpt lat="43.85674" lon="3.86925">
        <ele>233.26</ele>
        <time>2014-03-03T13:57:50Z</time>
      </trkpt>
      <trkpt lat="43.85673" lon="3.86926">
        <ele>233.26</ele>
        <time>2014-03-03T13:57:51Z</time>
      </trkpt>
      <trkpt lat="43.8567" lon="3.86932">
        <ele>232.78</ele>
        <time>2014-03-03T13:57:58Z</time>
      </trkpt>
      <trkpt lat="43.85664" lon="3.86944">
        <ele>233.26</ele>
        <time>2014-03-03T13:58:07Z</time>
      </trkpt>
      <trkpt lat="43.85659" lon="3.86964">
        <ele>233.74</ele>
        <time>2014-03-03T13:58:21Z</time>
      </trkpt>
      <trkpt lat="43.85657" lon="3.86966">
        <ele>233.74</ele>
        <time>2014-03-03T13:58:23Z</time>
      </trkpt>
      <trkpt lat="43.85647" lon="3.86973">
        <ele>233.26</ele>
        <time>2014-03-03T13:58:35Z</time>
      </trkpt>
      <trkpt lat="43.85646" lon="3.86978">
        <ele>234.22</ele>
        <time>2014-03-03T13:58:39Z</time>
      </trkpt>
      <trkpt lat="43.85649" lon="3.86986">
        <ele>234.22</ele>
        <time>2014-03-03T13:58:48Z</time>
      </trkpt>
      <trkpt lat="43.85652" lon="3.8699">
        <ele>234.22</ele>
        <time>2014-03-03T13:58:53Z</time>
      </trkpt>
      <trkpt lat="43.85651" lon="3.86995">
        <ele>234.22</ele>
        <time>2014-03-03T13:58:57Z</time>
      </trkpt>
      <trkpt lat="43.85647" lon="3.87001">
        <ele>234.22</ele>
        <time>2014-03-03T13:59:05Z</time>
      </trkpt>
      <trkpt lat="43.85647" lon="3.87009">
        <ele>232.78</ele>
        <time>2014-03-03T13:59:17Z</time>
      </trkpt>
      <trkpt lat="43.85649" lon="3.87013">
        <ele>236.14</ele>
        <time>2014-03-03T13:59:27Z</time>
      </trkpt>
      <trkpt lat="43.85653" lon="3.87014">
        <ele>236.62</ele>
        <time>2014-03-03T13:59:41Z</time>
      </trkpt>
      <trkpt lat="43.85658" lon="3.87014">
        <ele>236.14</ele>
        <time>2014-03-03T13:59:51Z</time>
      </trkpt>
      <trkpt lat="43.85664" lon="3.87014">
        <ele>234.7</ele>
        <time>2014-03-03T14:00:00Z</time>
      </trkpt>
      <trkpt lat="43.85671" lon="3.87015">
        <ele>234.7</ele>
        <time>2014-03-03T14:00:06Z</time>
      </trkpt>
      <trkpt lat="43.85682" lon="3.87018">
        <ele>233.74</ele>
        <time>2014-03-03T14:00:19Z</time>
      </trkpt>
      <trkpt lat="43.85688" lon="3.87027">
        <ele>233.74</ele>
        <time>2014-03-03T14:00:32Z</time>
      </trkpt>
      <trkpt lat="43.8569" lon="3.87034">
        <ele>234.22</ele>
        <time>2014-03-03T14:00:44Z</time>
      </trkpt>
      <trkpt lat="43.8569" lon="3.87034">
        <ele>233.74</ele>
        <time>2014-03-03T14:01:00Z</time>
      </trkpt>
      <trkpt lat="43.85691" lon="3.87034">
        <ele>233.26</ele>
        <time>2014-03-03T14:01:18Z</time>
      </trkpt>
      <trkpt lat="43.85694" lon="3.87042">
        <ele>231.33</ele>
        <time>2014-03-03T14:01:31Z</time>
      </trkpt>
      <trkpt lat="43.85695" lon="3.87046">
        <ele>230.37</ele>
        <time>2014-03-03T14:01:36Z</time>
      </trkpt>
      <trkpt lat="43.85697" lon="3.8705">
        <ele>230.37</ele>
        <time>2014-03-03T14:01:40Z</time>
      </trkpt>
      <trkpt lat="43.85698" lon="3.87057">
        <ele>229.41</ele>
        <time>2014-03-03T14:01:54Z</time>
      </trkpt>
      <trkpt lat="43.857" lon="3.87064">
        <ele>228.45</ele>
        <time>2014-03-03T14:02:01Z</time>
      </trkpt>
      <trkpt lat="43.85705" lon="3.8707">
        <ele>225.09</ele>
        <time>2014-03-03T14:02:12Z</time>
      </trkpt>
      <trkpt lat="43.85711" lon="3.87074">
        <ele>222.68</ele>
        <time>2014-03-03T14:02:26Z</time>
      </trkpt>
      <trkpt lat="43.85713" lon="3.8708">
        <ele>221.24</ele>
        <time>2014-03-03T14:02:35Z</time>
      </trkpt>
      <trkpt lat="43.85713" lon="3.8709">
        <ele>221.24</ele>
        <time>2014-03-03T14:02:47Z</time>
      </trkpt>
      <trkpt lat="43.85714" lon="3.87091">
        <ele>221.24</ele>
        <time>2014-03-03T14:02:50Z</time>
      </trkpt>
      <trkpt lat="43.85717" lon="3.871">
        <ele>220.28</ele>
        <time>2014-03-03T14:03:01Z</time>
      </trkpt>
      <trkpt lat="43.8572" lon="3.87106">
        <ele>220.76</ele>
        <time>2014-03-03T14:03:09Z</time>
      </trkpt>
      <trkpt lat="43.8572" lon="3.87114">
        <ele>220.76</ele>
        <time>2014-03-03T14:03:17Z</time>
      </trkpt>
      <trkpt lat="43.8572" lon="3.87118">
        <ele>220.28</ele>
        <time>2014-03-03T14:03:20Z</time>
      </trkpt>
      <trkpt lat="43.8572" lon="3.87123">
        <ele>219.32</ele>
        <time>2014-03-03T14:03:29Z</time>
      </trkpt>
      <trkpt lat="43.85722" lon="3.87132">
        <ele>217.88</ele>
        <time>2014-03-03T14:03:41Z</time>
      </trkpt>
      <trkpt lat="43.85723" lon="3.87137">
        <ele>219.32</ele>
        <time>2014-03-03T14:03:52Z</time>
      </trkpt>
      <trkpt lat="43.8572" lon="3.87147">
        <ele>220.76</ele>
        <time>2014-03-03T14:04:05Z</time>
      </trkpt>
      <trkpt lat="43.85719" lon="3.87153">
        <ele>222.68</ele>
        <time>2014-03-03T14:04:14Z</time>
      </trkpt>
      <trkpt lat="43.85718" lon="3.87158">
        <ele>221.72</ele>
        <time>2014-03-03T14:04:20Z</time>
      </trkpt>
      <trkpt lat="43.85715" lon="3.87159">
        <ele>221.72</ele>
        <time>2014-03-03T14:04:23Z</time>
      </trkpt>
      <trkpt lat="43.85709" lon="3.87166">
        <ele>224.12</ele>
        <time>2014-03-03T14:04:34Z</time>
      </trkpt>
      <trkpt lat="43.85714" lon="3.87174">
        <ele>224.12</ele>
        <time>2014-03-03T14:04:48Z</time>
      </trkpt>
      <trkpt lat="43.85714" lon="3.87182">
        <ele>223.16</ele>
        <time>2014-03-03T14:04:58Z</time>
      </trkpt>
      <trkpt lat="43.85709" lon="3.87194">
        <ele>223.16</ele>
        <time>2014-03-03T14:05:10Z</time>
      </trkpt>
      <trkpt lat="43.85708" lon="3.87208">
        <ele>222.68</ele>
        <time>2014-03-03T14:05:23Z</time>
      </trkpt>
      <trkpt lat="43.85707" lon="3.87223">
        <ele>222.2</ele>
        <time>2014-03-03T14:05:37Z</time>
      </trkpt>
      <trkpt lat="43.85702" lon="3.87234">
        <ele>221.24</ele>
        <time>2014-03-03T14:05:51Z</time>
      </trkpt>
      <trkpt lat="43.85705" lon="3.87242">
        <ele>220.28</ele>
        <time>2014-03-03T14:06:01Z</time>
      </trkpt>
      <trkpt lat="43.85707" lon="3.87256">
        <ele>219.32</ele>
        <time>2014-03-03T14:06:14Z</time>
      </trkpt>
      <trkpt lat="43.85703" lon="3.87266">
        <ele>217.88</ele>
        <time>2014-03-03T14:06:27Z</time>
      </trkpt>
      <trkpt lat="43.85707" lon="3.87265">
        <ele>217.4</ele>
        <time>2014-03-03T14:06:39Z</time>
      </trkpt>
      <trkpt lat="43.85706" lon="3.87269">
        <ele>215.95</ele>
        <time>2014-03-03T14:06:53Z</time>
      </trkpt>
      <trkpt lat="43.85707" lon="3.87272">
        <ele>215.47</ele>
        <time>2014-03-03T14:07:08Z</time>
      </trkpt>
      <trkpt lat="43.85705" lon="3.87273">
        <ele>214.03</ele>
        <time>2014-03-03T14:07:21Z</time>
      </trkpt>
      <trkpt lat="43.85704" lon="3.87274">
        <ele>213.55</ele>
        <time>2014-03-03T14:07:29Z</time>
      </trkpt>
      <trkpt lat="43.85701" lon="3.87277">
        <ele>214.51</ele>
        <time>2014-03-03T14:07:38Z</time>
      </trkpt>
      <trkpt lat="43.85703" lon="3.87287">
        <ele>216.91</ele>
        <time>2014-03-03T14:07:51Z</time>
      </trkpt>
      <trkpt lat="43.85704" lon="3.87288">
        <ele>218.84</ele>
        <time>2014-03-03T14:08:05Z</time>
      </trkpt>
      <trkpt lat="43.85701" lon="3.87288">
        <ele>218.36</ele>
        <time>2014-03-03T14:08:18Z</time>
      </trkpt>
      <trkpt lat="43.85705" lon="3.87294">
        <ele>217.88</ele>
        <time>2014-03-03T14:08:29Z</time>
      </trkpt>
      <trkpt lat="43.85705" lon="3.87294">
        <ele>218.36</ele>
        <time>2014-03-03T14:08:42Z</time>
      </trkpt>
      <trkpt lat="43.85705" lon="3.87294">
        <ele>218.36</ele>
        <time>2014-03-03T14:09:04Z</time>
      </trkpt>
      <trkpt lat="43.85705" lon="3.87293">
        <ele>218.84</ele>
        <time>2014-03-03T14:09:22Z</time>
      </trkpt>
      <trkpt lat="43.85704" lon="3.8729">
        <ele>218.36</ele>
        <time>2014-03-03T14:09:58Z</time>
      </trkpt>
      <trkpt lat="43.85706" lon="3.87293">
        <ele>218.36</ele>
        <time>2014-03-03T14:10:20Z</time>
      </trkpt>
      <trkpt lat="43.85707" lon="3.87291">
        <ele>218.36</ele>
        <time>2014-03-03T14:10:38Z</time>
      </trkpt>
      <trkpt lat="43.85704" lon="3.87291">
        <ele>217.88</ele>
        <time>2014-03-03T14:10:59Z</time>
      </trkpt>
      <trkpt lat="43.85706" lon="3.87291">
        <ele>216.91</ele>
        <time>2014-03-03T14:11:17Z</time>
      </trkpt>
      <trkpt lat="43.85705" lon="3.87292">
        <ele>218.36</ele>
        <time>2014-03-03T14:11:32Z</time>
      </trkpt>
      <trkpt lat="43.85704" lon="3.87294">
        <ele>218.84</ele>
        <time>2014-03-03T14:11:51Z</time>
      </trkpt>
      <trkpt lat="43.85704" lon="3.87294">
        <ele>217.88</ele>
        <time>2014-03-03T14:11:53Z</time>
      </trkpt>
      <trkpt lat="43.85707" lon="3.87293">
        <ele>218.36</ele>
        <time>2014-03-03T14:12:08Z</time>
      </trkpt>
      <trkpt lat="43.85706" lon="3.87292">
        <ele>216.43</ele>
        <time>2014-03-03T14:12:21Z</time>
      </trkpt>
      <trkpt lat="43.85705" lon="3.87292">
        <ele>218.36</ele>
        <time>2014-03-03T14:12:26Z</time>
      </trkpt>
      <trkpt lat="43.85708" lon="3.87293">
        <ele>218.36</ele>
        <time>2014-03-03T14:12:41Z</time>
      </trkpt>
      <trkpt lat="43.85719" lon="3.87302">
        <ele>216.43</ele>
        <time>2014-03-03T14:12:54Z</time>
      </trkpt>
      <trkpt lat="43.85721" lon="3.87299">
        <ele>215.95</ele>
        <time>2014-03-03T14:12:57Z</time>
      </trkpt>
      <trkpt lat="43.85726" lon="3.87295">
        <ele>214.51</ele>
        <time>2014-03-03T14:13:02Z</time>
      </trkpt>
      <trkpt lat="43.85731" lon="3.87295">
        <ele>214.03</ele>
        <time>2014-03-03T14:13:07Z</time>
      </trkpt>
      <trkpt lat="43.85738" lon="3.87294">
        <ele>212.11</ele>
        <time>2014-03-03T14:13:12Z</time>
      </trkpt>
      <trkpt lat="43.85749" lon="3.87302">
        <ele>210.19</ele>
        <time>2014-03-03T14:13:24Z</time>
      </trkpt>
      <trkpt lat="43.85755" lon="3.87304">
        <ele>210.19</ele>
        <time>2014-03-03T14:13:29Z</time>
      </trkpt>
      <trkpt lat="43.85758" lon="3.8731">
        <ele>209.22</ele>
        <time>2014-03-03T14:13:35Z</time>
      </trkpt>
      <trkpt lat="43.85768" lon="3.87317">
        <ele>207.78</ele>
        <time>2014-03-03T14:13:47Z</time>
      </trkpt>
      <trkpt lat="43.85772" lon="3.87323">
        <ele>207.78</ele>
        <time>2014-03-03T14:13:51Z</time>
      </trkpt>
      <trkpt lat="43.85774" lon="3.87324">
        <ele>207.78</ele>
        <time>2014-03-03T14:13:53Z</time>
      </trkpt>
      <trkpt lat="43.85778" lon="3.87318">
        <ele>206.34</ele>
        <time>2014-03-03T14:14:00Z</time>
      </trkpt>
      <trkpt lat="43.85791" lon="3.87326">
        <ele>205.38</ele>
        <time>2014-03-03T14:14:12Z</time>
      </trkpt>
      <trkpt lat="43.85795" lon="3.87328">
        <ele>205.38</ele>
        <time>2014-03-03T14:14:24Z</time>
      </trkpt>
      <trkpt lat="43.85799" lon="3.87328">
        <ele>204.9</ele>
        <time>2014-03-03T14:14:31Z</time>
      </trkpt>
      <trkpt lat="43.85804" lon="3.87328">
        <ele>203.46</ele>
        <time>2014-03-03T14:14:38Z</time>
      </trkpt>
      <trkpt lat="43.85813" lon="3.87333">
        <ele>203.46</ele>
        <time>2014-03-03T14:14:50Z</time>
      </trkpt>
      <trkpt lat="43.85823" lon="3.87337">
        <ele>201.05</ele>
        <time>2014-03-03T14:15:03Z</time>
      </trkpt>
      <trkpt lat="43.85829" lon="3.87338">
        <ele>198.65</ele>
        <time>2014-03-03T14:15:10Z</time>
      </trkpt>
      <trkpt lat="43.85836" lon="3.8734">
        <ele>197.21</ele>
        <time>2014-03-03T14:15:19Z</time>
      </trkpt>
      <trkpt lat="43.85838" lon="3.87339">
        <ele>197.21</ele>
        <time>2014-03-03T14:15:21Z</time>
      </trkpt>
      <trkpt lat="43.85849" lon="3.87342">
        <ele>196.73</ele>
        <time>2014-03-03T14:15:34Z</time>
      </trkpt>
      <trkpt lat="43.85849" lon="3.87341">
        <ele>195.77</ele>
        <time>2014-03-03T14:15:35Z</time>
      </trkpt>
      <trkpt lat="43.85861" lon="3.87337">
        <ele>197.21</ele>
        <time>2014-03-03T14:15:47Z</time>
      </trkpt>
      <trkpt lat="43.85871" lon="3.87338">
        <ele>197.69</ele>
        <time>2014-03-03T14:15:58Z</time>
      </trkpt>
      <trkpt lat="43.85877" lon="3.87344">
        <ele>199.61</ele>
        <time>2014-03-03T14:16:06Z</time>
      </trkpt>
      <trkpt lat="43.85881" lon="3.87345">
        <ele>199.13</ele>
        <time>2014-03-03T14:16:16Z</time>
      </trkpt>
      <trkpt lat="43.85882" lon="3.87344">
        <ele>198.17</ele>
        <time>2014-03-03T14:16:32Z</time>
      </trkpt>
      <trkpt lat="43.85882" lon="3.87344">
        <ele>199.13</ele>
        <time>2014-03-03T14:16:42Z</time>
      </trkpt>
      <trkpt lat="43.85881" lon="3.87348">
        <ele>197.69</ele>
        <time>2014-03-03T14:16:58Z</time>
      </trkpt>
      <trkpt lat="43.8588" lon="3.87349">
        <ele>198.17</ele>
        <time>2014-03-03T14:17:27Z</time>
      </trkpt>
      <trkpt lat="43.85884" lon="3.87342">
        <ele>199.13</ele>
        <time>2014-03-03T14:17:47Z</time>
      </trkpt>
      <trkpt lat="43.85881" lon="3.87344">
        <ele>198.65</ele>
        <time>2014-03-03T14:17:59Z</time>
      </trkpt>
      <trkpt lat="43.85883" lon="3.87349">
        <ele>199.61</ele>
        <time>2014-03-03T14:18:17Z</time>
      </trkpt>
      <trkpt lat="43.85883" lon="3.87347">
        <ele>199.13</ele>
        <time>2014-03-03T14:18:30Z</time>
      </trkpt>
      <trkpt lat="43.85884" lon="3.87348">
        <ele>199.13</ele>
        <time>2014-03-03T14:18:47Z</time>
      </trkpt>
      <trkpt lat="43.85883" lon="3.87348">
        <ele>197.69</ele>
        <time>2014-03-03T14:19:03Z</time>
      </trkpt>
      <trkpt lat="43.8589" lon="3.87358">
        <ele>198.17</ele>
        <time>2014-03-03T14:19:18Z</time>
      </trkpt>
      <trkpt lat="43.85891" lon="3.87365">
        <ele>196.73</ele>
        <time>2014-03-03T14:19:31Z</time>
      </trkpt>
      <trkpt lat="43.85891" lon="3.8737">
        <ele>194.32</ele>
        <time>2014-03-03T14:19:38Z</time>
      </trkpt>
      <trkpt lat="43.8589" lon="3.87372">
        <ele>192.4</ele>
        <time>2014-03-03T14:19:43Z</time>
      </trkpt>
      <trkpt lat="43.85889" lon="3.87375">
        <ele>190.96</ele>
        <time>2014-03-03T14:19:47Z</time>
      </trkpt>
      <trkpt lat="43.85891" lon="3.87389">
        <ele>190.48</ele>
        <time>2014-03-03T14:20:02Z</time>
      </trkpt>
      <trkpt lat="43.85888" lon="3.874">
        <ele>193.36</ele>
        <time>2014-03-03T14:20:12Z</time>
      </trkpt>
      <trkpt lat="43.85887" lon="3.87402">
        <ele>193.36</ele>
        <time>2014-03-03T14:20:13Z</time>
      </trkpt>
      <trkpt lat="43.85882" lon="3.87411">
        <ele>191.44</ele>
        <time>2014-03-03T14:20:23Z</time>
      </trkpt>
      <trkpt lat="43.85885" lon="3.87421">
        <ele>190.48</ele>
        <time>2014-03-03T14:20:32Z</time>
      </trkpt>
      <trkpt lat="43.85885" lon="3.87423">
        <ele>189.52</ele>
        <time>2014-03-03T14:20:34Z</time>
      </trkpt>
      <trkpt lat="43.85885" lon="3.87432">
        <ele>190.96</ele>
        <time>2014-03-03T14:20:43Z</time>
      </trkpt>
      <trkpt lat="43.85885" lon="3.87436">
        <ele>190.48</ele>
        <time>2014-03-03T14:20:46Z</time>
      </trkpt>
      <trkpt lat="43.85883" lon="3.87443">
        <ele>190</ele>
        <time>2014-03-03T14:20:52Z</time>
      </trkpt>
      <trkpt lat="43.85879" lon="3.87449">
        <ele>190</ele>
        <time>2014-03-03T14:20:57Z</time>
      </trkpt>
      <trkpt lat="43.85875" lon="3.87451">
        <ele>189.52</ele>
        <time>2014-03-03T14:21:01Z</time>
      </trkpt>
      <trkpt lat="43.85869" lon="3.87461">
        <ele>189.04</ele>
        <time>2014-03-03T14:21:14Z</time>
      </trkpt>
      <trkpt lat="43.85869" lon="3.87463">
        <ele>188.56</ele>
        <time>2014-03-03T14:21:15Z</time>
      </trkpt>
      <trkpt lat="43.85866" lon="3.87472">
        <ele>186.15</ele>
        <time>2014-03-03T14:21:23Z</time>
      </trkpt>
      <trkpt lat="43.85863" lon="3.87486">
        <ele>188.56</ele>
        <time>2014-03-03T14:21:34Z</time>
      </trkpt>
      <trkpt lat="43.85862" lon="3.87493">
        <ele>188.08</ele>
        <time>2014-03-03T14:21:39Z</time>
      </trkpt>
      <trkpt lat="43.85863" lon="3.87499">
        <ele>188.08</ele>
        <time>2014-03-03T14:21:44Z</time>
      </trkpt>
      <trkpt lat="43.85864" lon="3.87505">
        <ele>187.59</ele>
        <time>2014-03-03T14:21:48Z</time>
      </trkpt>
      <trkpt lat="43.85869" lon="3.87523">
        <ele>186.63</ele>
        <time>2014-03-03T14:22:00Z</time>
      </trkpt>
      <trkpt lat="43.85871" lon="3.8754">
        <ele>186.63</ele>
        <time>2014-03-03T14:22:12Z</time>
      </trkpt>
      <trkpt lat="43.85878" lon="3.87558">
        <ele>187.11</ele>
        <time>2014-03-03T14:22:24Z</time>
      </trkpt>
      <trkpt lat="43.85879" lon="3.87564">
        <ele>187.59</ele>
        <time>2014-03-03T14:22:28Z</time>
      </trkpt>
      <trkpt lat="43.8588" lon="3.87567">
        <ele>187.59</ele>
        <time>2014-03-03T14:22:30Z</time>
      </trkpt>
      <trkpt lat="43.85883" lon="3.8758">
        <ele>188.56</ele>
        <time>2014-03-03T14:22:44Z</time>
      </trkpt>
      <trkpt lat="43.85884" lon="3.87583">
        <ele>190</ele>
        <time>2014-03-03T14:23:04Z</time>
      </trkpt>
      <trkpt lat="43.85884" lon="3.87583">
        <ele>190</ele>
        <time>2014-03-03T14:23:05Z</time>
      </trkpt>
      <trkpt lat="43.85883" lon="3.87584">
        <ele>188.56</ele>
        <time>2014-03-03T14:23:15Z</time>
      </trkpt>
      <trkpt lat="43.85885" lon="3.87584">
        <ele>188.08</ele>
        <time>2014-03-03T14:23:17Z</time>
      </trkpt>
      <trkpt lat="43.85884" lon="3.87592">
        <ele>188.08</ele>
        <time>2014-03-03T14:23:33Z</time>
      </trkpt>
      <trkpt lat="43.85885" lon="3.87603">
        <ele>186.63</ele>
        <time>2014-03-03T14:23:42Z</time>
      </trkpt>
      <trkpt lat="43.85886" lon="3.87606">
        <ele>186.63</ele>
        <time>2014-03-03T14:23:44Z</time>
      </trkpt>
      <trkpt lat="43.85889" lon="3.87612">
        <ele>186.15</ele>
        <time>2014-03-03T14:23:48Z</time>
      </trkpt>
      <trkpt lat="43.85885" lon="3.8763">
        <ele>187.59</ele>
        <time>2014-03-03T14:24:03Z</time>
      </trkpt>
      <trkpt lat="43.85879" lon="3.87645">
        <ele>190.48</ele>
        <time>2014-03-03T14:24:16Z</time>
      </trkpt>
      <trkpt lat="43.85878" lon="3.87649">
        <ele>190.96</ele>
        <time>2014-03-03T14:24:19Z</time>
      </trkpt>
      <trkpt lat="43.85876" lon="3.87652">
        <ele>191.44</ele>
        <time>2014-03-03T14:24:22Z</time>
      </trkpt>
      <trkpt lat="43.85874" lon="3.87658">
        <ele>192.4</ele>
        <time>2014-03-03T14:24:27Z</time>
      </trkpt>
      <trkpt lat="43.85873" lon="3.87664">
        <ele>192.4</ele>
        <time>2014-03-03T14:24:32Z</time>
      </trkpt>
      <trkpt lat="43.8587" lon="3.87675">
        <ele>192.4</ele>
        <time>2014-03-03T14:24:39Z</time>
      </trkpt>
      <trkpt lat="43.8587" lon="3.87687">
        <ele>191.92</ele>
        <time>2014-03-03T14:24:47Z</time>
      </trkpt>
      <trkpt lat="43.85869" lon="3.8769">
        <ele>192.4</ele>
        <time>2014-03-03T14:24:49Z</time>
      </trkpt>
      <trkpt lat="43.85868" lon="3.87696">
        <ele>192.4</ele>
        <time>2014-03-03T14:24:53Z</time>
      </trkpt>
      <trkpt lat="43.85865" lon="3.87707">
        <ele>192.4</ele>
        <time>2014-03-03T14:25:00Z</time>
      </trkpt>
      <trkpt lat="43.8586" lon="3.87725">
        <ele>191.92</ele>
        <time>2014-03-03T14:25:12Z</time>
      </trkpt>
      <trkpt lat="43.85859" lon="3.87726">
        <ele>191.92</ele>
        <time>2014-03-03T14:25:13Z</time>
      </trkpt>
      <trkpt lat="43.85852" lon="3.87745">
        <ele>192.88</ele>
        <time>2014-03-03T14:25:26Z</time>
      </trkpt>
      <trkpt lat="43.85849" lon="3.87757">
        <ele>193.84</ele>
        <time>2014-03-03T14:25:38Z</time>
      </trkpt>
      <trkpt lat="43.85848" lon="3.87762">
        <ele>193.84</ele>
        <time>2014-03-03T14:25:49Z</time>
      </trkpt>
      <trkpt lat="43.85845" lon="3.87784">
        <ele>193.36</ele>
        <time>2014-03-03T14:26:03Z</time>
      </trkpt>
      <trkpt lat="43.85847" lon="3.87798">
        <ele>191.44</ele>
        <time>2014-03-03T14:26:14Z</time>
      </trkpt>
      <trkpt lat="43.85848" lon="3.87806">
        <ele>190</ele>
        <time>2014-03-03T14:26:19Z</time>
      </trkpt>
      <trkpt lat="43.85853" lon="3.87813">
        <ele>188.56</ele>
        <time>2014-03-03T14:26:25Z</time>
      </trkpt>
      <trkpt lat="43.85854" lon="3.87814">
        <ele>188.56</ele>
        <time>2014-03-03T14:26:26Z</time>
      </trkpt>
      <trkpt lat="43.85861" lon="3.87827">
        <ele>187.11</ele>
        <time>2014-03-03T14:26:37Z</time>
      </trkpt>
      <trkpt lat="43.8586" lon="3.87834">
        <ele>188.56</ele>
        <time>2014-03-03T14:26:42Z</time>
      </trkpt>
      <trkpt lat="43.85849" lon="3.87846">
        <ele>187.59</ele>
        <time>2014-03-03T14:26:53Z</time>
      </trkpt>
      <trkpt lat="43.85846" lon="3.87847">
        <ele>187.11</ele>
        <time>2014-03-03T14:26:56Z</time>
      </trkpt>
      <trkpt lat="43.85839" lon="3.87851">
        <ele>186.63</ele>
        <time>2014-03-03T14:27:06Z</time>
      </trkpt>
      <trkpt lat="43.85833" lon="3.8785">
        <ele>187.59</ele>
        <time>2014-03-03T14:27:15Z</time>
      </trkpt>
      <trkpt lat="43.85834" lon="3.8785">
        <ele>187.59</ele>
        <time>2014-03-03T14:27:36Z</time>
      </trkpt>
      <trkpt lat="43.85837" lon="3.8785">
        <ele>187.59</ele>
        <time>2014-03-03T14:27:41Z</time>
      </trkpt>
      <trkpt lat="43.85841" lon="3.87851">
        <ele>187.59</ele>
        <time>2014-03-03T14:27:52Z</time>
      </trkpt>
      <trkpt lat="43.85844" lon="3.8785">
        <ele>187.11</ele>
        <time>2014-03-03T14:28:07Z</time>
      </trkpt>
      <trkpt lat="43.85853" lon="3.87845">
        <ele>187.59</ele>
        <time>2014-03-03T14:28:19Z</time>
      </trkpt>
      <trkpt lat="43.85855" lon="3.87845">
        <ele>187.59</ele>
        <time>2014-03-03T14:28:21Z</time>
      </trkpt>
      <trkpt lat="43.85858" lon="3.87851">
        <ele>187.11</ele>
        <time>2014-03-03T14:28:27Z</time>
      </trkpt>
      <trkpt lat="43.85858" lon="3.87866">
        <ele>188.08</ele>
        <time>2014-03-03T14:28:37Z</time>
      </trkpt>
      <trkpt lat="43.8586" lon="3.8788">
        <ele>186.63</ele>
        <time>2014-03-03T14:28:47Z</time>
      </trkpt>
      <trkpt lat="43.85862" lon="3.87883">
        <ele>186.63</ele>
        <time>2014-03-03T14:28:53Z</time>
      </trkpt>
      <trkpt lat="43.8586" lon="3.87878">
        <ele>187.11</ele>
        <time>2014-03-03T14:28:57Z</time>
      </trkpt>
      <trkpt lat="43.85853" lon="3.87871">
        <ele>187.59</ele>
        <time>2014-03-03T14:29:05Z</time>
      </trkpt>
      <trkpt lat="43.85839" lon="3.87874">
        <ele>186.63</ele>
        <time>2014-03-03T14:29:18Z</time>
      </trkpt>
      <trkpt lat="43.85828" lon="3.87872">
        <ele>186.15</ele>
        <time>2014-03-03T14:29:28Z</time>
      </trkpt>
      <trkpt lat="43.85813" lon="3.87867">
        <ele>187.59</ele>
        <time>2014-03-03T14:29:39Z</time>
      </trkpt>
      <trkpt lat="43.858" lon="3.87862">
        <ele>186.63</ele>
        <time>2014-03-03T14:29:51Z</time>
      </trkpt>
      <trkpt lat="43.85791" lon="3.87859">
        <ele>186.63</ele>
        <time>2014-03-03T14:29:59Z</time>
      </trkpt>
      <trkpt lat="43.85776" lon="3.87856">
        <ele>186.15</ele>
        <time>2014-03-03T14:30:11Z</time>
      </trkpt>
      <trkpt lat="43.85764" lon="3.87856">
        <ele>187.11</ele>
        <time>2014-03-03T14:30:21Z</time>
      </trkpt>
      <trkpt lat="43.85752" lon="3.87853">
        <ele>187.59</ele>
        <time>2014-03-03T14:30:32Z</time>
      </trkpt>
      <trkpt lat="43.85746" lon="3.87852">
        <ele>188.56</ele>
        <time>2014-03-03T14:30:38Z</time>
      </trkpt>
      <trkpt lat="43.85741" lon="3.87851">
        <ele>189.52</ele>
        <time>2014-03-03T14:30:42Z</time>
      </trkpt>
      <trkpt lat="43.85739" lon="3.8785">
        <ele>189.04</ele>
        <time>2014-03-03T14:30:44Z</time>
      </trkpt>
      <trkpt lat="43.85731" lon="3.8786">
        <ele>188.56</ele>
        <time>2014-03-03T14:30:54Z</time>
      </trkpt>
      <trkpt lat="43.85717" lon="3.87868">
        <ele>190</ele>
        <time>2014-03-03T14:31:07Z</time>
      </trkpt>
      <trkpt lat="43.85715" lon="3.87868">
        <ele>190.48</ele>
        <time>2014-03-03T14:31:09Z</time>
      </trkpt>
      <trkpt lat="43.8571" lon="3.87869">
        <ele>190.96</ele>
        <time>2014-03-03T14:31:13Z</time>
      </trkpt>
      <trkpt lat="43.85705" lon="3.87868">
        <ele>192.88</ele>
        <time>2014-03-03T14:31:18Z</time>
      </trkpt>
      <trkpt lat="43.85695" lon="3.87863">
        <ele>192.88</ele>
        <time>2014-03-03T14:31:28Z</time>
      </trkpt>
      <trkpt lat="43.85683" lon="3.87861">
        <ele>194.8</ele>
        <time>2014-03-03T14:31:39Z</time>
      </trkpt>
      <trkpt lat="43.85678" lon="3.87863">
        <ele>196.73</ele>
        <time>2014-03-03T14:31:44Z</time>
      </trkpt>
      <trkpt lat="43.85666" lon="3.87875">
        <ele>197.21</ele>
        <time>2014-03-03T14:31:59Z</time>
      </trkpt>
      <trkpt lat="43.85659" lon="3.87878">
        <ele>194.32</ele>
        <time>2014-03-03T14:32:07Z</time>
      </trkpt>
      <trkpt lat="43.85647" lon="3.87888">
        <ele>193.84</ele>
        <time>2014-03-03T14:32:20Z</time>
      </trkpt>
      <trkpt lat="43.85643" lon="3.879">
        <ele>192.4</ele>
        <time>2014-03-03T14:32:27Z</time>
      </trkpt>
      <trkpt lat="43.85637" lon="3.87906">
        <ele>191.44</ele>
        <time>2014-03-03T14:32:33Z</time>
      </trkpt>
      <trkpt lat="43.8563" lon="3.87906">
        <ele>191.44</ele>
        <time>2014-03-03T14:32:39Z</time>
      </trkpt>
      <trkpt lat="43.85618" lon="3.87904">
        <ele>191.44</ele>
        <time>2014-03-03T14:32:50Z</time>
      </trkpt>
      <trkpt lat="43.85603" lon="3.879">
        <ele>190.48</ele>
        <time>2014-03-03T14:33:03Z</time>
      </trkpt>
      <trkpt lat="43.85601" lon="3.879">
        <ele>190.48</ele>
        <time>2014-03-03T14:33:05Z</time>
      </trkpt>
      <trkpt lat="43.85586" lon="3.87898">
        <ele>190.48</ele>
        <time>2014-03-03T14:33:18Z</time>
      </trkpt>
      <trkpt lat="43.85582" lon="3.87895">
        <ele>190.48</ele>
        <time>2014-03-03T14:33:21Z</time>
      </trkpt>
      <trkpt lat="43.8558" lon="3.87895">
        <ele>190.48</ele>
        <time>2014-03-03T14:33:23Z</time>
      </trkpt>
      <trkpt lat="43.85565" lon="3.87889">
        <ele>191.92</ele>
        <time>2014-03-03T14:33:37Z</time>
      </trkpt>
      <trkpt lat="43.8555" lon="3.87883">
        <ele>194.32</ele>
        <time>2014-03-03T14:33:51Z</time>
      </trkpt>
      <trkpt lat="43.85547" lon="3.87883">
        <ele>194.32</ele>
        <time>2014-03-03T14:33:54Z</time>
      </trkpt>
      <trkpt lat="43.85544" lon="3.87882">
        <ele>194.8</ele>
        <time>2014-03-03T14:33:57Z</time>
      </trkpt>
      <trkpt lat="43.85536" lon="3.87877">
        <ele>197.21</ele>
        <time>2014-03-03T14:34:06Z</time>
      </trkpt>
      <trkpt lat="43.85535" lon="3.87875">
        <ele>193.84</ele>
        <time>2014-03-03T14:34:08Z</time>
      </trkpt>
      <trkpt lat="43.8553" lon="3.87859">
        <ele>196.25</ele>
        <time>2014-03-03T14:34:20Z</time>
      </trkpt>
      <trkpt lat="43.85527" lon="3.87841">
        <ele>197.69</ele>
        <time>2014-03-03T14:34:32Z</time>
      </trkpt>
      <trkpt lat="43.85527" lon="3.87821">
        <ele>198.17</ele>
        <time>2014-03-03T14:34:45Z</time>
      </trkpt>
      <trkpt lat="43.85525" lon="3.87811">
        <ele>198.65</ele>
        <time>2014-03-03T14:34:51Z</time>
      </trkpt>
      <trkpt lat="43.85523" lon="3.87805">
        <ele>199.61</ele>
        <time>2014-03-03T14:34:55Z</time>
      </trkpt>
      <trkpt lat="43.85517" lon="3.87799">
        <ele>200.09</ele>
        <time>2014-03-03T14:35:01Z</time>
      </trkpt>
      <trkpt lat="43.85504" lon="3.87798">
        <ele>199.61</ele>
        <time>2014-03-03T14:35:12Z</time>
      </trkpt>
      <trkpt lat="43.855" lon="3.87798">
        <ele>198.65</ele>
        <time>2014-03-03T14:35:15Z</time>
      </trkpt>
      <trkpt lat="43.85496" lon="3.87799">
        <ele>197.69</ele>
        <time>2014-03-03T14:35:19Z</time>
      </trkpt>
      <trkpt lat="43.85492" lon="3.87798">
        <ele>199.13</ele>
        <time>2014-03-03T14:35:22Z</time>
      </trkpt>
      <trkpt lat="43.8549" lon="3.87798">
        <ele>198.65</ele>
        <time>2014-03-03T14:35:24Z</time>
      </trkpt>
      <trkpt lat="43.85483" lon="3.87796">
        <ele>201.05</ele>
        <time>2014-03-03T14:35:34Z</time>
      </trkpt>
      <trkpt lat="43.85484" lon="3.87796">
        <ele>200.09</ele>
        <time>2014-03-03T14:35:44Z</time>
      </trkpt>
      <trkpt lat="43.85484" lon="3.87796">
        <ele>200.09</ele>
        <time>2014-03-03T14:35:54Z</time>
      </trkpt>
      <trkpt lat="43.85484" lon="3.87796">
        <ele>200.57</ele>
        <time>2014-03-03T14:36:02Z</time>
      </trkpt>
      <trkpt lat="43.85481" lon="3.87803">
        <ele>200.57</ele>
        <time>2014-03-03T14:36:08Z</time>
      </trkpt>
      <trkpt lat="43.85485" lon="3.87823">
        <ele>199.13</ele>
        <time>2014-03-03T14:36:21Z</time>
      </trkpt>
      <trkpt lat="43.85486" lon="3.87827">
        <ele>199.13</ele>
        <time>2014-03-03T14:36:23Z</time>
      </trkpt>
      <trkpt lat="43.85488" lon="3.87847">
        <ele>198.17</ele>
        <time>2014-03-03T14:36:36Z</time>
      </trkpt>
      <trkpt lat="43.85488" lon="3.87858">
        <ele>197.69</ele>
        <time>2014-03-03T14:36:43Z</time>
      </trkpt>
      <trkpt lat="43.85488" lon="3.87868">
        <ele>196.73</ele>
        <time>2014-03-03T14:36:48Z</time>
      </trkpt>
      <trkpt lat="43.8549" lon="3.87878">
        <ele>196.73</ele>
        <time>2014-03-03T14:36:53Z</time>
      </trkpt>
      <trkpt lat="43.85489" lon="3.87882">
        <ele>195.77</ele>
        <time>2014-03-03T14:36:56Z</time>
      </trkpt>
      <trkpt lat="43.85489" lon="3.87892">
        <ele>195.28</ele>
        <time>2014-03-03T14:37:02Z</time>
      </trkpt>
      <trkpt lat="43.85491" lon="3.87901">
        <ele>195.77</ele>
        <time>2014-03-03T14:37:07Z</time>
      </trkpt>
      <trkpt lat="43.85491" lon="3.87909">
        <ele>195.77</ele>
        <time>2014-03-03T14:37:12Z</time>
      </trkpt>
      <trkpt lat="43.8549" lon="3.87927">
        <ele>195.28</ele>
        <time>2014-03-03T14:37:23Z</time>
      </trkpt>
      <trkpt lat="43.8549" lon="3.8795">
        <ele>194.32</ele>
        <time>2014-03-03T14:37:37Z</time>
      </trkpt>
      <trkpt lat="43.85489" lon="3.87955">
        <ele>192.88</ele>
        <time>2014-03-03T14:37:40Z</time>
      </trkpt>
      <trkpt lat="43.85488" lon="3.87958">
        <ele>192.4</ele>
        <time>2014-03-03T14:37:43Z</time>
      </trkpt>
      <trkpt lat="43.85484" lon="3.87961">
        <ele>192.88</ele>
        <time>2014-03-03T14:37:46Z</time>
      </trkpt>
      <trkpt lat="43.85478" lon="3.87962">
        <ele>193.36</ele>
        <time>2014-03-03T14:37:51Z</time>
      </trkpt>
      <trkpt lat="43.85465" lon="3.87965">
        <ele>193.84</ele>
        <time>2014-03-03T14:38:04Z</time>
      </trkpt>
      <trkpt lat="43.85459" lon="3.87957">
        <ele>194.8</ele>
        <time>2014-03-03T14:38:17Z</time>
      </trkpt>
      <trkpt lat="43.8545" lon="3.87961">
        <ele>194.8</ele>
        <time>2014-03-03T14:38:33Z</time>
      </trkpt>
      <trkpt lat="43.85447" lon="3.87961">
        <ele>194.8</ele>
        <time>2014-03-03T14:38:41Z</time>
      </trkpt>
      <trkpt lat="43.85432" lon="3.8796">
        <ele>195.28</ele>
        <time>2014-03-03T14:38:54Z</time>
      </trkpt>
      <trkpt lat="43.85415" lon="3.87957">
        <ele>196.73</ele>
        <time>2014-03-03T14:39:11Z</time>
      </trkpt>
      <trkpt lat="43.85397" lon="3.87959">
        <ele>197.69</ele>
        <time>2014-03-03T14:39:27Z</time>
      </trkpt>
      <trkpt lat="43.85387" lon="3.8796">
        <ele>198.17</ele>
        <time>2014-03-03T14:39:37Z</time>
      </trkpt>
      <trkpt lat="43.85366" lon="3.87966">
        <ele>197.69</ele>
        <time>2014-03-03T14:39:53Z</time>
      </trkpt>
      <trkpt lat="43.85357" lon="3.87975">
        <ele>197.21</ele>
        <time>2014-03-03T14:40:05Z</time>
      </trkpt>
      <trkpt lat="43.85353" lon="3.87987">
        <ele>195.77</ele>
        <time>2014-03-03T14:40:13Z</time>
      </trkpt>
      <trkpt lat="43.85348" lon="3.87999">
        <ele>195.77</ele>
        <time>2014-03-03T14:40:22Z</time>
      </trkpt>
      <trkpt lat="43.85344" lon="3.88014">
        <ele>196.25</ele>
        <time>2014-03-03T14:40:34Z</time>
      </trkpt>
      <trkpt lat="43.85342" lon="3.88033">
        <ele>194.32</ele>
        <time>2014-03-03T14:40:47Z</time>
      </trkpt>
      <trkpt lat="43.85338" lon="3.88051">
        <ele>193.84</ele>
        <time>2014-03-03T14:40:58Z</time>
      </trkpt>
      <trkpt lat="43.85332" lon="3.88072">
        <ele>191.92</ele>
        <time>2014-03-03T14:41:12Z</time>
      </trkpt>
      <trkpt lat="43.85328" lon="3.88089">
        <ele>191.44</ele>
        <time>2014-03-03T14:41:22Z</time>
      </trkpt>
      <trkpt lat="43.85322" lon="3.88106">
        <ele>190.48</ele>
        <time>2014-03-03T14:41:34Z</time>
      </trkpt>
      <trkpt lat="43.85317" lon="3.88127">
        <ele>189.52</ele>
        <time>2014-03-03T14:41:46Z</time>
      </trkpt>
      <trkpt lat="43.85312" lon="3.88145">
        <ele>188.56</ele>
        <time>2014-03-03T14:41:57Z</time>
      </trkpt>
      <trkpt lat="43.85305" lon="3.88164">
        <ele>187.59</ele>
        <time>2014-03-03T14:42:08Z</time>
      </trkpt>
      <trkpt lat="43.853" lon="3.88182">
        <ele>186.15</ele>
        <time>2014-03-03T14:42:20Z</time>
      </trkpt>
      <trkpt lat="43.85294" lon="3.88201">
        <ele>185.19</ele>
        <time>2014-03-03T14:42:31Z</time>
      </trkpt>
      <trkpt lat="43.85289" lon="3.88216">
        <ele>185.67</ele>
        <time>2014-03-03T14:42:40Z</time>
      </trkpt>
      <trkpt lat="43.85288" lon="3.88228">
        <ele>184.71</ele>
        <time>2014-03-03T14:42:56Z</time>
      </trkpt>
      <trkpt lat="43.85288" lon="3.88231">
        <ele>184.71</ele>
        <time>2014-03-03T14:43:07Z</time>
      </trkpt>
      <trkpt lat="43.85285" lon="3.88233">
        <ele>184.23</ele>
        <time>2014-03-03T14:43:25Z</time>
      </trkpt>
      <trkpt lat="43.85283" lon="3.8824">
        <ele>184.23</ele>
        <time>2014-03-03T14:43:39Z</time>
      </trkpt>
      <trkpt lat="43.85282" lon="3.8824">
        <ele>185.19</ele>
        <time>2014-03-03T14:43:50Z</time>
      </trkpt>
      <trkpt lat="43.85282" lon="3.88242">
        <ele>184.23</ele>
        <time>2014-03-03T14:44:28Z</time>
      </trkpt>
      <trkpt lat="43.85279" lon="3.88247">
        <ele>184.23</ele>
        <time>2014-03-03T14:44:42Z</time>
      </trkpt>
      <trkpt lat="43.85279" lon="3.88255">
        <ele>183.27</ele>
        <time>2014-03-03T14:44:57Z</time>
      </trkpt>
      <trkpt lat="43.85281" lon="3.8827">
        <ele>182.31</ele>
        <time>2014-03-03T14:45:11Z</time>
      </trkpt>
      <trkpt lat="43.8528" lon="3.88288">
        <ele>181.35</ele>
        <time>2014-03-03T14:45:27Z</time>
      </trkpt>
      <trkpt lat="43.85279" lon="3.8829">
        <ele>180.38</ele>
        <time>2014-03-03T14:45:29Z</time>
      </trkpt>
      <trkpt lat="43.85272" lon="3.88315">
        <ele>178.46</ele>
        <time>2014-03-03T14:45:47Z</time>
      </trkpt>
      <trkpt lat="43.85272" lon="3.88337">
        <ele>177.98</ele>
        <time>2014-03-03T14:46:02Z</time>
      </trkpt>
      <trkpt lat="43.85275" lon="3.88361">
        <ele>177.02</ele>
        <time>2014-03-03T14:46:18Z</time>
      </trkpt>
      <trkpt lat="43.85276" lon="3.88388">
        <ele>176.06</ele>
        <time>2014-03-03T14:46:35Z</time>
      </trkpt>
      <trkpt lat="43.85277" lon="3.88405">
        <ele>177.02</ele>
        <time>2014-03-03T14:46:44Z</time>
      </trkpt>
      <trkpt lat="43.85277" lon="3.88412">
        <ele>176.54</ele>
        <time>2014-03-03T14:46:48Z</time>
      </trkpt>
      <trkpt lat="43.85279" lon="3.88431">
        <ele>174.62</ele>
        <time>2014-03-03T14:47:02Z</time>
      </trkpt>
      <trkpt lat="43.85279" lon="3.88432">
        <ele>174.14</ele>
        <time>2014-03-03T14:47:03Z</time>
      </trkpt>
      <trkpt lat="43.85278" lon="3.8845">
        <ele>172.69</ele>
        <time>2014-03-03T14:47:15Z</time>
      </trkpt>
      <trkpt lat="43.85274" lon="3.88472">
        <ele>171.73</ele>
        <time>2014-03-03T14:47:28Z</time>
      </trkpt>
      <trkpt lat="43.8527" lon="3.88484">
        <ele>170.29</ele>
        <time>2014-03-03T14:47:37Z</time>
      </trkpt>
      <trkpt lat="43.85269" lon="3.88485">
        <ele>170.29</ele>
        <time>2014-03-03T14:47:53Z</time>
      </trkpt>
      <trkpt lat="43.8527" lon="3.88487">
        <ele>169.81</ele>
        <time>2014-03-03T14:48:07Z</time>
      </trkpt>
      <trkpt lat="43.8527" lon="3.88488">
        <ele>169.81</ele>
        <time>2014-03-03T14:48:22Z</time>
      </trkpt>
      <trkpt lat="43.85265" lon="3.88487">
        <ele>170.77</ele>
        <time>2014-03-03T14:48:41Z</time>
      </trkpt>
      <trkpt lat="43.85266" lon="3.88486">
        <ele>170.29</ele>
        <time>2014-03-03T14:49:00Z</time>
      </trkpt>
      <trkpt lat="43.85267" lon="3.88486">
        <ele>170.29</ele>
        <time>2014-03-03T14:49:20Z</time>
      </trkpt>
      <trkpt lat="43.85265" lon="3.88483">
        <ele>170.29</ele>
        <time>2014-03-03T14:49:33Z</time>
      </trkpt>
      <trkpt lat="43.85263" lon="3.88481">
        <ele>170.29</ele>
        <time>2014-03-03T14:49:55Z</time>
      </trkpt>
      <trkpt lat="43.85259" lon="3.88476">
        <ele>170.77</ele>
        <time>2014-03-03T14:50:02Z</time>
      </trkpt>
      <trkpt lat="43.85256" lon="3.88471">
        <ele>170.29</ele>
        <time>2014-03-03T14:50:11Z</time>
      </trkpt>
      <trkpt lat="43.85254" lon="3.88469">
        <ele>170.77</ele>
        <time>2014-03-03T14:50:14Z</time>
      </trkpt>
      <trkpt lat="43.85253" lon="3.88468">
        <ele>171.25</ele>
        <time>2014-03-03T14:50:15Z</time>
      </trkpt>
      <trkpt lat="43.85252" lon="3.88467">
        <ele>171.25</ele>
        <time>2014-03-03T14:50:16Z</time>
      </trkpt>
      <trkpt lat="43.85246" lon="3.88456">
        <ele>171.73</ele>
        <time>2014-03-03T14:50:27Z</time>
      </trkpt>
      <trkpt lat="43.85241" lon="3.88442">
        <ele>173.17</ele>
        <time>2014-03-03T14:50:40Z</time>
      </trkpt>
      <trkpt lat="43.85235" lon="3.88426">
        <ele>174.62</ele>
        <time>2014-03-03T14:50:53Z</time>
      </trkpt>
      <trkpt lat="43.8522" lon="3.88418">
        <ele>176.06</ele>
        <time>2014-03-03T14:51:07Z</time>
      </trkpt>
      <trkpt lat="43.85205" lon="3.8841">
        <ele>177.02</ele>
        <time>2014-03-03T14:51:20Z</time>
      </trkpt>
      <trkpt lat="43.85201" lon="3.88408">
        <ele>177.5</ele>
        <time>2014-03-03T14:51:24Z</time>
      </trkpt>
      <trkpt lat="43.852" lon="3.88407">
        <ele>177.5</ele>
        <time>2014-03-03T14:51:25Z</time>
      </trkpt>
      <trkpt lat="43.85185" lon="3.88402">
        <ele>177.5</ele>
        <time>2014-03-03T14:51:38Z</time>
      </trkpt>
      <trkpt lat="43.85172" lon="3.88394">
        <ele>177.5</ele>
        <time>2014-03-03T14:51:50Z</time>
      </trkpt>
      <trkpt lat="43.85155" lon="3.88384">
        <ele>177.5</ele>
        <time>2014-03-03T14:52:04Z</time>
      </trkpt>
      <trkpt lat="43.85137" lon="3.88374">
        <ele>176.54</ele>
        <time>2014-03-03T14:52:20Z</time>
      </trkpt>
      <trkpt lat="43.85123" lon="3.88365">
        <ele>176.06</ele>
        <time>2014-03-03T14:52:34Z</time>
      </trkpt>
      <trkpt lat="43.85107" lon="3.88347">
        <ele>175.1</ele>
        <time>2014-03-03T14:52:51Z</time>
      </trkpt>
      <trkpt lat="43.85092" lon="3.88331">
        <ele>175.1</ele>
        <time>2014-03-03T14:53:06Z</time>
      </trkpt>
      <trkpt lat="43.85074" lon="3.88319">
        <ele>174.14</ele>
        <time>2014-03-03T14:53:22Z</time>
      </trkpt>
      <trkpt lat="43.85059" lon="3.88314">
        <ele>175.1</ele>
        <time>2014-03-03T14:53:35Z</time>
      </trkpt>
      <trkpt lat="43.85058" lon="3.88315">
        <ele>175.58</ele>
        <time>2014-03-03T14:53:36Z</time>
      </trkpt>
      <trkpt lat="43.85049" lon="3.88317">
        <ele>175.1</ele>
        <time>2014-03-03T14:53:43Z</time>
      </trkpt>
      <trkpt lat="43.85033" lon="3.88321">
        <ele>176.54</ele>
        <time>2014-03-03T14:53:58Z</time>
      </trkpt>
      <trkpt lat="43.85018" lon="3.88316">
        <ele>178.94</ele>
        <time>2014-03-03T14:54:14Z</time>
      </trkpt>
      <trkpt lat="43.85016" lon="3.88315">
        <ele>179.9</ele>
        <time>2014-03-03T14:54:16Z</time>
      </trkpt>
      <trkpt lat="43.85001" lon="3.88306">
        <ele>180.87</ele>
        <time>2014-03-03T14:54:31Z</time>
      </trkpt>
      <trkpt lat="43.84987" lon="3.88294">
        <ele>181.35</ele>
        <time>2014-03-03T14:54:46Z</time>
      </trkpt>
      <trkpt lat="43.84971" lon="3.88286">
        <ele>182.79</ele>
        <time>2014-03-03T14:55:00Z</time>
      </trkpt>
      <trkpt lat="43.84968" lon="3.88286">
        <ele>183.27</ele>
        <time>2014-03-03T14:55:03Z</time>
      </trkpt>
      <trkpt lat="43.84964" lon="3.88285">
        <ele>182.79</ele>
        <time>2014-03-03T14:55:06Z</time>
      </trkpt>
      <trkpt lat="43.8495" lon="3.88282">
        <ele>183.27</ele>
        <time>2014-03-03T14:55:18Z</time>
      </trkpt>
      <trkpt lat="43.84949" lon="3.88282">
        <ele>183.27</ele>
        <time>2014-03-03T14:55:19Z</time>
      </trkpt>
      <trkpt lat="43.84941" lon="3.88287">
        <ele>182.79</ele>
        <time>2014-03-03T14:55:26Z</time>
      </trkpt>
      <trkpt lat="43.84932" lon="3.88302">
        <ele>183.75</ele>
        <time>2014-03-03T14:55:38Z</time>
      </trkpt>
      <trkpt lat="43.84922" lon="3.88323">
        <ele>182.79</ele>
        <time>2014-03-03T14:55:54Z</time>
      </trkpt>
      <trkpt lat="43.84922" lon="3.88322">
        <ele>182.31</ele>
        <time>2014-03-03T14:56:03Z</time>
      </trkpt>
      <trkpt lat="43.84927" lon="3.88313">
        <ele>183.27</ele>
        <time>2014-03-03T14:56:10Z</time>
      </trkpt>
      <trkpt lat="43.84924" lon="3.8831">
        <ele>183.27</ele>
        <time>2014-03-03T14:56:14Z</time>
      </trkpt>
      <trkpt lat="43.84923" lon="3.8831">
        <ele>184.23</ele>
        <time>2014-03-03T14:56:15Z</time>
      </trkpt>
      <trkpt lat="43.84909" lon="3.8831">
        <ele>184.71</ele>
        <time>2014-03-03T14:56:29Z</time>
      </trkpt>
      <trkpt lat="43.84904" lon="3.88309">
        <ele>185.19</ele>
        <time>2014-03-03T14:56:34Z</time>
      </trkpt>
      <trkpt lat="43.84899" lon="3.88306">
        <ele>185.67</ele>
        <time>2014-03-03T14:56:39Z</time>
      </trkpt>
      <trkpt lat="43.84897" lon="3.88305">
        <ele>186.15</ele>
        <time>2014-03-03T14:56:41Z</time>
      </trkpt>
      <trkpt lat="43.84893" lon="3.88296">
        <ele>186.63</ele>
        <time>2014-03-03T14:56:50Z</time>
      </trkpt>
      <trkpt lat="43.84884" lon="3.88283">
        <ele>187.59</ele>
        <time>2014-03-03T14:57:03Z</time>
      </trkpt>
      <trkpt lat="43.84874" lon="3.88271">
        <ele>188.08</ele>
        <time>2014-03-03T14:57:15Z</time>
      </trkpt>
      <trkpt lat="43.84865" lon="3.88259">
        <ele>189.04</ele>
        <time>2014-03-03T14:57:27Z</time>
      </trkpt>
      <trkpt lat="43.84856" lon="3.88243">
        <ele>189.04</ele>
        <time>2014-03-03T14:57:40Z</time>
      </trkpt>
      <trkpt lat="43.84848" lon="3.88228">
        <ele>190</ele>
        <time>2014-03-03T14:57:53Z</time>
      </trkpt>
      <trkpt lat="43.84846" lon="3.88223">
        <ele>190</ele>
        <time>2014-03-03T14:57:57Z</time>
      </trkpt>
      <trkpt lat="43.84839" lon="3.8821">
        <ele>190.48</ele>
        <time>2014-03-03T14:58:07Z</time>
      </trkpt>
      <trkpt lat="43.84836" lon="3.88199">
        <ele>191.92</ele>
        <time>2014-03-03T14:58:15Z</time>
      </trkpt>
      <trkpt lat="43.84829" lon="3.88179">
        <ele>192.4</ele>
        <time>2014-03-03T14:58:32Z</time>
      </trkpt>
      <trkpt lat="43.84827" lon="3.88156">
        <ele>190.48</ele>
        <time>2014-03-03T14:58:48Z</time>
      </trkpt>
      <trkpt lat="43.84827" lon="3.88133">
        <ele>190</ele>
        <time>2014-03-03T14:59:03Z</time>
      </trkpt>
      <trkpt lat="43.84825" lon="3.88128">
        <ele>190.48</ele>
        <time>2014-03-03T14:59:08Z</time>
      </trkpt>
      <trkpt lat="43.84824" lon="3.88124">
        <ele>190.48</ele>
        <time>2014-03-03T14:59:10Z</time>
      </trkpt>
      <trkpt lat="43.84824" lon="3.88122">
        <ele>190</ele>
        <time>2014-03-03T14:59:11Z</time>
      </trkpt>
      <trkpt lat="43.84823" lon="3.88121">
        <ele>190.48</ele>
        <time>2014-03-03T14:59:12Z</time>
      </trkpt>
      <trkpt lat="43.84816" lon="3.88104">
        <ele>190.48</ele>
        <time>2014-03-03T14:59:24Z</time>
      </trkpt>
      <trkpt lat="43.84809" lon="3.88102">
        <ele>190.48</ele>
        <time>2014-03-03T14:59:31Z</time>
      </trkpt>
      <trkpt lat="43.84801" lon="3.88108">
        <ele>192.4</ele>
        <time>2014-03-03T14:59:41Z</time>
      </trkpt>
      <trkpt lat="43.848" lon="3.88111">
        <ele>192.88</ele>
        <time>2014-03-03T14:59:43Z</time>
      </trkpt>
      <trkpt lat="43.84799" lon="3.88112">
        <ele>193.36</ele>
        <time>2014-03-03T14:59:44Z</time>
      </trkpt>
      <trkpt lat="43.84784" lon="3.88114">
        <ele>193.36</ele>
        <time>2014-03-03T14:59:56Z</time>
      </trkpt>
      <trkpt lat="43.84772" lon="3.88108">
        <ele>194.32</ele>
        <time>2014-03-03T15:00:07Z</time>
      </trkpt>
      <trkpt lat="43.84758" lon="3.881">
        <ele>195.28</ele>
        <time>2014-03-03T15:00:19Z</time>
      </trkpt>
      <trkpt lat="43.84757" lon="3.88097">
        <ele>196.25</ele>
        <time>2014-03-03T15:00:21Z</time>
      </trkpt>
      <trkpt lat="43.84756" lon="3.88095">
        <ele>196.25</ele>
        <time>2014-03-03T15:00:23Z</time>
      </trkpt>
      <trkpt lat="43.84756" lon="3.88093">
        <ele>196.25</ele>
        <time>2014-03-03T15:00:24Z</time>
      </trkpt>
      <trkpt lat="43.84752" lon="3.8808">
        <ele>197.69</ele>
        <time>2014-03-03T15:00:36Z</time>
      </trkpt>
      <trkpt lat="43.8475" lon="3.88076">
        <ele>198.17</ele>
        <time>2014-03-03T15:00:47Z</time>
      </trkpt>
      <trkpt lat="43.84751" lon="3.88075">
        <ele>197.69</ele>
        <time>2014-03-03T15:00:50Z</time>
      </trkpt>
      <trkpt lat="43.84751" lon="3.88073">
        <ele>197.69</ele>
        <time>2014-03-03T15:00:51Z</time>
      </trkpt>
      <trkpt lat="43.8475" lon="3.88068">
        <ele>199.13</ele>
        <time>2014-03-03T15:00:57Z</time>
      </trkpt>
      <trkpt lat="43.84749" lon="3.88066">
        <ele>199.13</ele>
        <time>2014-03-03T15:00:58Z</time>
      </trkpt>
      <trkpt lat="43.84748" lon="3.88065">
        <ele>199.13</ele>
        <time>2014-03-03T15:00:59Z</time>
      </trkpt>
      <trkpt lat="43.84746" lon="3.88062">
        <ele>199.13</ele>
        <time>2014-03-03T15:01:03Z</time>
      </trkpt>
      <trkpt lat="43.84745" lon="3.88062">
        <ele>199.13</ele>
        <time>2014-03-03T15:01:04Z</time>
      </trkpt>
      <trkpt lat="43.84743" lon="3.88062">
        <ele>199.13</ele>
        <time>2014-03-03T15:01:05Z</time>
      </trkpt>
      <trkpt lat="43.84732" lon="3.88059">
        <ele>197.69</ele>
        <time>2014-03-03T15:01:14Z</time>
      </trkpt>
      <trkpt lat="43.84719" lon="3.88057">
        <ele>197.21</ele>
        <time>2014-03-03T15:01:24Z</time>
      </trkpt>
      <trkpt lat="43.84712" lon="3.88058">
        <ele>197.21</ele>
        <time>2014-03-03T15:01:30Z</time>
      </trkpt>
      <trkpt lat="43.84712" lon="3.88059">
        <ele>197.21</ele>
        <time>2014-03-03T15:01:31Z</time>
      </trkpt>
      <trkpt lat="43.84704" lon="3.88068">
        <ele>197.69</ele>
        <time>2014-03-03T15:01:43Z</time>
      </trkpt>
      <trkpt lat="43.84703" lon="3.88068">
        <ele>197.69</ele>
        <time>2014-03-03T15:01:44Z</time>
      </trkpt>
      <trkpt lat="43.84689" lon="3.8807">
        <ele>198.65</ele>
        <time>2014-03-03T15:01:57Z</time>
      </trkpt>
      <trkpt lat="43.84674" lon="3.88062">
        <ele>199.61</ele>
        <time>2014-03-03T15:02:12Z</time>
      </trkpt>
      <trkpt lat="43.84664" lon="3.88057">
        <ele>200.09</ele>
        <time>2014-03-03T15:02:21Z</time>
      </trkpt>
      <trkpt lat="43.84652" lon="3.88053">
        <ele>200.57</ele>
        <time>2014-03-03T15:02:31Z</time>
      </trkpt>
      <trkpt lat="43.84647" lon="3.88051">
        <ele>200.57</ele>
        <time>2014-03-03T15:02:38Z</time>
      </trkpt>
      <trkpt lat="43.84646" lon="3.88051">
        <ele>200.57</ele>
        <time>2014-03-03T15:02:39Z</time>
      </trkpt>
      <trkpt lat="43.84645" lon="3.88051">
        <ele>200.57</ele>
        <time>2014-03-03T15:02:40Z</time>
      </trkpt>
      <trkpt lat="43.84639" lon="3.88049">
        <ele>203.94</ele>
        <time>2014-03-03T15:02:47Z</time>
      </trkpt>
      <trkpt lat="43.84637" lon="3.8805">
        <ele>203.46</ele>
        <time>2014-03-03T15:02:50Z</time>
      </trkpt>
      <trkpt lat="43.84633" lon="3.8805">
        <ele>203.94</ele>
        <time>2014-03-03T15:02:56Z</time>
      </trkpt>
      <trkpt lat="43.84627" lon="3.88045">
        <ele>204.42</ele>
        <time>2014-03-03T15:03:04Z</time>
      </trkpt>
      <trkpt lat="43.84623" lon="3.88037">
        <ele>205.86</ele>
        <time>2014-03-03T15:03:17Z</time>
      </trkpt>
      <trkpt lat="43.8462" lon="3.88031">
        <ele>207.3</ele>
        <time>2014-03-03T15:03:23Z</time>
      </trkpt>
      <trkpt lat="43.84615" lon="3.88028">
        <ele>208.26</ele>
        <time>2014-03-03T15:03:32Z</time>
      </trkpt>
      <trkpt lat="43.84602" lon="3.88022">
        <ele>209.22</ele>
        <time>2014-03-03T15:03:45Z</time>
      </trkpt>
      <trkpt lat="43.84598" lon="3.88021">
        <ele>208.74</ele>
        <time>2014-03-03T15:03:49Z</time>
      </trkpt>
      <trkpt lat="43.84592" lon="3.88018">
        <ele>209.7</ele>
        <time>2014-03-03T15:04:01Z</time>
      </trkpt>
      <trkpt lat="43.84577" lon="3.88014">
        <ele>211.15</ele>
        <time>2014-03-03T15:04:17Z</time>
      </trkpt>
      <trkpt lat="43.84573" lon="3.88009">
        <ele>211.15</ele>
        <time>2014-03-03T15:04:23Z</time>
      </trkpt>
      <trkpt lat="43.84572" lon="3.88002">
        <ele>211.15</ele>
        <time>2014-03-03T15:04:29Z</time>
      </trkpt>
      <trkpt lat="43.84574" lon="3.87993">
        <ele>211.15</ele>
        <time>2014-03-03T15:04:35Z</time>
      </trkpt>
      <trkpt lat="43.84571" lon="3.87973">
        <ele>208.74</ele>
        <time>2014-03-03T15:04:49Z</time>
      </trkpt>
      <trkpt lat="43.84565" lon="3.87957">
        <ele>208.26</ele>
        <time>2014-03-03T15:05:00Z</time>
      </trkpt>
      <trkpt lat="43.8456" lon="3.87955">
        <ele>207.78</ele>
        <time>2014-03-03T15:05:04Z</time>
      </trkpt>
      <trkpt lat="43.84554" lon="3.87948">
        <ele>207.3</ele>
        <time>2014-03-03T15:05:13Z</time>
      </trkpt>
      <trkpt lat="43.84549" lon="3.87944">
        <ele>205.86</ele>
        <time>2014-03-03T15:05:20Z</time>
      </trkpt>
      <trkpt lat="43.8454" lon="3.8794">
        <ele>203.94</ele>
        <time>2014-03-03T15:05:29Z</time>
      </trkpt>
      <trkpt lat="43.84538" lon="3.87938">
        <ele>203.46</ele>
        <time>2014-03-03T15:05:32Z</time>
      </trkpt>
      <trkpt lat="43.84527" lon="3.87933">
        <ele>202.98</ele>
        <time>2014-03-03T15:05:43Z</time>
      </trkpt>
      <trkpt lat="43.84517" lon="3.87931">
        <ele>201.53</ele>
        <time>2014-03-03T15:05:54Z</time>
      </trkpt>
      <trkpt lat="43.84506" lon="3.8793">
        <ele>200.09</ele>
        <time>2014-03-03T15:06:04Z</time>
      </trkpt>
      <trkpt lat="43.84494" lon="3.87925">
        <ele>198.65</ele>
        <time>2014-03-03T15:06:17Z</time>
      </trkpt>
      <trkpt lat="43.84486" lon="3.87923">
        <ele>198.65</ele>
        <time>2014-03-03T15:06:28Z</time>
      </trkpt>
      <trkpt lat="43.8448" lon="3.87918">
        <ele>196.25</ele>
        <time>2014-03-03T15:06:42Z</time>
      </trkpt>
      <trkpt lat="43.84475" lon="3.87913">
        <ele>194.32</ele>
        <time>2014-03-03T15:06:51Z</time>
      </trkpt>
      <trkpt lat="43.84473" lon="3.8791">
        <ele>193.84</ele>
        <time>2014-03-03T15:06:54Z</time>
      </trkpt>
      <trkpt lat="43.84468" lon="3.87907">
        <ele>193.84</ele>
        <time>2014-03-03T15:07:02Z</time>
      </trkpt>
      <trkpt lat="43.84462" lon="3.87899">
        <ele>190.96</ele>
        <time>2014-03-03T15:07:13Z</time>
      </trkpt>
      <trkpt lat="43.84459" lon="3.87896">
        <ele>189.04</ele>
        <time>2014-03-03T15:07:23Z</time>
      </trkpt>
      <trkpt lat="43.84456" lon="3.87896">
        <ele>189.04</ele>
        <time>2014-03-03T15:07:27Z</time>
      </trkpt>
      <trkpt lat="43.84448" lon="3.879">
        <ele>188.56</ele>
        <time>2014-03-03T15:07:39Z</time>
      </trkpt>
      <trkpt lat="43.84446" lon="3.879">
        <ele>189.52</ele>
        <time>2014-03-03T15:07:51Z</time>
      </trkpt>
      <trkpt lat="43.84443" lon="3.87903">
        <ele>188.56</ele>
        <time>2014-03-03T15:08:01Z</time>
      </trkpt>
      <trkpt lat="43.84439" lon="3.87908">
        <ele>186.63</ele>
        <time>2014-03-03T15:08:11Z</time>
      </trkpt>
      <trkpt lat="43.84435" lon="3.87909">
        <ele>185.67</ele>
        <time>2014-03-03T15:08:20Z</time>
      </trkpt>
      <trkpt lat="43.8443" lon="3.87909">
        <ele>185.19</ele>
        <time>2014-03-03T15:08:31Z</time>
      </trkpt>
      <trkpt lat="43.84428" lon="3.87908">
        <ele>185.19</ele>
        <time>2014-03-03T15:08:34Z</time>
      </trkpt>
      <trkpt lat="43.8442" lon="3.87903">
        <ele>186.63</ele>
        <time>2014-03-03T15:08:47Z</time>
      </trkpt>
      <trkpt lat="43.84411" lon="3.87899">
        <ele>185.67</ele>
        <time>2014-03-03T15:09:00Z</time>
      </trkpt>
      <trkpt lat="43.84405" lon="3.87897">
        <ele>185.67</ele>
        <time>2014-03-03T15:09:07Z</time>
      </trkpt>
      <trkpt lat="43.84397" lon="3.87886">
        <ele>186.15</ele>
        <time>2014-03-03T15:09:21Z</time>
      </trkpt>
      <trkpt lat="43.84389" lon="3.87881">
        <ele>185.67</ele>
        <time>2014-03-03T15:09:33Z</time>
      </trkpt>
      <trkpt lat="43.84385" lon="3.87878">
        <ele>185.67</ele>
        <time>2014-03-03T15:09:44Z</time>
      </trkpt>
      <trkpt lat="43.84384" lon="3.87874">
        <ele>185.19</ele>
        <time>2014-03-03T15:09:58Z</time>
      </trkpt>
      <trkpt lat="43.84385" lon="3.87878">
        <ele>185.67</ele>
        <time>2014-03-03T15:10:17Z</time>
      </trkpt>
      <trkpt lat="43.84384" lon="3.87879">
        <ele>185.19</ele>
        <time>2014-03-03T15:10:19Z</time>
      </trkpt>
      <trkpt lat="43.84379" lon="3.87893">
        <ele>184.71</ele>
        <time>2014-03-03T15:10:30Z</time>
      </trkpt>
      <trkpt lat="43.84378" lon="3.87894">
        <ele>184.71</ele>
        <time>2014-03-03T15:10:31Z</time>
      </trkpt>
      <trkpt lat="43.84378" lon="3.879">
        <ele>183.75</ele>
        <time>2014-03-03T15:10:35Z</time>
      </trkpt>
      <trkpt lat="43.84374" lon="3.87913">
        <ele>183.75</ele>
        <time>2014-03-03T15:10:45Z</time>
      </trkpt>
      <trkpt lat="43.84371" lon="3.87915">
        <ele>183.75</ele>
        <time>2014-03-03T15:10:49Z</time>
      </trkpt>
      <trkpt lat="43.84356" lon="3.87916">
        <ele>183.75</ele>
        <time>2014-03-03T15:11:02Z</time>
      </trkpt>
      <trkpt lat="43.84352" lon="3.87918">
        <ele>183.75</ele>
        <time>2014-03-03T15:11:07Z</time>
      </trkpt>
      <trkpt lat="43.84336" lon="3.8792">
        <ele>187.11</ele>
        <time>2014-03-03T15:11:20Z</time>
      </trkpt>
      <trkpt lat="43.84317" lon="3.8792">
        <ele>188.56</ele>
        <time>2014-03-03T15:11:36Z</time>
      </trkpt>
      <trkpt lat="43.84309" lon="3.87921">
        <ele>189.04</ele>
        <time>2014-03-03T15:11:44Z</time>
      </trkpt>
      <trkpt lat="43.84303" lon="3.87914">
        <ele>187.59</ele>
        <time>2014-03-03T15:11:57Z</time>
      </trkpt>
      <trkpt lat="43.84304" lon="3.87913">
        <ele>188.56</ele>
        <time>2014-03-03T15:12:07Z</time>
      </trkpt>
      <trkpt lat="43.84303" lon="3.87912">
        <ele>188.56</ele>
        <time>2014-03-03T15:12:17Z</time>
      </trkpt>
      <trkpt lat="43.84302" lon="3.87912">
        <ele>188.56</ele>
        <time>2014-03-03T15:12:44Z</time>
      </trkpt>
      <trkpt lat="43.84301" lon="3.87913">
        <ele>188.08</ele>
        <time>2014-03-03T15:13:02Z</time>
      </trkpt>
      <trkpt lat="43.84301" lon="3.87912">
        <ele>188.56</ele>
        <time>2014-03-03T15:13:16Z</time>
      </trkpt>
      <trkpt lat="43.84302" lon="3.87912">
        <ele>189.52</ele>
        <time>2014-03-03T15:13:32Z</time>
      </trkpt>
      <trkpt lat="43.84303" lon="3.87912">
        <ele>188.08</ele>
        <time>2014-03-03T15:13:36Z</time>
      </trkpt>
      <trkpt lat="43.84303" lon="3.87913">
        <ele>187.11</ele>
        <time>2014-03-03T15:13:46Z</time>
      </trkpt>
      <trkpt lat="43.84302" lon="3.87913">
        <ele>187.59</ele>
        <time>2014-03-03T15:14:13Z</time>
      </trkpt>
      <trkpt lat="43.84302" lon="3.87912">
        <ele>188.56</ele>
        <time>2014-03-03T15:14:35Z</time>
      </trkpt>
      <trkpt lat="43.84303" lon="3.87911">
        <ele>188.08</ele>
        <time>2014-03-03T15:14:54Z</time>
      </trkpt>
      <trkpt lat="43.84302" lon="3.87913">
        <ele>188.08</ele>
        <time>2014-03-03T15:15:11Z</time>
      </trkpt>
      <trkpt lat="43.84302" lon="3.87912">
        <ele>187.59</ele>
        <time>2014-03-03T15:15:21Z</time>
      </trkpt>
      <trkpt lat="43.84303" lon="3.8791">
        <ele>188.08</ele>
        <time>2014-03-03T15:15:41Z</time>
      </trkpt>
      <trkpt lat="43.84304" lon="3.87909">
        <ele>186.63</ele>
        <time>2014-03-03T15:15:58Z</time>
      </trkpt>
      <trkpt lat="43.84301" lon="3.87911">
        <ele>188.56</ele>
        <time>2014-03-03T15:16:10Z</time>
      </trkpt>
      <trkpt lat="43.84302" lon="3.87912">
        <ele>189.04</ele>
        <time>2014-03-03T15:16:23Z</time>
      </trkpt>
      <trkpt lat="43.84301" lon="3.87912">
        <ele>188.08</ele>
        <time>2014-03-03T15:16:40Z</time>
      </trkpt>
      <trkpt lat="43.84301" lon="3.8791">
        <ele>188.08</ele>
        <time>2014-03-03T15:17:06Z</time>
      </trkpt>
      <trkpt lat="43.84302" lon="3.8791">
        <ele>188.08</ele>
        <time>2014-03-03T15:17:35Z</time>
      </trkpt>
      <trkpt lat="43.84301" lon="3.87912">
        <ele>187.59</ele>
        <time>2014-03-03T15:18:02Z</time>
      </trkpt>
      <trkpt lat="43.84303" lon="3.87911">
        <ele>188.56</ele>
        <time>2014-03-03T15:18:35Z</time>
      </trkpt>
      <trkpt lat="43.84303" lon="3.87911">
        <ele>188.56</ele>
        <time>2014-03-03T15:18:59Z</time>
      </trkpt>
      <trkpt lat="43.84304" lon="3.87909">
        <ele>189.04</ele>
        <time>2014-03-03T15:19:30Z</time>
      </trkpt>
      <trkpt lat="43.84306" lon="3.87909">
        <ele>188.08</ele>
        <time>2014-03-03T15:19:53Z</time>
      </trkpt>
      <trkpt lat="43.84304" lon="3.87909">
        <ele>188.08</ele>
        <time>2014-03-03T15:20:27Z</time>
      </trkpt>
    </trkseg>
  </trk>
</gpx>